<?xml version="1.0" encoding="UTF-8" standalone="no" ?>
<gpx xmlns="http://www.topografix.com/GPX/1/1" xmlns:xsi="http://www.w3.org/2001/XMLSchema-instance" xsi:schemaLocation="http://www.topografix.com/GPX/1/1 http://www.topografix.com/GPX/1/1/gpx.xsd" version="1.1" creator="VisuGPX - https://www.visugpx.com">
  <metadata>
    <name>thun l\\\'eveque /ramillies</name>
    <desc><![CDATA[Trace AlpineQuest 02/03/2014 15:24:31]]></desc>
  </metadata>
  <trk>
    <name><![CDATA[thun l\\\'eveque /ramillies_1]]></name>
    <trkseg>
      <trkpt lat="50.22437" lon="3.28679">
        <ele>86</ele>
        <time>2014-03-02T14:24:31Z</time>
      </trkpt>
      <trkpt lat="50.22434" lon="3.28677">
        <ele>89</ele>
        <time>2014-03-02T14:24:34Z</time>
      </trkpt>
      <trkpt lat="50.22432" lon="3.28672">
        <ele>91</ele>
        <time>2014-03-02T14:24:37Z</time>
      </trkpt>
      <trkpt lat="50.2243" lon="3.28668">
        <ele>90</ele>
        <time>2014-03-02T14:24:41Z</time>
      </trkpt>
      <trkpt lat="50.22429" lon="3.28664">
        <ele>91</ele>
        <time>2014-03-02T14:24:44Z</time>
      </trkpt>
      <trkpt lat="50.22427" lon="3.2866">
        <ele>92</ele>
        <time>2014-03-02T14:24:47Z</time>
      </trkpt>
      <trkpt lat="50.22426" lon="3.28656">
        <ele>91</ele>
        <time>2014-03-02T14:24:50Z</time>
      </trkpt>
      <trkpt lat="50.22425" lon="3.28652">
        <ele>91</ele>
        <time>2014-03-02T14:24:53Z</time>
      </trkpt>
      <trkpt lat="50.22425" lon="3.28646">
        <ele>90</ele>
        <time>2014-03-02T14:24:56Z</time>
      </trkpt>
      <trkpt lat="50.22425" lon="3.28641">
        <ele>88</ele>
        <time>2014-03-02T14:24:59Z</time>
      </trkpt>
      <trkpt lat="50.22425" lon="3.28636">
        <ele>85</ele>
        <time>2014-03-02T14:25:02Z</time>
      </trkpt>
      <trkpt lat="50.22426" lon="3.28632">
        <ele>84</ele>
        <time>2014-03-02T14:25:05Z</time>
      </trkpt>
      <trkpt lat="50.22426" lon="3.28628">
        <ele>84</ele>
        <time>2014-03-02T14:25:08Z</time>
      </trkpt>
      <trkpt lat="50.22426" lon="3.28623">
        <ele>84</ele>
        <time>2014-03-02T14:25:12Z</time>
      </trkpt>
      <trkpt lat="50.22424" lon="3.28618">
        <ele>87</ele>
        <time>2014-03-02T14:25:20Z</time>
      </trkpt>
      <trkpt lat="50.22424" lon="3.28613">
        <ele>86</ele>
        <time>2014-03-02T14:25:24Z</time>
      </trkpt>
      <trkpt lat="50.22423" lon="3.28608">
        <ele>87</ele>
        <time>2014-03-02T14:25:28Z</time>
      </trkpt>
      <trkpt lat="50.22422" lon="3.28604">
        <ele>87</ele>
        <time>2014-03-02T14:25:31Z</time>
      </trkpt>
      <trkpt lat="50.22421" lon="3.28599">
        <ele>88</ele>
        <time>2014-03-02T14:25:34Z</time>
      </trkpt>
      <trkpt lat="50.22419" lon="3.28594">
        <ele>89</ele>
        <time>2014-03-02T14:25:37Z</time>
      </trkpt>
      <trkpt lat="50.22417" lon="3.28586">
        <ele>91</ele>
        <time>2014-03-02T14:25:39Z</time>
      </trkpt>
      <trkpt lat="50.22414" lon="3.28581">
        <ele>91</ele>
        <time>2014-03-02T14:25:41Z</time>
      </trkpt>
      <trkpt lat="50.22413" lon="3.28577">
        <ele>92</ele>
        <time>2014-03-02T14:25:44Z</time>
      </trkpt>
      <trkpt lat="50.2241" lon="3.28573">
        <ele>91</ele>
        <time>2014-03-02T14:25:47Z</time>
      </trkpt>
      <trkpt lat="50.22409" lon="3.28569">
        <ele>90</ele>
        <time>2014-03-02T14:25:50Z</time>
      </trkpt>
      <trkpt lat="50.22409" lon="3.28564">
        <ele>88</ele>
        <time>2014-03-02T14:25:54Z</time>
      </trkpt>
      <trkpt lat="50.22408" lon="3.28559">
        <ele>84</ele>
        <time>2014-03-02T14:26:08Z</time>
      </trkpt>
      <trkpt lat="50.22406" lon="3.28554">
        <ele>84</ele>
        <time>2014-03-02T14:26:11Z</time>
      </trkpt>
      <trkpt lat="50.22404" lon="3.28549">
        <ele>85</ele>
        <time>2014-03-02T14:26:14Z</time>
      </trkpt>
      <trkpt lat="50.22402" lon="3.28544">
        <ele>86</ele>
        <time>2014-03-02T14:26:18Z</time>
      </trkpt>
      <trkpt lat="50.22401" lon="3.2854">
        <ele>85</ele>
        <time>2014-03-02T14:26:21Z</time>
      </trkpt>
      <trkpt lat="50.22399" lon="3.28536">
        <ele>83</ele>
        <time>2014-03-02T14:27:02Z</time>
      </trkpt>
      <trkpt lat="50.22396" lon="3.28533">
        <ele>85</ele>
        <time>2014-03-02T14:27:04Z</time>
      </trkpt>
      <trkpt lat="50.22393" lon="3.28527">
        <ele>80</ele>
        <time>2014-03-02T14:27:06Z</time>
      </trkpt>
      <trkpt lat="50.22391" lon="3.28522">
        <ele>81</ele>
        <time>2014-03-02T14:27:08Z</time>
      </trkpt>
      <trkpt lat="50.22389" lon="3.28518">
        <ele>78</ele>
        <time>2014-03-02T14:27:10Z</time>
      </trkpt>
      <trkpt lat="50.22388" lon="3.28509">
        <ele>75</ele>
        <time>2014-03-02T14:27:16Z</time>
      </trkpt>
      <trkpt lat="50.22386" lon="3.28505">
        <ele>73</ele>
        <time>2014-03-02T14:27:20Z</time>
      </trkpt>
      <trkpt lat="50.22385" lon="3.285">
        <ele>71</ele>
        <time>2014-03-02T14:27:23Z</time>
      </trkpt>
      <trkpt lat="50.22384" lon="3.28495">
        <ele>68</ele>
        <time>2014-03-02T14:27:26Z</time>
      </trkpt>
      <trkpt lat="50.22382" lon="3.2849">
        <ele>69</ele>
        <time>2014-03-02T14:27:29Z</time>
      </trkpt>
      <trkpt lat="50.22378" lon="3.28487">
        <ele>72</ele>
        <time>2014-03-02T14:27:32Z</time>
      </trkpt>
      <trkpt lat="50.22376" lon="3.28484">
        <ele>72</ele>
        <time>2014-03-02T14:27:35Z</time>
      </trkpt>
      <trkpt lat="50.22374" lon="3.2848">
        <ele>71</ele>
        <time>2014-03-02T14:27:38Z</time>
      </trkpt>
      <trkpt lat="50.22372" lon="3.28474">
        <ele>72</ele>
        <time>2014-03-02T14:27:41Z</time>
      </trkpt>
      <trkpt lat="50.22369" lon="3.28472">
        <ele>73</ele>
        <time>2014-03-02T14:27:43Z</time>
      </trkpt>
      <trkpt lat="50.22366" lon="3.28468">
        <ele>75</ele>
        <time>2014-03-02T14:27:46Z</time>
      </trkpt>
      <trkpt lat="50.22363" lon="3.28464">
        <ele>76</ele>
        <time>2014-03-02T14:27:48Z</time>
      </trkpt>
      <trkpt lat="50.22361" lon="3.28461">
        <ele>77</ele>
        <time>2014-03-02T14:27:50Z</time>
      </trkpt>
      <trkpt lat="50.22359" lon="3.28457">
        <ele>77</ele>
        <time>2014-03-02T14:27:52Z</time>
      </trkpt>
      <trkpt lat="50.22357" lon="3.28453">
        <ele>78</ele>
        <time>2014-03-02T14:27:54Z</time>
      </trkpt>
      <trkpt lat="50.22355" lon="3.2845">
        <ele>77</ele>
        <time>2014-03-02T14:27:56Z</time>
      </trkpt>
      <trkpt lat="50.22353" lon="3.28444">
        <ele>78</ele>
        <time>2014-03-02T14:27:59Z</time>
      </trkpt>
      <trkpt lat="50.22352" lon="3.28441">
        <ele>79</ele>
        <time>2014-03-02T14:28:01Z</time>
      </trkpt>
      <trkpt lat="50.2235" lon="3.28437">
        <ele>79</ele>
        <time>2014-03-02T14:28:03Z</time>
      </trkpt>
      <trkpt lat="50.22349" lon="3.28433">
        <ele>79</ele>
        <time>2014-03-02T14:28:05Z</time>
      </trkpt>
      <trkpt lat="50.22347" lon="3.2843">
        <ele>80</ele>
        <time>2014-03-02T14:28:07Z</time>
      </trkpt>
      <trkpt lat="50.22345" lon="3.28426">
        <ele>81</ele>
        <time>2014-03-02T14:28:09Z</time>
      </trkpt>
      <trkpt lat="50.22342" lon="3.28423">
        <ele>82</ele>
        <time>2014-03-02T14:28:11Z</time>
      </trkpt>
      <trkpt lat="50.22338" lon="3.28416">
        <ele>83</ele>
        <time>2014-03-02T14:28:15Z</time>
      </trkpt>
      <trkpt lat="50.22336" lon="3.28412">
        <ele>83</ele>
        <time>2014-03-02T14:28:17Z</time>
      </trkpt>
      <trkpt lat="50.22334" lon="3.28408">
        <ele>83</ele>
        <time>2014-03-02T14:28:19Z</time>
      </trkpt>
      <trkpt lat="50.22333" lon="3.28404">
        <ele>83</ele>
        <time>2014-03-02T14:28:21Z</time>
      </trkpt>
      <trkpt lat="50.2233" lon="3.28401">
        <ele>85</ele>
        <time>2014-03-02T14:28:24Z</time>
      </trkpt>
      <trkpt lat="50.22328" lon="3.28398">
        <ele>87</ele>
        <time>2014-03-02T14:28:28Z</time>
      </trkpt>
      <trkpt lat="50.22325" lon="3.28394">
        <ele>87</ele>
        <time>2014-03-02T14:28:31Z</time>
      </trkpt>
      <trkpt lat="50.22321" lon="3.28386">
        <ele>88</ele>
        <time>2014-03-02T14:28:36Z</time>
      </trkpt>
      <trkpt lat="50.22319" lon="3.28381">
        <ele>88</ele>
        <time>2014-03-02T14:28:39Z</time>
      </trkpt>
      <trkpt lat="50.22317" lon="3.28376">
        <ele>87</ele>
        <time>2014-03-02T14:28:42Z</time>
      </trkpt>
      <trkpt lat="50.22317" lon="3.28371">
        <ele>85</ele>
        <time>2014-03-02T14:28:45Z</time>
      </trkpt>
      <trkpt lat="50.22315" lon="3.28367">
        <ele>86</ele>
        <time>2014-03-02T14:28:48Z</time>
      </trkpt>
      <trkpt lat="50.22312" lon="3.28363">
        <ele>86</ele>
        <time>2014-03-02T14:28:51Z</time>
      </trkpt>
      <trkpt lat="50.2231" lon="3.28362">
        <ele>86</ele>
        <time>2014-03-02T14:28:54Z</time>
      </trkpt>
      <trkpt lat="50.22306" lon="3.28359">
        <ele>87</ele>
        <time>2014-03-02T14:28:58Z</time>
      </trkpt>
      <trkpt lat="50.22303" lon="3.28357">
        <ele>91</ele>
        <time>2014-03-02T14:29:00Z</time>
      </trkpt>
      <trkpt lat="50.223" lon="3.28355">
        <ele>94</ele>
        <time>2014-03-02T14:29:02Z</time>
      </trkpt>
      <trkpt lat="50.22297" lon="3.28353">
        <ele>94</ele>
        <time>2014-03-02T14:29:04Z</time>
      </trkpt>
      <trkpt lat="50.22294" lon="3.28351">
        <ele>94</ele>
        <time>2014-03-02T14:29:06Z</time>
      </trkpt>
      <trkpt lat="50.22287" lon="3.28346">
        <ele>95</ele>
        <time>2014-03-02T14:29:11Z</time>
      </trkpt>
      <trkpt lat="50.22285" lon="3.28344">
        <ele>93</ele>
        <time>2014-03-02T14:29:18Z</time>
      </trkpt>
      <trkpt lat="50.22286" lon="3.2834">
        <ele>93</ele>
        <time>2014-03-02T14:29:38Z</time>
      </trkpt>
      <trkpt lat="50.22289" lon="3.2834">
        <ele>89</ele>
        <time>2014-03-02T14:30:10Z</time>
      </trkpt>
      <trkpt lat="50.22286" lon="3.28337">
        <ele>88</ele>
        <time>2014-03-02T14:30:25Z</time>
      </trkpt>
      <trkpt lat="50.22284" lon="3.28334">
        <ele>86</ele>
        <time>2014-03-02T14:30:28Z</time>
      </trkpt>
      <trkpt lat="50.22281" lon="3.28331">
        <ele>85</ele>
        <time>2014-03-02T14:30:31Z</time>
      </trkpt>
      <trkpt lat="50.22279" lon="3.28328">
        <ele>86</ele>
        <time>2014-03-02T14:30:34Z</time>
      </trkpt>
      <trkpt lat="50.22276" lon="3.28324">
        <ele>84</ele>
        <time>2014-03-02T14:30:38Z</time>
      </trkpt>
      <trkpt lat="50.22274" lon="3.2832">
        <ele>85</ele>
        <time>2014-03-02T14:30:41Z</time>
      </trkpt>
      <trkpt lat="50.22271" lon="3.28317">
        <ele>84</ele>
        <time>2014-03-02T14:30:44Z</time>
      </trkpt>
      <trkpt lat="50.22268" lon="3.28315">
        <ele>85</ele>
        <time>2014-03-02T14:30:46Z</time>
      </trkpt>
      <trkpt lat="50.22266" lon="3.28311">
        <ele>86</ele>
        <time>2014-03-02T14:30:49Z</time>
      </trkpt>
      <trkpt lat="50.22264" lon="3.28307">
        <ele>87</ele>
        <time>2014-03-02T14:30:52Z</time>
      </trkpt>
      <trkpt lat="50.22261" lon="3.28304">
        <ele>88</ele>
        <time>2014-03-02T14:30:55Z</time>
      </trkpt>
      <trkpt lat="50.22259" lon="3.28302">
        <ele>88</ele>
        <time>2014-03-02T14:31:00Z</time>
      </trkpt>
      <trkpt lat="50.22257" lon="3.28298">
        <ele>87</ele>
        <time>2014-03-02T14:31:03Z</time>
      </trkpt>
      <trkpt lat="50.22255" lon="3.28293">
        <ele>87</ele>
        <time>2014-03-02T14:31:06Z</time>
      </trkpt>
      <trkpt lat="50.22252" lon="3.2829">
        <ele>84</ele>
        <time>2014-03-02T14:31:09Z</time>
      </trkpt>
      <trkpt lat="50.2225" lon="3.28285">
        <ele>82</ele>
        <time>2014-03-02T14:31:12Z</time>
      </trkpt>
      <trkpt lat="50.22248" lon="3.28282">
        <ele>81</ele>
        <time>2014-03-02T14:31:15Z</time>
      </trkpt>
      <trkpt lat="50.22246" lon="3.28278">
        <ele>81</ele>
        <time>2014-03-02T14:31:18Z</time>
      </trkpt>
      <trkpt lat="50.22243" lon="3.28274">
        <ele>82</ele>
        <time>2014-03-02T14:31:21Z</time>
      </trkpt>
      <trkpt lat="50.2224" lon="3.28271">
        <ele>81</ele>
        <time>2014-03-02T14:31:24Z</time>
      </trkpt>
      <trkpt lat="50.22237" lon="3.28268">
        <ele>81</ele>
        <time>2014-03-02T14:31:30Z</time>
      </trkpt>
      <trkpt lat="50.22234" lon="3.28266">
        <ele>81</ele>
        <time>2014-03-02T14:31:32Z</time>
      </trkpt>
      <trkpt lat="50.22231" lon="3.28263">
        <ele>83</ele>
        <time>2014-03-02T14:31:37Z</time>
      </trkpt>
      <trkpt lat="50.22229" lon="3.28261">
        <ele>82</ele>
        <time>2014-03-02T14:31:43Z</time>
      </trkpt>
      <trkpt lat="50.22225" lon="3.2826">
        <ele>84</ele>
        <time>2014-03-02T14:31:48Z</time>
      </trkpt>
      <trkpt lat="50.22226" lon="3.28255">
        <ele>82</ele>
        <time>2014-03-02T14:31:52Z</time>
      </trkpt>
      <trkpt lat="50.22224" lon="3.28251">
        <ele>84</ele>
        <time>2014-03-02T14:31:55Z</time>
      </trkpt>
      <trkpt lat="50.22222" lon="3.28248">
        <ele>84</ele>
        <time>2014-03-02T14:31:58Z</time>
      </trkpt>
      <trkpt lat="50.22219" lon="3.28247">
        <ele>85</ele>
        <time>2014-03-02T14:32:03Z</time>
      </trkpt>
      <trkpt lat="50.22216" lon="3.28244">
        <ele>89</ele>
        <time>2014-03-02T14:32:06Z</time>
      </trkpt>
      <trkpt lat="50.22213" lon="3.28242">
        <ele>89</ele>
        <time>2014-03-02T14:32:09Z</time>
      </trkpt>
      <trkpt lat="50.22211" lon="3.28239">
        <ele>89</ele>
        <time>2014-03-02T14:32:14Z</time>
      </trkpt>
      <trkpt lat="50.22209" lon="3.28235">
        <ele>90</ele>
        <time>2014-03-02T14:32:17Z</time>
      </trkpt>
      <trkpt lat="50.22206" lon="3.28232">
        <ele>90</ele>
        <time>2014-03-02T14:32:23Z</time>
      </trkpt>
      <trkpt lat="50.22203" lon="3.28231">
        <ele>90</ele>
        <time>2014-03-02T14:32:27Z</time>
      </trkpt>
      <trkpt lat="50.222" lon="3.28227">
        <ele>91</ele>
        <time>2014-03-02T14:32:30Z</time>
      </trkpt>
      <trkpt lat="50.22198" lon="3.28224">
        <ele>92</ele>
        <time>2014-03-02T14:32:33Z</time>
      </trkpt>
      <trkpt lat="50.22195" lon="3.28221">
        <ele>92</ele>
        <time>2014-03-02T14:32:37Z</time>
      </trkpt>
      <trkpt lat="50.22192" lon="3.28218">
        <ele>91</ele>
        <time>2014-03-02T14:32:39Z</time>
      </trkpt>
      <trkpt lat="50.22187" lon="3.28213">
        <ele>89</ele>
        <time>2014-03-02T14:32:41Z</time>
      </trkpt>
      <trkpt lat="50.22185" lon="3.2821">
        <ele>89</ele>
        <time>2014-03-02T14:32:43Z</time>
      </trkpt>
      <trkpt lat="50.22182" lon="3.28207">
        <ele>89</ele>
        <time>2014-03-02T14:32:45Z</time>
      </trkpt>
      <trkpt lat="50.2218" lon="3.28204">
        <ele>91</ele>
        <time>2014-03-02T14:32:47Z</time>
      </trkpt>
      <trkpt lat="50.22178" lon="3.28201">
        <ele>91</ele>
        <time>2014-03-02T14:32:49Z</time>
      </trkpt>
      <trkpt lat="50.22175" lon="3.28198">
        <ele>91</ele>
        <time>2014-03-02T14:32:51Z</time>
      </trkpt>
      <trkpt lat="50.22173" lon="3.28194">
        <ele>93</ele>
        <time>2014-03-02T14:32:55Z</time>
      </trkpt>
      <trkpt lat="50.22171" lon="3.2819">
        <ele>92</ele>
        <time>2014-03-02T14:32:59Z</time>
      </trkpt>
      <trkpt lat="50.2217" lon="3.28186">
        <ele>92</ele>
        <time>2014-03-02T14:33:03Z</time>
      </trkpt>
      <trkpt lat="50.22167" lon="3.28184">
        <ele>93</ele>
        <time>2014-03-02T14:33:05Z</time>
      </trkpt>
      <trkpt lat="50.22164" lon="3.28181">
        <ele>94</ele>
        <time>2014-03-02T14:33:08Z</time>
      </trkpt>
      <trkpt lat="50.22162" lon="3.28178">
        <ele>95</ele>
        <time>2014-03-02T14:33:10Z</time>
      </trkpt>
      <trkpt lat="50.22159" lon="3.28174">
        <ele>96</ele>
        <time>2014-03-02T14:33:12Z</time>
      </trkpt>
      <trkpt lat="50.22156" lon="3.2817">
        <ele>96</ele>
        <time>2014-03-02T14:33:14Z</time>
      </trkpt>
      <trkpt lat="50.22154" lon="3.28167">
        <ele>96</ele>
        <time>2014-03-02T14:33:16Z</time>
      </trkpt>
      <trkpt lat="50.22151" lon="3.28163">
        <ele>95</ele>
        <time>2014-03-02T14:33:18Z</time>
      </trkpt>
      <trkpt lat="50.22149" lon="3.2816">
        <ele>95</ele>
        <time>2014-03-02T14:33:20Z</time>
      </trkpt>
      <trkpt lat="50.22147" lon="3.28156">
        <ele>96</ele>
        <time>2014-03-02T14:33:23Z</time>
      </trkpt>
      <trkpt lat="50.22145" lon="3.28152">
        <ele>95</ele>
        <time>2014-03-02T14:33:25Z</time>
      </trkpt>
      <trkpt lat="50.22143" lon="3.28149">
        <ele>94</ele>
        <time>2014-03-02T14:33:29Z</time>
      </trkpt>
      <trkpt lat="50.2214" lon="3.28146">
        <ele>94</ele>
        <time>2014-03-02T14:33:32Z</time>
      </trkpt>
      <trkpt lat="50.22138" lon="3.28144">
        <ele>90</ele>
        <time>2014-03-02T14:33:35Z</time>
      </trkpt>
      <trkpt lat="50.22135" lon="3.2814">
        <ele>89</ele>
        <time>2014-03-02T14:33:38Z</time>
      </trkpt>
      <trkpt lat="50.22132" lon="3.28136">
        <ele>87</ele>
        <time>2014-03-02T14:33:41Z</time>
      </trkpt>
      <trkpt lat="50.2213" lon="3.28133">
        <ele>85</ele>
        <time>2014-03-02T14:33:43Z</time>
      </trkpt>
      <trkpt lat="50.22128" lon="3.2813">
        <ele>84</ele>
        <time>2014-03-02T14:33:45Z</time>
      </trkpt>
      <trkpt lat="50.22126" lon="3.28128">
        <ele>85</ele>
        <time>2014-03-02T14:33:48Z</time>
      </trkpt>
      <trkpt lat="50.22123" lon="3.28126">
        <ele>85</ele>
        <time>2014-03-02T14:33:51Z</time>
      </trkpt>
      <trkpt lat="50.22121" lon="3.28123">
        <ele>87</ele>
        <time>2014-03-02T14:33:55Z</time>
      </trkpt>
      <trkpt lat="50.22119" lon="3.2812">
        <ele>89</ele>
        <time>2014-03-02T14:33:58Z</time>
      </trkpt>
      <trkpt lat="50.22117" lon="3.28117">
        <ele>88</ele>
        <time>2014-03-02T14:34:01Z</time>
      </trkpt>
      <trkpt lat="50.22115" lon="3.28114">
        <ele>86</ele>
        <time>2014-03-02T14:34:04Z</time>
      </trkpt>
      <trkpt lat="50.22112" lon="3.28113">
        <ele>88</ele>
        <time>2014-03-02T14:34:06Z</time>
      </trkpt>
      <trkpt lat="50.22109" lon="3.28111">
        <ele>87</ele>
        <time>2014-03-02T14:34:09Z</time>
      </trkpt>
      <trkpt lat="50.22106" lon="3.28108">
        <ele>88</ele>
        <time>2014-03-02T14:34:13Z</time>
      </trkpt>
      <trkpt lat="50.22102" lon="3.28105">
        <ele>88</ele>
        <time>2014-03-02T14:34:16Z</time>
      </trkpt>
      <trkpt lat="50.22099" lon="3.28102">
        <ele>87</ele>
        <time>2014-03-02T14:34:18Z</time>
      </trkpt>
      <trkpt lat="50.22095" lon="3.28097">
        <ele>83</ele>
        <time>2014-03-02T14:34:20Z</time>
      </trkpt>
      <trkpt lat="50.22091" lon="3.28093">
        <ele>84</ele>
        <time>2014-03-02T14:34:22Z</time>
      </trkpt>
      <trkpt lat="50.22088" lon="3.2809">
        <ele>84</ele>
        <time>2014-03-02T14:34:24Z</time>
      </trkpt>
      <trkpt lat="50.22085" lon="3.28087">
        <ele>85</ele>
        <time>2014-03-02T14:34:26Z</time>
      </trkpt>
      <trkpt lat="50.22082" lon="3.28083">
        <ele>86</ele>
        <time>2014-03-02T14:34:28Z</time>
      </trkpt>
      <trkpt lat="50.22079" lon="3.2808">
        <ele>88</ele>
        <time>2014-03-02T14:34:31Z</time>
      </trkpt>
      <trkpt lat="50.22077" lon="3.28077">
        <ele>87</ele>
        <time>2014-03-02T14:34:34Z</time>
      </trkpt>
      <trkpt lat="50.22075" lon="3.28074">
        <ele>87</ele>
        <time>2014-03-02T14:34:36Z</time>
      </trkpt>
      <trkpt lat="50.22073" lon="3.28071">
        <ele>88</ele>
        <time>2014-03-02T14:34:38Z</time>
      </trkpt>
      <trkpt lat="50.22071" lon="3.28068">
        <ele>88</ele>
        <time>2014-03-02T14:34:40Z</time>
      </trkpt>
      <trkpt lat="50.22068" lon="3.28066">
        <ele>83</ele>
        <time>2014-03-02T14:34:42Z</time>
      </trkpt>
      <trkpt lat="50.22066" lon="3.28062">
        <ele>84</ele>
        <time>2014-03-02T14:34:44Z</time>
      </trkpt>
      <trkpt lat="50.22063" lon="3.28059">
        <ele>84</ele>
        <time>2014-03-02T14:34:47Z</time>
      </trkpt>
      <trkpt lat="50.2206" lon="3.28057">
        <ele>79</ele>
        <time>2014-03-02T14:34:50Z</time>
      </trkpt>
      <trkpt lat="50.22058" lon="3.28054">
        <ele>76</ele>
        <time>2014-03-02T14:34:52Z</time>
      </trkpt>
      <trkpt lat="50.22056" lon="3.2805">
        <ele>72</ele>
        <time>2014-03-02T14:34:54Z</time>
      </trkpt>
      <trkpt lat="50.22054" lon="3.28046">
        <ele>73</ele>
        <time>2014-03-02T14:34:56Z</time>
      </trkpt>
      <trkpt lat="50.22052" lon="3.28042">
        <ele>72</ele>
        <time>2014-03-02T14:34:58Z</time>
      </trkpt>
      <trkpt lat="50.22049" lon="3.28038">
        <ele>72</ele>
        <time>2014-03-02T14:35:01Z</time>
      </trkpt>
      <trkpt lat="50.22047" lon="3.28032">
        <ele>70</ele>
        <time>2014-03-02T14:35:04Z</time>
      </trkpt>
      <trkpt lat="50.22045" lon="3.28029">
        <ele>73</ele>
        <time>2014-03-02T14:35:07Z</time>
      </trkpt>
      <trkpt lat="50.22043" lon="3.28027">
        <ele>74</ele>
        <time>2014-03-02T14:35:12Z</time>
      </trkpt>
      <trkpt lat="50.22041" lon="3.28023">
        <ele>77</ele>
        <time>2014-03-02T14:35:30Z</time>
      </trkpt>
      <trkpt lat="50.22042" lon="3.28019">
        <ele>77</ele>
        <time>2014-03-02T14:35:49Z</time>
      </trkpt>
      <trkpt lat="50.22042" lon="3.28015">
        <ele>77</ele>
        <time>2014-03-02T14:35:52Z</time>
      </trkpt>
      <trkpt lat="50.22043" lon="3.2801">
        <ele>77</ele>
        <time>2014-03-02T14:35:56Z</time>
      </trkpt>
      <trkpt lat="50.22041" lon="3.28007">
        <ele>76</ele>
        <time>2014-03-02T14:36:04Z</time>
      </trkpt>
      <trkpt lat="50.22038" lon="3.28004">
        <ele>74</ele>
        <time>2014-03-02T14:36:08Z</time>
      </trkpt>
      <trkpt lat="50.22035" lon="3.28">
        <ele>74</ele>
        <time>2014-03-02T14:36:11Z</time>
      </trkpt>
      <trkpt lat="50.22033" lon="3.27998">
        <ele>72</ele>
        <time>2014-03-02T14:36:13Z</time>
      </trkpt>
      <trkpt lat="50.2203" lon="3.27996">
        <ele>73</ele>
        <time>2014-03-02T14:36:15Z</time>
      </trkpt>
      <trkpt lat="50.22028" lon="3.27993">
        <ele>72</ele>
        <time>2014-03-02T14:36:17Z</time>
      </trkpt>
      <trkpt lat="50.22026" lon="3.27991">
        <ele>71</ele>
        <time>2014-03-02T14:36:19Z</time>
      </trkpt>
      <trkpt lat="50.22023" lon="3.27988">
        <ele>70</ele>
        <time>2014-03-02T14:36:21Z</time>
      </trkpt>
      <trkpt lat="50.22021" lon="3.27986">
        <ele>69</ele>
        <time>2014-03-02T14:36:23Z</time>
      </trkpt>
      <trkpt lat="50.22018" lon="3.27982">
        <ele>69</ele>
        <time>2014-03-02T14:36:26Z</time>
      </trkpt>
      <trkpt lat="50.22015" lon="3.27979">
        <ele>68</ele>
        <time>2014-03-02T14:36:29Z</time>
      </trkpt>
      <trkpt lat="50.22013" lon="3.27975">
        <ele>68</ele>
        <time>2014-03-02T14:36:32Z</time>
      </trkpt>
      <trkpt lat="50.2201" lon="3.27972">
        <ele>70</ele>
        <time>2014-03-02T14:36:35Z</time>
      </trkpt>
      <trkpt lat="50.22007" lon="3.27968">
        <ele>69</ele>
        <time>2014-03-02T14:36:38Z</time>
      </trkpt>
      <trkpt lat="50.22005" lon="3.27965">
        <ele>69</ele>
        <time>2014-03-02T14:36:41Z</time>
      </trkpt>
      <trkpt lat="50.22003" lon="3.27962">
        <ele>69</ele>
        <time>2014-03-02T14:36:43Z</time>
      </trkpt>
      <trkpt lat="50.22" lon="3.27959">
        <ele>68</ele>
        <time>2014-03-02T14:36:45Z</time>
      </trkpt>
      <trkpt lat="50.21998" lon="3.27954">
        <ele>67</ele>
        <time>2014-03-02T14:36:48Z</time>
      </trkpt>
      <trkpt lat="50.21996" lon="3.27951">
        <ele>66</ele>
        <time>2014-03-02T14:36:51Z</time>
      </trkpt>
      <trkpt lat="50.21993" lon="3.27948">
        <ele>68</ele>
        <time>2014-03-02T14:36:54Z</time>
      </trkpt>
      <trkpt lat="50.21989" lon="3.27945">
        <ele>68</ele>
        <time>2014-03-02T14:36:57Z</time>
      </trkpt>
      <trkpt lat="50.21985" lon="3.27943">
        <ele>71</ele>
        <time>2014-03-02T14:37:00Z</time>
      </trkpt>
      <trkpt lat="50.21982" lon="3.2794">
        <ele>71</ele>
        <time>2014-03-02T14:37:03Z</time>
      </trkpt>
      <trkpt lat="50.21979" lon="3.27936">
        <ele>72</ele>
        <time>2014-03-02T14:37:07Z</time>
      </trkpt>
      <trkpt lat="50.21977" lon="3.27933">
        <ele>73</ele>
        <time>2014-03-02T14:37:10Z</time>
      </trkpt>
      <trkpt lat="50.21974" lon="3.27931">
        <ele>72</ele>
        <time>2014-03-02T14:37:13Z</time>
      </trkpt>
      <trkpt lat="50.21972" lon="3.27926">
        <ele>72</ele>
        <time>2014-03-02T14:37:16Z</time>
      </trkpt>
      <trkpt lat="50.2197" lon="3.27923">
        <ele>73</ele>
        <time>2014-03-02T14:37:19Z</time>
      </trkpt>
      <trkpt lat="50.21968" lon="3.27919">
        <ele>73</ele>
        <time>2014-03-02T14:37:22Z</time>
      </trkpt>
      <trkpt lat="50.21967" lon="3.27915">
        <ele>71</ele>
        <time>2014-03-02T14:37:25Z</time>
      </trkpt>
      <trkpt lat="50.21963" lon="3.27913">
        <ele>69</ele>
        <time>2014-03-02T14:37:28Z</time>
      </trkpt>
      <trkpt lat="50.2196" lon="3.2791">
        <ele>72</ele>
        <time>2014-03-02T14:37:31Z</time>
      </trkpt>
      <trkpt lat="50.21958" lon="3.27906">
        <ele>70</ele>
        <time>2014-03-02T14:37:34Z</time>
      </trkpt>
      <trkpt lat="50.21956" lon="3.27902">
        <ele>68</ele>
        <time>2014-03-02T14:37:37Z</time>
      </trkpt>
      <trkpt lat="50.21954" lon="3.27899">
        <ele>67</ele>
        <time>2014-03-02T14:37:40Z</time>
      </trkpt>
      <trkpt lat="50.21951" lon="3.27896">
        <ele>66</ele>
        <time>2014-03-02T14:37:44Z</time>
      </trkpt>
      <trkpt lat="50.21949" lon="3.27893">
        <ele>66</ele>
        <time>2014-03-02T14:37:47Z</time>
      </trkpt>
      <trkpt lat="50.21946" lon="3.2789">
        <ele>65</ele>
        <time>2014-03-02T14:37:50Z</time>
      </trkpt>
      <trkpt lat="50.21943" lon="3.27888">
        <ele>69</ele>
        <time>2014-03-02T14:37:53Z</time>
      </trkpt>
      <trkpt lat="50.2194" lon="3.27884">
        <ele>68</ele>
        <time>2014-03-02T14:37:57Z</time>
      </trkpt>
      <trkpt lat="50.21937" lon="3.27882">
        <ele>68</ele>
        <time>2014-03-02T14:38:00Z</time>
      </trkpt>
      <trkpt lat="50.21936" lon="3.27878">
        <ele>69</ele>
        <time>2014-03-02T14:38:03Z</time>
      </trkpt>
      <trkpt lat="50.21933" lon="3.27875">
        <ele>71</ele>
        <time>2014-03-02T14:38:06Z</time>
      </trkpt>
      <trkpt lat="50.2193" lon="3.27872">
        <ele>74</ele>
        <time>2014-03-02T14:38:09Z</time>
      </trkpt>
      <trkpt lat="50.21929" lon="3.27868">
        <ele>75</ele>
        <time>2014-03-02T14:38:12Z</time>
      </trkpt>
      <trkpt lat="50.21927" lon="3.27864">
        <ele>75</ele>
        <time>2014-03-02T14:38:15Z</time>
      </trkpt>
      <trkpt lat="50.21926" lon="3.2786">
        <ele>79</ele>
        <time>2014-03-02T14:38:18Z</time>
      </trkpt>
      <trkpt lat="50.21924" lon="3.27858">
        <ele>81</ele>
        <time>2014-03-02T14:38:21Z</time>
      </trkpt>
      <trkpt lat="50.21921" lon="3.27854">
        <ele>84</ele>
        <time>2014-03-02T14:38:26Z</time>
      </trkpt>
      <trkpt lat="50.2192" lon="3.2785">
        <ele>83</ele>
        <time>2014-03-02T14:38:30Z</time>
      </trkpt>
      <trkpt lat="50.21919" lon="3.27845">
        <ele>85</ele>
        <time>2014-03-02T14:38:33Z</time>
      </trkpt>
      <trkpt lat="50.21917" lon="3.27841">
        <ele>87</ele>
        <time>2014-03-02T14:38:36Z</time>
      </trkpt>
      <trkpt lat="50.21914" lon="3.27837">
        <ele>87</ele>
        <time>2014-03-02T14:38:39Z</time>
      </trkpt>
      <trkpt lat="50.21913" lon="3.27833">
        <ele>86</ele>
        <time>2014-03-02T14:38:42Z</time>
      </trkpt>
      <trkpt lat="50.2191" lon="3.27829">
        <ele>88</ele>
        <time>2014-03-02T14:38:45Z</time>
      </trkpt>
      <trkpt lat="50.21907" lon="3.27825">
        <ele>88</ele>
        <time>2014-03-02T14:38:48Z</time>
      </trkpt>
      <trkpt lat="50.21904" lon="3.27822">
        <ele>89</ele>
        <time>2014-03-02T14:38:51Z</time>
      </trkpt>
      <trkpt lat="50.21903" lon="3.27818">
        <ele>86</ele>
        <time>2014-03-02T14:38:54Z</time>
      </trkpt>
      <trkpt lat="50.21902" lon="3.27814">
        <ele>86</ele>
        <time>2014-03-02T14:38:59Z</time>
      </trkpt>
      <trkpt lat="50.219" lon="3.2781">
        <ele>86</ele>
        <time>2014-03-02T14:41:14Z</time>
      </trkpt>
      <trkpt lat="50.21896" lon="3.2781">
        <ele>86</ele>
        <time>2014-03-02T14:41:19Z</time>
      </trkpt>
      <trkpt lat="50.21894" lon="3.27807">
        <ele>85</ele>
        <time>2014-03-02T14:41:21Z</time>
      </trkpt>
      <trkpt lat="50.21891" lon="3.27803">
        <ele>86</ele>
        <time>2014-03-02T14:41:24Z</time>
      </trkpt>
      <trkpt lat="50.21889" lon="3.278">
        <ele>87</ele>
        <time>2014-03-02T14:41:26Z</time>
      </trkpt>
      <trkpt lat="50.21887" lon="3.27798">
        <ele>88</ele>
        <time>2014-03-02T14:41:28Z</time>
      </trkpt>
      <trkpt lat="50.21884" lon="3.27794">
        <ele>88</ele>
        <time>2014-03-02T14:41:31Z</time>
      </trkpt>
      <trkpt lat="50.21881" lon="3.2779">
        <ele>89</ele>
        <time>2014-03-02T14:41:34Z</time>
      </trkpt>
      <trkpt lat="50.2188" lon="3.27786">
        <ele>88</ele>
        <time>2014-03-02T14:41:37Z</time>
      </trkpt>
      <trkpt lat="50.21879" lon="3.27779">
        <ele>87</ele>
        <time>2014-03-02T14:41:40Z</time>
      </trkpt>
      <trkpt lat="50.21878" lon="3.27776">
        <ele>85</ele>
        <time>2014-03-02T14:41:42Z</time>
      </trkpt>
      <trkpt lat="50.21875" lon="3.27771">
        <ele>90</ele>
        <time>2014-03-02T14:41:45Z</time>
      </trkpt>
      <trkpt lat="50.2187" lon="3.27771">
        <ele>91</ele>
        <time>2014-03-02T14:41:47Z</time>
      </trkpt>
      <trkpt lat="50.21867" lon="3.2777">
        <ele>91</ele>
        <time>2014-03-02T14:41:49Z</time>
      </trkpt>
      <trkpt lat="50.21865" lon="3.27767">
        <ele>90</ele>
        <time>2014-03-02T14:41:51Z</time>
      </trkpt>
      <trkpt lat="50.21862" lon="3.27763">
        <ele>88</ele>
        <time>2014-03-02T14:41:54Z</time>
      </trkpt>
      <trkpt lat="50.21859" lon="3.27761">
        <ele>89</ele>
        <time>2014-03-02T14:41:56Z</time>
      </trkpt>
      <trkpt lat="50.21855" lon="3.27759">
        <ele>89</ele>
        <time>2014-03-02T14:41:58Z</time>
      </trkpt>
      <trkpt lat="50.21851" lon="3.27756">
        <ele>90</ele>
        <time>2014-03-02T14:42:00Z</time>
      </trkpt>
      <trkpt lat="50.21848" lon="3.27754">
        <ele>92</ele>
        <time>2014-03-02T14:42:02Z</time>
      </trkpt>
      <trkpt lat="50.21845" lon="3.27751">
        <ele>92</ele>
        <time>2014-03-02T14:42:04Z</time>
      </trkpt>
      <trkpt lat="50.21841" lon="3.2775">
        <ele>92</ele>
        <time>2014-03-02T14:42:06Z</time>
      </trkpt>
      <trkpt lat="50.21839" lon="3.2775">
        <ele>92</ele>
        <time>2014-03-02T14:42:08Z</time>
      </trkpt>
      <trkpt lat="50.21835" lon="3.27748">
        <ele>92</ele>
        <time>2014-03-02T14:42:11Z</time>
      </trkpt>
      <trkpt lat="50.21833" lon="3.27745">
        <ele>94</ele>
        <time>2014-03-02T14:42:13Z</time>
      </trkpt>
      <trkpt lat="50.21831" lon="3.2774">
        <ele>94</ele>
        <time>2014-03-02T14:42:16Z</time>
      </trkpt>
      <trkpt lat="50.21828" lon="3.27736">
        <ele>95</ele>
        <time>2014-03-02T14:42:19Z</time>
      </trkpt>
      <trkpt lat="50.21825" lon="3.27733">
        <ele>97</ele>
        <time>2014-03-02T14:42:22Z</time>
      </trkpt>
      <trkpt lat="50.21822" lon="3.2773">
        <ele>96</ele>
        <time>2014-03-02T14:42:25Z</time>
      </trkpt>
      <trkpt lat="50.21821" lon="3.27725">
        <ele>95</ele>
        <time>2014-03-02T14:42:28Z</time>
      </trkpt>
      <trkpt lat="50.2182" lon="3.27721">
        <ele>95</ele>
        <time>2014-03-02T14:42:33Z</time>
      </trkpt>
      <trkpt lat="50.21817" lon="3.27718">
        <ele>95</ele>
        <time>2014-03-02T14:42:38Z</time>
      </trkpt>
      <trkpt lat="50.21815" lon="3.27715">
        <ele>93</ele>
        <time>2014-03-02T14:42:42Z</time>
      </trkpt>
      <trkpt lat="50.21813" lon="3.27712">
        <ele>95</ele>
        <time>2014-03-02T14:42:46Z</time>
      </trkpt>
      <trkpt lat="50.2181" lon="3.27708">
        <ele>95</ele>
        <time>2014-03-02T14:42:49Z</time>
      </trkpt>
      <trkpt lat="50.21806" lon="3.277">
        <ele>92</ele>
        <time>2014-03-02T14:42:53Z</time>
      </trkpt>
      <trkpt lat="50.21804" lon="3.27697">
        <ele>92</ele>
        <time>2014-03-02T14:42:55Z</time>
      </trkpt>
      <trkpt lat="50.21802" lon="3.27694">
        <ele>90</ele>
        <time>2014-03-02T14:42:57Z</time>
      </trkpt>
      <trkpt lat="50.218" lon="3.27691">
        <ele>89</ele>
        <time>2014-03-02T14:42:59Z</time>
      </trkpt>
      <trkpt lat="50.21797" lon="3.27688">
        <ele>88</ele>
        <time>2014-03-02T14:43:01Z</time>
      </trkpt>
      <trkpt lat="50.21794" lon="3.27685">
        <ele>88</ele>
        <time>2014-03-02T14:43:03Z</time>
      </trkpt>
      <trkpt lat="50.21792" lon="3.27682">
        <ele>92</ele>
        <time>2014-03-02T14:43:05Z</time>
      </trkpt>
      <trkpt lat="50.21789" lon="3.27679">
        <ele>92</ele>
        <time>2014-03-02T14:43:07Z</time>
      </trkpt>
      <trkpt lat="50.21786" lon="3.27677">
        <ele>92</ele>
        <time>2014-03-02T14:43:10Z</time>
      </trkpt>
      <trkpt lat="50.21785" lon="3.27672">
        <ele>91</ele>
        <time>2014-03-02T14:43:16Z</time>
      </trkpt>
      <trkpt lat="50.21783" lon="3.27668">
        <ele>92</ele>
        <time>2014-03-02T14:43:19Z</time>
      </trkpt>
      <trkpt lat="50.2178" lon="3.27664">
        <ele>92</ele>
        <time>2014-03-02T14:43:21Z</time>
      </trkpt>
      <trkpt lat="50.21777" lon="3.2766">
        <ele>92</ele>
        <time>2014-03-02T14:43:23Z</time>
      </trkpt>
      <trkpt lat="50.21772" lon="3.27653">
        <ele>92</ele>
        <time>2014-03-02T14:43:27Z</time>
      </trkpt>
      <trkpt lat="50.2177" lon="3.2765">
        <ele>91</ele>
        <time>2014-03-02T14:43:29Z</time>
      </trkpt>
      <trkpt lat="50.21768" lon="3.27646">
        <ele>91</ele>
        <time>2014-03-02T14:43:31Z</time>
      </trkpt>
      <trkpt lat="50.21766" lon="3.27643">
        <ele>91</ele>
        <time>2014-03-02T14:43:33Z</time>
      </trkpt>
      <trkpt lat="50.21763" lon="3.27639">
        <ele>90</ele>
        <time>2014-03-02T14:43:36Z</time>
      </trkpt>
      <trkpt lat="50.21761" lon="3.27635">
        <ele>91</ele>
        <time>2014-03-02T14:43:39Z</time>
      </trkpt>
      <trkpt lat="50.21758" lon="3.27632">
        <ele>92</ele>
        <time>2014-03-02T14:43:42Z</time>
      </trkpt>
      <trkpt lat="50.21755" lon="3.27629">
        <ele>92</ele>
        <time>2014-03-02T14:43:45Z</time>
      </trkpt>
      <trkpt lat="50.21753" lon="3.27626">
        <ele>91</ele>
        <time>2014-03-02T14:43:47Z</time>
      </trkpt>
      <trkpt lat="50.2175" lon="3.27623">
        <ele>93</ele>
        <time>2014-03-02T14:43:49Z</time>
      </trkpt>
      <trkpt lat="50.21748" lon="3.27621">
        <ele>94</ele>
        <time>2014-03-02T14:43:51Z</time>
      </trkpt>
      <trkpt lat="50.21745" lon="3.27618">
        <ele>93</ele>
        <time>2014-03-02T14:43:54Z</time>
      </trkpt>
      <trkpt lat="50.21741" lon="3.27614">
        <ele>95</ele>
        <time>2014-03-02T14:43:57Z</time>
      </trkpt>
      <trkpt lat="50.21739" lon="3.2761">
        <ele>94</ele>
        <time>2014-03-02T14:44:00Z</time>
      </trkpt>
      <trkpt lat="50.21737" lon="3.27607">
        <ele>93</ele>
        <time>2014-03-02T14:44:02Z</time>
      </trkpt>
      <trkpt lat="50.21734" lon="3.27602">
        <ele>94</ele>
        <time>2014-03-02T14:44:05Z</time>
      </trkpt>
      <trkpt lat="50.21731" lon="3.27598">
        <ele>95</ele>
        <time>2014-03-02T14:44:08Z</time>
      </trkpt>
      <trkpt lat="50.21728" lon="3.27594">
        <ele>95</ele>
        <time>2014-03-02T14:44:11Z</time>
      </trkpt>
      <trkpt lat="50.21725" lon="3.2759">
        <ele>94</ele>
        <time>2014-03-02T14:44:14Z</time>
      </trkpt>
      <trkpt lat="50.21723" lon="3.27586">
        <ele>91</ele>
        <time>2014-03-02T14:44:17Z</time>
      </trkpt>
      <trkpt lat="50.2172" lon="3.27582">
        <ele>92</ele>
        <time>2014-03-02T14:44:20Z</time>
      </trkpt>
      <trkpt lat="50.21717" lon="3.27578">
        <ele>93</ele>
        <time>2014-03-02T14:44:23Z</time>
      </trkpt>
      <trkpt lat="50.21715" lon="3.27574">
        <ele>93</ele>
        <time>2014-03-02T14:44:25Z</time>
      </trkpt>
      <trkpt lat="50.21713" lon="3.27569">
        <ele>92</ele>
        <time>2014-03-02T14:44:28Z</time>
      </trkpt>
      <trkpt lat="50.2171" lon="3.27566">
        <ele>89</ele>
        <time>2014-03-02T14:44:31Z</time>
      </trkpt>
      <trkpt lat="50.21707" lon="3.27563">
        <ele>88</ele>
        <time>2014-03-02T14:44:34Z</time>
      </trkpt>
      <trkpt lat="50.21705" lon="3.27561">
        <ele>86</ele>
        <time>2014-03-02T14:44:37Z</time>
      </trkpt>
      <trkpt lat="50.21702" lon="3.27558">
        <ele>83</ele>
        <time>2014-03-02T14:44:40Z</time>
      </trkpt>
      <trkpt lat="50.21702" lon="3.27553">
        <ele>86</ele>
        <time>2014-03-02T14:44:45Z</time>
      </trkpt>
      <trkpt lat="50.21699" lon="3.2755">
        <ele>84</ele>
        <time>2014-03-02T14:44:49Z</time>
      </trkpt>
      <trkpt lat="50.21697" lon="3.27548">
        <ele>83</ele>
        <time>2014-03-02T14:44:57Z</time>
      </trkpt>
      <trkpt lat="50.21693" lon="3.27547">
        <ele>82</ele>
        <time>2014-03-02T14:45:00Z</time>
      </trkpt>
      <trkpt lat="50.2169" lon="3.27544">
        <ele>81</ele>
        <time>2014-03-02T14:45:03Z</time>
      </trkpt>
      <trkpt lat="50.21687" lon="3.2754">
        <ele>80</ele>
        <time>2014-03-02T14:45:06Z</time>
      </trkpt>
      <trkpt lat="50.21684" lon="3.27538">
        <ele>80</ele>
        <time>2014-03-02T14:45:09Z</time>
      </trkpt>
      <trkpt lat="50.21682" lon="3.27534">
        <ele>79</ele>
        <time>2014-03-02T14:45:12Z</time>
      </trkpt>
      <trkpt lat="50.21679" lon="3.2753">
        <ele>79</ele>
        <time>2014-03-02T14:45:15Z</time>
      </trkpt>
      <trkpt lat="50.21676" lon="3.27526">
        <ele>80</ele>
        <time>2014-03-02T14:45:18Z</time>
      </trkpt>
      <trkpt lat="50.21674" lon="3.27523">
        <ele>78</ele>
        <time>2014-03-02T14:45:20Z</time>
      </trkpt>
      <trkpt lat="50.21672" lon="3.2752">
        <ele>77</ele>
        <time>2014-03-02T14:45:22Z</time>
      </trkpt>
      <trkpt lat="50.21669" lon="3.27518">
        <ele>77</ele>
        <time>2014-03-02T14:45:24Z</time>
      </trkpt>
      <trkpt lat="50.21664" lon="3.27511">
        <ele>79</ele>
        <time>2014-03-02T14:45:29Z</time>
      </trkpt>
      <trkpt lat="50.21662" lon="3.27508">
        <ele>79</ele>
        <time>2014-03-02T14:45:31Z</time>
      </trkpt>
      <trkpt lat="50.21659" lon="3.27504">
        <ele>80</ele>
        <time>2014-03-02T14:45:34Z</time>
      </trkpt>
      <trkpt lat="50.21656" lon="3.275">
        <ele>81</ele>
        <time>2014-03-02T14:45:37Z</time>
      </trkpt>
      <trkpt lat="50.21653" lon="3.27497">
        <ele>82</ele>
        <time>2014-03-02T14:45:40Z</time>
      </trkpt>
      <trkpt lat="50.2165" lon="3.27493">
        <ele>81</ele>
        <time>2014-03-02T14:45:43Z</time>
      </trkpt>
      <trkpt lat="50.21648" lon="3.27488">
        <ele>82</ele>
        <time>2014-03-02T14:45:46Z</time>
      </trkpt>
      <trkpt lat="50.21645" lon="3.27485">
        <ele>81</ele>
        <time>2014-03-02T14:45:49Z</time>
      </trkpt>
      <trkpt lat="50.21642" lon="3.27483">
        <ele>78</ele>
        <time>2014-03-02T14:45:55Z</time>
      </trkpt>
      <trkpt lat="50.21642" lon="3.27479">
        <ele>82</ele>
        <time>2014-03-02T14:46:00Z</time>
      </trkpt>
      <trkpt lat="50.2164" lon="3.27474">
        <ele>83</ele>
        <time>2014-03-02T14:46:03Z</time>
      </trkpt>
      <trkpt lat="50.21641" lon="3.27469">
        <ele>83</ele>
        <time>2014-03-02T14:46:07Z</time>
      </trkpt>
      <trkpt lat="50.21643" lon="3.27466">
        <ele>83</ele>
        <time>2014-03-02T14:46:09Z</time>
      </trkpt>
      <trkpt lat="50.21643" lon="3.27461">
        <ele>82</ele>
        <time>2014-03-02T14:46:12Z</time>
      </trkpt>
      <trkpt lat="50.2164" lon="3.27461">
        <ele>80</ele>
        <time>2014-03-02T14:46:23Z</time>
      </trkpt>
      <trkpt lat="50.21638" lon="3.27464">
        <ele>79</ele>
        <time>2014-03-02T14:46:28Z</time>
      </trkpt>
      <trkpt lat="50.21636" lon="3.27468">
        <ele>78</ele>
        <time>2014-03-02T14:46:32Z</time>
      </trkpt>
      <trkpt lat="50.21633" lon="3.27469">
        <ele>80</ele>
        <time>2014-03-02T14:46:42Z</time>
      </trkpt>
      <trkpt lat="50.21631" lon="3.27473">
        <ele>78</ele>
        <time>2014-03-02T14:46:47Z</time>
      </trkpt>
      <trkpt lat="50.21628" lon="3.27476">
        <ele>76</ele>
        <time>2014-03-02T14:46:52Z</time>
      </trkpt>
      <trkpt lat="50.21626" lon="3.27479">
        <ele>73</ele>
        <time>2014-03-02T14:46:56Z</time>
      </trkpt>
      <trkpt lat="50.21624" lon="3.27482">
        <ele>73</ele>
        <time>2014-03-02T14:46:59Z</time>
      </trkpt>
      <trkpt lat="50.21622" lon="3.27485">
        <ele>74</ele>
        <time>2014-03-02T14:47:06Z</time>
      </trkpt>
      <trkpt lat="50.2162" lon="3.27487">
        <ele>73</ele>
        <time>2014-03-02T14:47:11Z</time>
      </trkpt>
      <trkpt lat="50.21616" lon="3.27488">
        <ele>70</ele>
        <time>2014-03-02T14:47:16Z</time>
      </trkpt>
      <trkpt lat="50.21614" lon="3.27486">
        <ele>73</ele>
        <time>2014-03-02T14:47:23Z</time>
      </trkpt>
      <trkpt lat="50.2161" lon="3.27486">
        <ele>71</ele>
        <time>2014-03-02T14:47:28Z</time>
      </trkpt>
      <trkpt lat="50.21608" lon="3.27487">
        <ele>71</ele>
        <time>2014-03-02T14:47:35Z</time>
      </trkpt>
      <trkpt lat="50.21605" lon="3.27483">
        <ele>69</ele>
        <time>2014-03-02T14:47:38Z</time>
      </trkpt>
      <trkpt lat="50.21603" lon="3.27479">
        <ele>72</ele>
        <time>2014-03-02T14:47:42Z</time>
      </trkpt>
      <trkpt lat="50.216" lon="3.27476">
        <ele>70</ele>
        <time>2014-03-02T14:47:46Z</time>
      </trkpt>
      <trkpt lat="50.21598" lon="3.27473">
        <ele>70</ele>
        <time>2014-03-02T14:47:51Z</time>
      </trkpt>
      <trkpt lat="50.21597" lon="3.27468">
        <ele>74</ele>
        <time>2014-03-02T14:47:58Z</time>
      </trkpt>
      <trkpt lat="50.21595" lon="3.27465">
        <ele>74</ele>
        <time>2014-03-02T14:48:03Z</time>
      </trkpt>
      <trkpt lat="50.21592" lon="3.27462">
        <ele>74</ele>
        <time>2014-03-02T14:48:06Z</time>
      </trkpt>
      <trkpt lat="50.21589" lon="3.2746">
        <ele>74</ele>
        <time>2014-03-02T14:48:09Z</time>
      </trkpt>
      <trkpt lat="50.21586" lon="3.27457">
        <ele>75</ele>
        <time>2014-03-02T14:48:12Z</time>
      </trkpt>
      <trkpt lat="50.21584" lon="3.27454">
        <ele>76</ele>
        <time>2014-03-02T14:48:15Z</time>
      </trkpt>
      <trkpt lat="50.21581" lon="3.27451">
        <ele>78</ele>
        <time>2014-03-02T14:48:18Z</time>
      </trkpt>
      <trkpt lat="50.21578" lon="3.27448">
        <ele>79</ele>
        <time>2014-03-02T14:48:21Z</time>
      </trkpt>
      <trkpt lat="50.21575" lon="3.27445">
        <ele>79</ele>
        <time>2014-03-02T14:48:23Z</time>
      </trkpt>
      <trkpt lat="50.21572" lon="3.27442">
        <ele>77</ele>
        <time>2014-03-02T14:48:26Z</time>
      </trkpt>
      <trkpt lat="50.2157" lon="3.27439">
        <ele>78</ele>
        <time>2014-03-02T14:48:28Z</time>
      </trkpt>
      <trkpt lat="50.21568" lon="3.27435">
        <ele>77</ele>
        <time>2014-03-02T14:48:30Z</time>
      </trkpt>
      <trkpt lat="50.21566" lon="3.27432">
        <ele>78</ele>
        <time>2014-03-02T14:48:32Z</time>
      </trkpt>
      <trkpt lat="50.21564" lon="3.27429">
        <ele>80</ele>
        <time>2014-03-02T14:48:34Z</time>
      </trkpt>
      <trkpt lat="50.21561" lon="3.27425">
        <ele>79</ele>
        <time>2014-03-02T14:48:37Z</time>
      </trkpt>
      <trkpt lat="50.21558" lon="3.27423">
        <ele>79</ele>
        <time>2014-03-02T14:48:39Z</time>
      </trkpt>
      <trkpt lat="50.21555" lon="3.27421">
        <ele>78</ele>
        <time>2014-03-02T14:48:42Z</time>
      </trkpt>
      <trkpt lat="50.21552" lon="3.27418">
        <ele>79</ele>
        <time>2014-03-02T14:48:45Z</time>
      </trkpt>
      <trkpt lat="50.21549" lon="3.27415">
        <ele>81</ele>
        <time>2014-03-02T14:48:48Z</time>
      </trkpt>
      <trkpt lat="50.21546" lon="3.27412">
        <ele>82</ele>
        <time>2014-03-02T14:48:50Z</time>
      </trkpt>
      <trkpt lat="50.21544" lon="3.2741">
        <ele>81</ele>
        <time>2014-03-02T14:48:52Z</time>
      </trkpt>
      <trkpt lat="50.21541" lon="3.27408">
        <ele>82</ele>
        <time>2014-03-02T14:48:54Z</time>
      </trkpt>
      <trkpt lat="50.21535" lon="3.27403">
        <ele>82</ele>
        <time>2014-03-02T14:48:59Z</time>
      </trkpt>
      <trkpt lat="50.21532" lon="3.274">
        <ele>82</ele>
        <time>2014-03-02T14:49:02Z</time>
      </trkpt>
      <trkpt lat="50.21528" lon="3.27397">
        <ele>83</ele>
        <time>2014-03-02T14:49:05Z</time>
      </trkpt>
      <trkpt lat="50.21526" lon="3.27395">
        <ele>83</ele>
        <time>2014-03-02T14:49:07Z</time>
      </trkpt>
      <trkpt lat="50.21522" lon="3.27392">
        <ele>83</ele>
        <time>2014-03-02T14:49:10Z</time>
      </trkpt>
      <trkpt lat="50.21519" lon="3.2739">
        <ele>81</ele>
        <time>2014-03-02T14:49:13Z</time>
      </trkpt>
      <trkpt lat="50.21516" lon="3.27387">
        <ele>80</ele>
        <time>2014-03-02T14:49:16Z</time>
      </trkpt>
      <trkpt lat="50.21512" lon="3.27384">
        <ele>81</ele>
        <time>2014-03-02T14:49:19Z</time>
      </trkpt>
      <trkpt lat="50.2151" lon="3.27382">
        <ele>81</ele>
        <time>2014-03-02T14:49:21Z</time>
      </trkpt>
      <trkpt lat="50.21507" lon="3.2738">
        <ele>81</ele>
        <time>2014-03-02T14:49:23Z</time>
      </trkpt>
      <trkpt lat="50.21504" lon="3.27378">
        <ele>81</ele>
        <time>2014-03-02T14:49:25Z</time>
      </trkpt>
      <trkpt lat="50.21501" lon="3.27376">
        <ele>82</ele>
        <time>2014-03-02T14:49:27Z</time>
      </trkpt>
      <trkpt lat="50.21498" lon="3.27374">
        <ele>81</ele>
        <time>2014-03-02T14:49:29Z</time>
      </trkpt>
      <trkpt lat="50.21494" lon="3.27371">
        <ele>81</ele>
        <time>2014-03-02T14:49:32Z</time>
      </trkpt>
      <trkpt lat="50.21491" lon="3.27369">
        <ele>80</ele>
        <time>2014-03-02T14:49:35Z</time>
      </trkpt>
      <trkpt lat="50.21488" lon="3.27367">
        <ele>79</ele>
        <time>2014-03-02T14:49:38Z</time>
      </trkpt>
      <trkpt lat="50.21485" lon="3.27365">
        <ele>80</ele>
        <time>2014-03-02T14:49:41Z</time>
      </trkpt>
      <trkpt lat="50.21482" lon="3.27363">
        <ele>79</ele>
        <time>2014-03-02T14:49:44Z</time>
      </trkpt>
      <trkpt lat="50.21479" lon="3.27361">
        <ele>78</ele>
        <time>2014-03-02T14:49:47Z</time>
      </trkpt>
      <trkpt lat="50.21475" lon="3.2736">
        <ele>80</ele>
        <time>2014-03-02T14:49:50Z</time>
      </trkpt>
      <trkpt lat="50.21472" lon="3.27358">
        <ele>79</ele>
        <time>2014-03-02T14:49:53Z</time>
      </trkpt>
      <trkpt lat="50.21469" lon="3.27355">
        <ele>79</ele>
        <time>2014-03-02T14:49:56Z</time>
      </trkpt>
      <trkpt lat="50.21465" lon="3.27354">
        <ele>79</ele>
        <time>2014-03-02T14:49:59Z</time>
      </trkpt>
      <trkpt lat="50.21463" lon="3.27353">
        <ele>79</ele>
        <time>2014-03-02T14:50:01Z</time>
      </trkpt>
      <trkpt lat="50.2146" lon="3.27352">
        <ele>78</ele>
        <time>2014-03-02T14:50:03Z</time>
      </trkpt>
      <trkpt lat="50.21455" lon="3.2735">
        <ele>78</ele>
        <time>2014-03-02T14:50:07Z</time>
      </trkpt>
      <trkpt lat="50.21452" lon="3.27348">
        <ele>79</ele>
        <time>2014-03-02T14:50:09Z</time>
      </trkpt>
      <trkpt lat="50.21448" lon="3.27346">
        <ele>78</ele>
        <time>2014-03-02T14:50:12Z</time>
      </trkpt>
      <trkpt lat="50.21445" lon="3.27344">
        <ele>78</ele>
        <time>2014-03-02T14:50:15Z</time>
      </trkpt>
      <trkpt lat="50.21442" lon="3.27343">
        <ele>77</ele>
        <time>2014-03-02T14:50:18Z</time>
      </trkpt>
      <trkpt lat="50.21438" lon="3.2734">
        <ele>76</ele>
        <time>2014-03-02T14:50:21Z</time>
      </trkpt>
      <trkpt lat="50.21436" lon="3.27337">
        <ele>76</ele>
        <time>2014-03-02T14:50:23Z</time>
      </trkpt>
      <trkpt lat="50.21433" lon="3.27334">
        <ele>76</ele>
        <time>2014-03-02T14:50:26Z</time>
      </trkpt>
      <trkpt lat="50.21429" lon="3.27331">
        <ele>77</ele>
        <time>2014-03-02T14:50:29Z</time>
      </trkpt>
      <trkpt lat="50.21426" lon="3.27329">
        <ele>76</ele>
        <time>2014-03-02T14:50:32Z</time>
      </trkpt>
      <trkpt lat="50.21423" lon="3.27327">
        <ele>76</ele>
        <time>2014-03-02T14:50:34Z</time>
      </trkpt>
      <trkpt lat="50.21417" lon="3.27323">
        <ele>77</ele>
        <time>2014-03-02T14:50:39Z</time>
      </trkpt>
      <trkpt lat="50.21413" lon="3.27321">
        <ele>78</ele>
        <time>2014-03-02T14:50:42Z</time>
      </trkpt>
      <trkpt lat="50.2141" lon="3.27319">
        <ele>79</ele>
        <time>2014-03-02T14:50:45Z</time>
      </trkpt>
      <trkpt lat="50.21407" lon="3.27316">
        <ele>79</ele>
        <time>2014-03-02T14:50:48Z</time>
      </trkpt>
      <trkpt lat="50.21403" lon="3.27314">
        <ele>79</ele>
        <time>2014-03-02T14:50:51Z</time>
      </trkpt>
      <trkpt lat="50.214" lon="3.27312">
        <ele>79</ele>
        <time>2014-03-02T14:50:54Z</time>
      </trkpt>
      <trkpt lat="50.21396" lon="3.27312">
        <ele>79</ele>
        <time>2014-03-02T14:50:57Z</time>
      </trkpt>
      <trkpt lat="50.21393" lon="3.27311">
        <ele>80</ele>
        <time>2014-03-02T14:50:59Z</time>
      </trkpt>
      <trkpt lat="50.21391" lon="3.27308">
        <ele>79</ele>
        <time>2014-03-02T14:51:01Z</time>
      </trkpt>
      <trkpt lat="50.21388" lon="3.27306">
        <ele>79</ele>
        <time>2014-03-02T14:51:03Z</time>
      </trkpt>
      <trkpt lat="50.21385" lon="3.27305">
        <ele>79</ele>
        <time>2014-03-02T14:51:05Z</time>
      </trkpt>
      <trkpt lat="50.21382" lon="3.27303">
        <ele>79</ele>
        <time>2014-03-02T14:51:07Z</time>
      </trkpt>
      <trkpt lat="50.2138" lon="3.27301">
        <ele>80</ele>
        <time>2014-03-02T14:51:09Z</time>
      </trkpt>
      <trkpt lat="50.21377" lon="3.27298">
        <ele>81</ele>
        <time>2014-03-02T14:51:12Z</time>
      </trkpt>
      <trkpt lat="50.21373" lon="3.27296">
        <ele>80</ele>
        <time>2014-03-02T14:51:15Z</time>
      </trkpt>
      <trkpt lat="50.21369" lon="3.27294">
        <ele>79</ele>
        <time>2014-03-02T14:51:18Z</time>
      </trkpt>
      <trkpt lat="50.21367" lon="3.27292">
        <ele>78</ele>
        <time>2014-03-02T14:51:20Z</time>
      </trkpt>
      <trkpt lat="50.21363" lon="3.2729">
        <ele>79</ele>
        <time>2014-03-02T14:51:23Z</time>
      </trkpt>
      <trkpt lat="50.2136" lon="3.27287">
        <ele>81</ele>
        <time>2014-03-02T14:51:26Z</time>
      </trkpt>
      <trkpt lat="50.21357" lon="3.27284">
        <ele>81</ele>
        <time>2014-03-02T14:51:29Z</time>
      </trkpt>
      <trkpt lat="50.21353" lon="3.2728">
        <ele>82</ele>
        <time>2014-03-02T14:51:32Z</time>
      </trkpt>
      <trkpt lat="50.21348" lon="3.27276">
        <ele>82</ele>
        <time>2014-03-02T14:51:36Z</time>
      </trkpt>
      <trkpt lat="50.21343" lon="3.27272">
        <ele>82</ele>
        <time>2014-03-02T14:51:40Z</time>
      </trkpt>
      <trkpt lat="50.21341" lon="3.27271">
        <ele>84</ele>
        <time>2014-03-02T14:51:42Z</time>
      </trkpt>
      <trkpt lat="50.21337" lon="3.27268">
        <ele>84</ele>
        <time>2014-03-02T14:51:45Z</time>
      </trkpt>
      <trkpt lat="50.21334" lon="3.27264">
        <ele>83</ele>
        <time>2014-03-02T14:51:48Z</time>
      </trkpt>
      <trkpt lat="50.2133" lon="3.27261">
        <ele>84</ele>
        <time>2014-03-02T14:51:51Z</time>
      </trkpt>
      <trkpt lat="50.21328" lon="3.27258">
        <ele>82</ele>
        <time>2014-03-02T14:51:53Z</time>
      </trkpt>
      <trkpt lat="50.21326" lon="3.27256">
        <ele>81</ele>
        <time>2014-03-02T14:51:55Z</time>
      </trkpt>
      <trkpt lat="50.21322" lon="3.27253">
        <ele>80</ele>
        <time>2014-03-02T14:51:58Z</time>
      </trkpt>
      <trkpt lat="50.21319" lon="3.27251">
        <ele>79</ele>
        <time>2014-03-02T14:52:01Z</time>
      </trkpt>
      <trkpt lat="50.21316" lon="3.27248">
        <ele>78</ele>
        <time>2014-03-02T14:52:04Z</time>
      </trkpt>
      <trkpt lat="50.21313" lon="3.27244">
        <ele>78</ele>
        <time>2014-03-02T14:52:07Z</time>
      </trkpt>
      <trkpt lat="50.2131" lon="3.2724">
        <ele>79</ele>
        <time>2014-03-02T14:52:10Z</time>
      </trkpt>
      <trkpt lat="50.21308" lon="3.27237">
        <ele>82</ele>
        <time>2014-03-02T14:52:12Z</time>
      </trkpt>
      <trkpt lat="50.21305" lon="3.27234">
        <ele>84</ele>
        <time>2014-03-02T14:52:14Z</time>
      </trkpt>
      <trkpt lat="50.21303" lon="3.27232">
        <ele>84</ele>
        <time>2014-03-02T14:52:16Z</time>
      </trkpt>
      <trkpt lat="50.213" lon="3.27228">
        <ele>83</ele>
        <time>2014-03-02T14:52:19Z</time>
      </trkpt>
      <trkpt lat="50.21296" lon="3.27226">
        <ele>80</ele>
        <time>2014-03-02T14:52:22Z</time>
      </trkpt>
      <trkpt lat="50.21293" lon="3.27222">
        <ele>81</ele>
        <time>2014-03-02T14:52:25Z</time>
      </trkpt>
      <trkpt lat="50.21291" lon="3.2722">
        <ele>82</ele>
        <time>2014-03-02T14:52:27Z</time>
      </trkpt>
      <trkpt lat="50.21288" lon="3.27215">
        <ele>83</ele>
        <time>2014-03-02T14:52:30Z</time>
      </trkpt>
      <trkpt lat="50.21285" lon="3.27211">
        <ele>83</ele>
        <time>2014-03-02T14:52:33Z</time>
      </trkpt>
      <trkpt lat="50.21282" lon="3.27207">
        <ele>82</ele>
        <time>2014-03-02T14:52:36Z</time>
      </trkpt>
      <trkpt lat="50.21279" lon="3.27205">
        <ele>80</ele>
        <time>2014-03-02T14:52:39Z</time>
      </trkpt>
      <trkpt lat="50.21276" lon="3.27202">
        <ele>80</ele>
        <time>2014-03-02T14:52:42Z</time>
      </trkpt>
      <trkpt lat="50.21273" lon="3.27199">
        <ele>81</ele>
        <time>2014-03-02T14:52:45Z</time>
      </trkpt>
      <trkpt lat="50.21271" lon="3.27196">
        <ele>81</ele>
        <time>2014-03-02T14:52:48Z</time>
      </trkpt>
      <trkpt lat="50.21268" lon="3.27192">
        <ele>79</ele>
        <time>2014-03-02T14:52:51Z</time>
      </trkpt>
      <trkpt lat="50.21265" lon="3.27188">
        <ele>80</ele>
        <time>2014-03-02T14:52:54Z</time>
      </trkpt>
      <trkpt lat="50.21263" lon="3.27184">
        <ele>80</ele>
        <time>2014-03-02T14:52:56Z</time>
      </trkpt>
      <trkpt lat="50.21261" lon="3.27181">
        <ele>80</ele>
        <time>2014-03-02T14:52:58Z</time>
      </trkpt>
      <trkpt lat="50.21257" lon="3.27175">
        <ele>81</ele>
        <time>2014-03-02T14:53:02Z</time>
      </trkpt>
      <trkpt lat="50.21254" lon="3.27172">
        <ele>82</ele>
        <time>2014-03-02T14:53:04Z</time>
      </trkpt>
      <trkpt lat="50.21253" lon="3.27169">
        <ele>81</ele>
        <time>2014-03-02T14:53:06Z</time>
      </trkpt>
      <trkpt lat="50.2125" lon="3.27164">
        <ele>79</ele>
        <time>2014-03-02T14:53:09Z</time>
      </trkpt>
      <trkpt lat="50.21247" lon="3.27162">
        <ele>78</ele>
        <time>2014-03-02T14:53:12Z</time>
      </trkpt>
      <trkpt lat="50.21245" lon="3.27158">
        <ele>77</ele>
        <time>2014-03-02T14:53:15Z</time>
      </trkpt>
      <trkpt lat="50.21243" lon="3.27154">
        <ele>78</ele>
        <time>2014-03-02T14:53:18Z</time>
      </trkpt>
      <trkpt lat="50.2124" lon="3.2715">
        <ele>78</ele>
        <time>2014-03-02T14:53:21Z</time>
      </trkpt>
      <trkpt lat="50.21238" lon="3.27145">
        <ele>79</ele>
        <time>2014-03-02T14:53:24Z</time>
      </trkpt>
      <trkpt lat="50.21235" lon="3.2714">
        <ele>78</ele>
        <time>2014-03-02T14:53:27Z</time>
      </trkpt>
      <trkpt lat="50.21233" lon="3.27137">
        <ele>75</ele>
        <time>2014-03-02T14:53:30Z</time>
      </trkpt>
      <trkpt lat="50.21231" lon="3.27135">
        <ele>76</ele>
        <time>2014-03-02T14:53:33Z</time>
      </trkpt>
      <trkpt lat="50.21228" lon="3.2713">
        <ele>79</ele>
        <time>2014-03-02T14:53:36Z</time>
      </trkpt>
      <trkpt lat="50.21226" lon="3.27127">
        <ele>78</ele>
        <time>2014-03-02T14:53:38Z</time>
      </trkpt>
      <trkpt lat="50.21224" lon="3.27124">
        <ele>77</ele>
        <time>2014-03-02T14:53:40Z</time>
      </trkpt>
      <trkpt lat="50.21222" lon="3.27121">
        <ele>76</ele>
        <time>2014-03-02T14:53:42Z</time>
      </trkpt>
      <trkpt lat="50.2122" lon="3.27118">
        <ele>75</ele>
        <time>2014-03-02T14:53:44Z</time>
      </trkpt>
      <trkpt lat="50.21218" lon="3.27114">
        <ele>75</ele>
        <time>2014-03-02T14:53:46Z</time>
      </trkpt>
      <trkpt lat="50.21216" lon="3.2711">
        <ele>75</ele>
        <time>2014-03-02T14:53:48Z</time>
      </trkpt>
      <trkpt lat="50.21213" lon="3.27102">
        <ele>76</ele>
        <time>2014-03-02T14:53:52Z</time>
      </trkpt>
      <trkpt lat="50.21211" lon="3.27098">
        <ele>76</ele>
        <time>2014-03-02T14:53:54Z</time>
      </trkpt>
      <trkpt lat="50.21209" lon="3.27093">
        <ele>77</ele>
        <time>2014-03-02T14:53:56Z</time>
      </trkpt>
      <trkpt lat="50.21206" lon="3.27085">
        <ele>81</ele>
        <time>2014-03-02T14:54:00Z</time>
      </trkpt>
      <trkpt lat="50.21203" lon="3.27081">
        <ele>77</ele>
        <time>2014-03-02T14:54:02Z</time>
      </trkpt>
      <trkpt lat="50.21201" lon="3.27076">
        <ele>79</ele>
        <time>2014-03-02T14:54:05Z</time>
      </trkpt>
      <trkpt lat="50.21199" lon="3.27072">
        <ele>80</ele>
        <time>2014-03-02T14:54:07Z</time>
      </trkpt>
      <trkpt lat="50.21196" lon="3.27069">
        <ele>79</ele>
        <time>2014-03-02T14:54:10Z</time>
      </trkpt>
      <trkpt lat="50.21194" lon="3.27064">
        <ele>79</ele>
        <time>2014-03-02T14:54:13Z</time>
      </trkpt>
      <trkpt lat="50.21191" lon="3.27062">
        <ele>77</ele>
        <time>2014-03-02T14:54:16Z</time>
      </trkpt>
      <trkpt lat="50.21189" lon="3.27058">
        <ele>78</ele>
        <time>2014-03-02T14:54:19Z</time>
      </trkpt>
      <trkpt lat="50.21187" lon="3.27053">
        <ele>77</ele>
        <time>2014-03-02T14:54:22Z</time>
      </trkpt>
      <trkpt lat="50.21185" lon="3.27049">
        <ele>78</ele>
        <time>2014-03-02T14:54:24Z</time>
      </trkpt>
      <trkpt lat="50.21183" lon="3.27045">
        <ele>76</ele>
        <time>2014-03-02T14:54:27Z</time>
      </trkpt>
      <trkpt lat="50.2118" lon="3.27041">
        <ele>77</ele>
        <time>2014-03-02T14:54:30Z</time>
      </trkpt>
      <trkpt lat="50.21178" lon="3.27037">
        <ele>77</ele>
        <time>2014-03-02T14:54:33Z</time>
      </trkpt>
      <trkpt lat="50.21176" lon="3.27031">
        <ele>76</ele>
        <time>2014-03-02T14:54:36Z</time>
      </trkpt>
      <trkpt lat="50.21174" lon="3.27027">
        <ele>78</ele>
        <time>2014-03-02T14:54:39Z</time>
      </trkpt>
      <trkpt lat="50.21172" lon="3.27023">
        <ele>78</ele>
        <time>2014-03-02T14:54:44Z</time>
      </trkpt>
      <trkpt lat="50.2117" lon="3.27019">
        <ele>78</ele>
        <time>2014-03-02T14:54:47Z</time>
      </trkpt>
      <trkpt lat="50.21167" lon="3.27016">
        <ele>76</ele>
        <time>2014-03-02T14:54:50Z</time>
      </trkpt>
      <trkpt lat="50.21164" lon="3.27012">
        <ele>77</ele>
        <time>2014-03-02T14:54:53Z</time>
      </trkpt>
      <trkpt lat="50.21162" lon="3.27009">
        <ele>77</ele>
        <time>2014-03-02T14:54:55Z</time>
      </trkpt>
      <trkpt lat="50.21159" lon="3.27004">
        <ele>76</ele>
        <time>2014-03-02T14:54:58Z</time>
      </trkpt>
      <trkpt lat="50.21157" lon="3.27">
        <ele>74</ele>
        <time>2014-03-02T14:55:01Z</time>
      </trkpt>
      <trkpt lat="50.21154" lon="3.26997">
        <ele>76</ele>
        <time>2014-03-02T14:55:04Z</time>
      </trkpt>
      <trkpt lat="50.21151" lon="3.26993">
        <ele>75</ele>
        <time>2014-03-02T14:55:07Z</time>
      </trkpt>
      <trkpt lat="50.21148" lon="3.26988">
        <ele>75</ele>
        <time>2014-03-02T14:55:10Z</time>
      </trkpt>
      <trkpt lat="50.21145" lon="3.26984">
        <ele>76</ele>
        <time>2014-03-02T14:55:13Z</time>
      </trkpt>
      <trkpt lat="50.21142" lon="3.26978">
        <ele>75</ele>
        <time>2014-03-02T14:55:16Z</time>
      </trkpt>
      <trkpt lat="50.21139" lon="3.26974">
        <ele>76</ele>
        <time>2014-03-02T14:55:19Z</time>
      </trkpt>
      <trkpt lat="50.21135" lon="3.26966">
        <ele>77</ele>
        <time>2014-03-02T14:55:24Z</time>
      </trkpt>
      <trkpt lat="50.21132" lon="3.26963">
        <ele>77</ele>
        <time>2014-03-02T14:55:27Z</time>
      </trkpt>
      <trkpt lat="50.21129" lon="3.26958">
        <ele>77</ele>
        <time>2014-03-02T14:55:30Z</time>
      </trkpt>
      <trkpt lat="50.21124" lon="3.26951">
        <ele>78</ele>
        <time>2014-03-02T14:55:34Z</time>
      </trkpt>
      <trkpt lat="50.21121" lon="3.26948">
        <ele>78</ele>
        <time>2014-03-02T14:55:36Z</time>
      </trkpt>
      <trkpt lat="50.21118" lon="3.26945">
        <ele>79</ele>
        <time>2014-03-02T14:55:39Z</time>
      </trkpt>
      <trkpt lat="50.21115" lon="3.26941">
        <ele>81</ele>
        <time>2014-03-02T14:55:42Z</time>
      </trkpt>
      <trkpt lat="50.21113" lon="3.26937">
        <ele>81</ele>
        <time>2014-03-02T14:55:45Z</time>
      </trkpt>
      <trkpt lat="50.2111" lon="3.26935">
        <ele>81</ele>
        <time>2014-03-02T14:55:48Z</time>
      </trkpt>
      <trkpt lat="50.21107" lon="3.26932">
        <ele>80</ele>
        <time>2014-03-02T14:55:51Z</time>
      </trkpt>
      <trkpt lat="50.21104" lon="3.26928">
        <ele>81</ele>
        <time>2014-03-02T14:55:54Z</time>
      </trkpt>
      <trkpt lat="50.21102" lon="3.26925">
        <ele>81</ele>
        <time>2014-03-02T14:55:56Z</time>
      </trkpt>
      <trkpt lat="50.21099" lon="3.26923">
        <ele>79</ele>
        <time>2014-03-02T14:55:59Z</time>
      </trkpt>
      <trkpt lat="50.21097" lon="3.2692">
        <ele>81</ele>
        <time>2014-03-02T14:56:01Z</time>
      </trkpt>
      <trkpt lat="50.21094" lon="3.26917">
        <ele>81</ele>
        <time>2014-03-02T14:56:04Z</time>
      </trkpt>
      <trkpt lat="50.21091" lon="3.26915">
        <ele>80</ele>
        <time>2014-03-02T14:56:07Z</time>
      </trkpt>
      <trkpt lat="50.21089" lon="3.26913">
        <ele>81</ele>
        <time>2014-03-02T14:56:10Z</time>
      </trkpt>
      <trkpt lat="50.21086" lon="3.2691">
        <ele>80</ele>
        <time>2014-03-02T14:56:13Z</time>
      </trkpt>
      <trkpt lat="50.21083" lon="3.26907">
        <ele>81</ele>
        <time>2014-03-02T14:56:16Z</time>
      </trkpt>
      <trkpt lat="50.21081" lon="3.26905">
        <ele>81</ele>
        <time>2014-03-02T14:56:18Z</time>
      </trkpt>
      <trkpt lat="50.21078" lon="3.26903">
        <ele>82</ele>
        <time>2014-03-02T14:56:20Z</time>
      </trkpt>
      <trkpt lat="50.21075" lon="3.269">
        <ele>81</ele>
        <time>2014-03-02T14:56:23Z</time>
      </trkpt>
      <trkpt lat="50.21072" lon="3.26897">
        <ele>81</ele>
        <time>2014-03-02T14:56:25Z</time>
      </trkpt>
      <trkpt lat="50.2107" lon="3.26895">
        <ele>81</ele>
        <time>2014-03-02T14:56:27Z</time>
      </trkpt>
      <trkpt lat="50.21067" lon="3.26892">
        <ele>80</ele>
        <time>2014-03-02T14:56:29Z</time>
      </trkpt>
      <trkpt lat="50.21064" lon="3.2689">
        <ele>81</ele>
        <time>2014-03-02T14:56:31Z</time>
      </trkpt>
      <trkpt lat="50.21061" lon="3.26888">
        <ele>82</ele>
        <time>2014-03-02T14:56:34Z</time>
      </trkpt>
      <trkpt lat="50.21058" lon="3.26885">
        <ele>82</ele>
        <time>2014-03-02T14:56:37Z</time>
      </trkpt>
      <trkpt lat="50.21054" lon="3.26884">
        <ele>80</ele>
        <time>2014-03-02T14:56:40Z</time>
      </trkpt>
      <trkpt lat="50.21051" lon="3.2688">
        <ele>81</ele>
        <time>2014-03-02T14:56:43Z</time>
      </trkpt>
      <trkpt lat="50.21048" lon="3.26877">
        <ele>82</ele>
        <time>2014-03-02T14:56:45Z</time>
      </trkpt>
      <trkpt lat="50.21046" lon="3.26874">
        <ele>81</ele>
        <time>2014-03-02T14:56:47Z</time>
      </trkpt>
      <trkpt lat="50.21043" lon="3.26872">
        <ele>81</ele>
        <time>2014-03-02T14:56:49Z</time>
      </trkpt>
      <trkpt lat="50.21041" lon="3.2687">
        <ele>79</ele>
        <time>2014-03-02T14:56:51Z</time>
      </trkpt>
      <trkpt lat="50.21038" lon="3.26868">
        <ele>79</ele>
        <time>2014-03-02T14:56:53Z</time>
      </trkpt>
      <trkpt lat="50.21035" lon="3.26865">
        <ele>81</ele>
        <time>2014-03-02T14:56:56Z</time>
      </trkpt>
      <trkpt lat="50.21032" lon="3.26863">
        <ele>82</ele>
        <time>2014-03-02T14:56:59Z</time>
      </trkpt>
      <trkpt lat="50.21029" lon="3.2686">
        <ele>81</ele>
        <time>2014-03-02T14:57:02Z</time>
      </trkpt>
      <trkpt lat="50.21026" lon="3.2686">
        <ele>83</ele>
        <time>2014-03-02T14:57:05Z</time>
      </trkpt>
      <trkpt lat="50.21023" lon="3.26857">
        <ele>82</ele>
        <time>2014-03-02T14:57:08Z</time>
      </trkpt>
      <trkpt lat="50.21019" lon="3.26856">
        <ele>83</ele>
        <time>2014-03-02T14:57:11Z</time>
      </trkpt>
      <trkpt lat="50.21016" lon="3.26854">
        <ele>82</ele>
        <time>2014-03-02T14:57:14Z</time>
      </trkpt>
      <trkpt lat="50.21013" lon="3.26851">
        <ele>80</ele>
        <time>2014-03-02T14:57:17Z</time>
      </trkpt>
      <trkpt lat="50.21009" lon="3.26848">
        <ele>80</ele>
        <time>2014-03-02T14:57:20Z</time>
      </trkpt>
      <trkpt lat="50.21007" lon="3.26845">
        <ele>79</ele>
        <time>2014-03-02T14:57:22Z</time>
      </trkpt>
      <trkpt lat="50.21004" lon="3.26843">
        <ele>79</ele>
        <time>2014-03-02T14:57:24Z</time>
      </trkpt>
      <trkpt lat="50.21002" lon="3.26841">
        <ele>80</ele>
        <time>2014-03-02T14:57:26Z</time>
      </trkpt>
      <trkpt lat="50.21" lon="3.26838">
        <ele>79</ele>
        <time>2014-03-02T14:57:28Z</time>
      </trkpt>
      <trkpt lat="50.20996" lon="3.26835">
        <ele>79</ele>
        <time>2014-03-02T14:57:31Z</time>
      </trkpt>
      <trkpt lat="50.20993" lon="3.26832">
        <ele>77</ele>
        <time>2014-03-02T14:57:34Z</time>
      </trkpt>
      <trkpt lat="50.2099" lon="3.26829">
        <ele>77</ele>
        <time>2014-03-02T14:57:37Z</time>
      </trkpt>
      <trkpt lat="50.20986" lon="3.26826">
        <ele>80</ele>
        <time>2014-03-02T14:57:40Z</time>
      </trkpt>
      <trkpt lat="50.20983" lon="3.26824">
        <ele>77</ele>
        <time>2014-03-02T14:57:43Z</time>
      </trkpt>
      <trkpt lat="50.2098" lon="3.26822">
        <ele>78</ele>
        <time>2014-03-02T14:57:46Z</time>
      </trkpt>
      <trkpt lat="50.20976" lon="3.2682">
        <ele>78</ele>
        <time>2014-03-02T14:57:49Z</time>
      </trkpt>
      <trkpt lat="50.20973" lon="3.26816">
        <ele>78</ele>
        <time>2014-03-02T14:57:52Z</time>
      </trkpt>
      <trkpt lat="50.20971" lon="3.26814">
        <ele>80</ele>
        <time>2014-03-02T14:57:54Z</time>
      </trkpt>
      <trkpt lat="50.20968" lon="3.26811">
        <ele>82</ele>
        <time>2014-03-02T14:57:56Z</time>
      </trkpt>
      <trkpt lat="50.20963" lon="3.26805">
        <ele>83</ele>
        <time>2014-03-02T14:58:00Z</time>
      </trkpt>
      <trkpt lat="50.2096" lon="3.26803">
        <ele>83</ele>
        <time>2014-03-02T14:58:02Z</time>
      </trkpt>
      <trkpt lat="50.20958" lon="3.26799">
        <ele>83</ele>
        <time>2014-03-02T14:58:05Z</time>
      </trkpt>
      <trkpt lat="50.20955" lon="3.26796">
        <ele>84</ele>
        <time>2014-03-02T14:58:14Z</time>
      </trkpt>
      <trkpt lat="50.20952" lon="3.26796">
        <ele>83</ele>
        <time>2014-03-02T14:58:17Z</time>
      </trkpt>
      <trkpt lat="50.20948" lon="3.26794">
        <ele>83</ele>
        <time>2014-03-02T14:58:20Z</time>
      </trkpt>
      <trkpt lat="50.20945" lon="3.26792">
        <ele>84</ele>
        <time>2014-03-02T14:58:23Z</time>
      </trkpt>
      <trkpt lat="50.20943" lon="3.26791">
        <ele>83</ele>
        <time>2014-03-02T14:58:26Z</time>
      </trkpt>
      <trkpt lat="50.20939" lon="3.26789">
        <ele>82</ele>
        <time>2014-03-02T14:58:30Z</time>
      </trkpt>
      <trkpt lat="50.20936" lon="3.26787">
        <ele>82</ele>
        <time>2014-03-02T14:58:33Z</time>
      </trkpt>
      <trkpt lat="50.20933" lon="3.26784">
        <ele>81</ele>
        <time>2014-03-02T14:58:36Z</time>
      </trkpt>
      <trkpt lat="50.2093" lon="3.26781">
        <ele>82</ele>
        <time>2014-03-02T14:58:39Z</time>
      </trkpt>
      <trkpt lat="50.20927" lon="3.26778">
        <ele>83</ele>
        <time>2014-03-02T14:58:42Z</time>
      </trkpt>
      <trkpt lat="50.20925" lon="3.26775">
        <ele>83</ele>
        <time>2014-03-02T14:58:44Z</time>
      </trkpt>
      <trkpt lat="50.20923" lon="3.26773">
        <ele>84</ele>
        <time>2014-03-02T14:58:46Z</time>
      </trkpt>
      <trkpt lat="50.2092" lon="3.26771">
        <ele>83</ele>
        <time>2014-03-02T14:58:48Z</time>
      </trkpt>
      <trkpt lat="50.20918" lon="3.26769">
        <ele>83</ele>
        <time>2014-03-02T14:58:50Z</time>
      </trkpt>
      <trkpt lat="50.20915" lon="3.26766">
        <ele>85</ele>
        <time>2014-03-02T14:58:52Z</time>
      </trkpt>
      <trkpt lat="50.20911" lon="3.26764">
        <ele>82</ele>
        <time>2014-03-02T14:58:55Z</time>
      </trkpt>
      <trkpt lat="50.20908" lon="3.26764">
        <ele>79</ele>
        <time>2014-03-02T14:58:58Z</time>
      </trkpt>
      <trkpt lat="50.20905" lon="3.26762">
        <ele>79</ele>
        <time>2014-03-02T14:59:01Z</time>
      </trkpt>
      <trkpt lat="50.20902" lon="3.2676">
        <ele>79</ele>
        <time>2014-03-02T14:59:04Z</time>
      </trkpt>
      <trkpt lat="50.20898" lon="3.26757">
        <ele>81</ele>
        <time>2014-03-02T14:59:07Z</time>
      </trkpt>
      <trkpt lat="50.20896" lon="3.26755">
        <ele>82</ele>
        <time>2014-03-02T14:59:09Z</time>
      </trkpt>
      <trkpt lat="50.20893" lon="3.26754">
        <ele>84</ele>
        <time>2014-03-02T14:59:11Z</time>
      </trkpt>
      <trkpt lat="50.2089" lon="3.26752">
        <ele>85</ele>
        <time>2014-03-02T14:59:13Z</time>
      </trkpt>
      <trkpt lat="50.20888" lon="3.2675">
        <ele>83</ele>
        <time>2014-03-02T14:59:15Z</time>
      </trkpt>
      <trkpt lat="50.20884" lon="3.26748">
        <ele>82</ele>
        <time>2014-03-02T14:59:18Z</time>
      </trkpt>
      <trkpt lat="50.20881" lon="3.26746">
        <ele>82</ele>
        <time>2014-03-02T14:59:21Z</time>
      </trkpt>
      <trkpt lat="50.20878" lon="3.26743">
        <ele>82</ele>
        <time>2014-03-02T14:59:25Z</time>
      </trkpt>
      <trkpt lat="50.20875" lon="3.2674">
        <ele>82</ele>
        <time>2014-03-02T14:59:28Z</time>
      </trkpt>
      <trkpt lat="50.20871" lon="3.26738">
        <ele>83</ele>
        <time>2014-03-02T14:59:31Z</time>
      </trkpt>
      <trkpt lat="50.20868" lon="3.26737">
        <ele>81</ele>
        <time>2014-03-02T14:59:34Z</time>
      </trkpt>
      <trkpt lat="50.20866" lon="3.26731">
        <ele>82</ele>
        <time>2014-03-02T14:59:37Z</time>
      </trkpt>
      <trkpt lat="50.20864" lon="3.26728">
        <ele>83</ele>
        <time>2014-03-02T14:59:41Z</time>
      </trkpt>
      <trkpt lat="50.20861" lon="3.26727">
        <ele>82</ele>
        <time>2014-03-02T14:59:45Z</time>
      </trkpt>
      <trkpt lat="50.20858" lon="3.26724">
        <ele>83</ele>
        <time>2014-03-02T14:59:48Z</time>
      </trkpt>
      <trkpt lat="50.20855" lon="3.26722">
        <ele>83</ele>
        <time>2014-03-02T14:59:50Z</time>
      </trkpt>
      <trkpt lat="50.20852" lon="3.26719">
        <ele>82</ele>
        <time>2014-03-02T14:59:52Z</time>
      </trkpt>
      <trkpt lat="50.2085" lon="3.26717">
        <ele>82</ele>
        <time>2014-03-02T14:59:54Z</time>
      </trkpt>
      <trkpt lat="50.20847" lon="3.26714">
        <ele>83</ele>
        <time>2014-03-02T14:59:56Z</time>
      </trkpt>
      <trkpt lat="50.20845" lon="3.26711">
        <ele>82</ele>
        <time>2014-03-02T14:59:58Z</time>
      </trkpt>
      <trkpt lat="50.20841" lon="3.2671">
        <ele>82</ele>
        <time>2014-03-02T15:00:01Z</time>
      </trkpt>
      <trkpt lat="50.20838" lon="3.26708">
        <ele>82</ele>
        <time>2014-03-02T15:00:04Z</time>
      </trkpt>
      <trkpt lat="50.20835" lon="3.26705">
        <ele>81</ele>
        <time>2014-03-02T15:00:07Z</time>
      </trkpt>
      <trkpt lat="50.20831" lon="3.26702">
        <ele>82</ele>
        <time>2014-03-02T15:00:10Z</time>
      </trkpt>
      <trkpt lat="50.20828" lon="3.267">
        <ele>81</ele>
        <time>2014-03-02T15:00:13Z</time>
      </trkpt>
      <trkpt lat="50.20825" lon="3.267">
        <ele>79</ele>
        <time>2014-03-02T15:00:17Z</time>
      </trkpt>
      <trkpt lat="50.20822" lon="3.26698">
        <ele>78</ele>
        <time>2014-03-02T15:00:20Z</time>
      </trkpt>
      <trkpt lat="50.2082" lon="3.26696">
        <ele>75</ele>
        <time>2014-03-02T15:00:23Z</time>
      </trkpt>
      <trkpt lat="50.20816" lon="3.26693">
        <ele>75</ele>
        <time>2014-03-02T15:00:26Z</time>
      </trkpt>
      <trkpt lat="50.20814" lon="3.2669">
        <ele>77</ele>
        <time>2014-03-02T15:00:28Z</time>
      </trkpt>
      <trkpt lat="50.20812" lon="3.26687">
        <ele>76</ele>
        <time>2014-03-02T15:00:30Z</time>
      </trkpt>
      <trkpt lat="50.20809" lon="3.26685">
        <ele>78</ele>
        <time>2014-03-02T15:00:32Z</time>
      </trkpt>
      <trkpt lat="50.20807" lon="3.26682">
        <ele>78</ele>
        <time>2014-03-02T15:00:34Z</time>
      </trkpt>
      <trkpt lat="50.20804" lon="3.26678">
        <ele>76</ele>
        <time>2014-03-02T15:00:37Z</time>
      </trkpt>
      <trkpt lat="50.20801" lon="3.26674">
        <ele>77</ele>
        <time>2014-03-02T15:00:40Z</time>
      </trkpt>
      <trkpt lat="50.20799" lon="3.26672">
        <ele>78</ele>
        <time>2014-03-02T15:00:42Z</time>
      </trkpt>
      <trkpt lat="50.20796" lon="3.26667">
        <ele>79</ele>
        <time>2014-03-02T15:00:45Z</time>
      </trkpt>
      <trkpt lat="50.20793" lon="3.26664">
        <ele>80</ele>
        <time>2014-03-02T15:00:48Z</time>
      </trkpt>
      <trkpt lat="50.2079" lon="3.2666">
        <ele>81</ele>
        <time>2014-03-02T15:00:51Z</time>
      </trkpt>
      <trkpt lat="50.20786" lon="3.26657">
        <ele>81</ele>
        <time>2014-03-02T15:00:54Z</time>
      </trkpt>
      <trkpt lat="50.20783" lon="3.26654">
        <ele>81</ele>
        <time>2014-03-02T15:00:57Z</time>
      </trkpt>
      <trkpt lat="50.20779" lon="3.26652">
        <ele>79</ele>
        <time>2014-03-02T15:01:00Z</time>
      </trkpt>
      <trkpt lat="50.20776" lon="3.26649">
        <ele>78</ele>
        <time>2014-03-02T15:01:03Z</time>
      </trkpt>
      <trkpt lat="50.20773" lon="3.26645">
        <ele>79</ele>
        <time>2014-03-02T15:01:06Z</time>
      </trkpt>
      <trkpt lat="50.2077" lon="3.26643">
        <ele>81</ele>
        <time>2014-03-02T15:01:09Z</time>
      </trkpt>
      <trkpt lat="50.20767" lon="3.26641">
        <ele>80</ele>
        <time>2014-03-02T15:01:12Z</time>
      </trkpt>
      <trkpt lat="50.20763" lon="3.26638">
        <ele>79</ele>
        <time>2014-03-02T15:01:15Z</time>
      </trkpt>
      <trkpt lat="50.2076" lon="3.26635">
        <ele>78</ele>
        <time>2014-03-02T15:01:18Z</time>
      </trkpt>
      <trkpt lat="50.20756" lon="3.26633">
        <ele>81</ele>
        <time>2014-03-02T15:01:21Z</time>
      </trkpt>
      <trkpt lat="50.20754" lon="3.2663">
        <ele>82</ele>
        <time>2014-03-02T15:01:23Z</time>
      </trkpt>
      <trkpt lat="50.20752" lon="3.26628">
        <ele>85</ele>
        <time>2014-03-02T15:01:25Z</time>
      </trkpt>
      <trkpt lat="50.20748" lon="3.26626">
        <ele>82</ele>
        <time>2014-03-02T15:01:28Z</time>
      </trkpt>
      <trkpt lat="50.20745" lon="3.26623">
        <ele>82</ele>
        <time>2014-03-02T15:01:31Z</time>
      </trkpt>
      <trkpt lat="50.20742" lon="3.26622">
        <ele>79</ele>
        <time>2014-03-02T15:01:34Z</time>
      </trkpt>
      <trkpt lat="50.20739" lon="3.26621">
        <ele>77</ele>
        <time>2014-03-02T15:01:37Z</time>
      </trkpt>
      <trkpt lat="50.20736" lon="3.26618">
        <ele>78</ele>
        <time>2014-03-02T15:01:40Z</time>
      </trkpt>
      <trkpt lat="50.20733" lon="3.26615">
        <ele>78</ele>
        <time>2014-03-02T15:01:43Z</time>
      </trkpt>
      <trkpt lat="50.2073" lon="3.26615">
        <ele>76</ele>
        <time>2014-03-02T15:01:47Z</time>
      </trkpt>
      <trkpt lat="50.20727" lon="3.26614">
        <ele>74</ele>
        <time>2014-03-02T15:01:50Z</time>
      </trkpt>
      <trkpt lat="50.20723" lon="3.26612">
        <ele>75</ele>
        <time>2014-03-02T15:01:53Z</time>
      </trkpt>
      <trkpt lat="50.20719" lon="3.26611">
        <ele>74</ele>
        <time>2014-03-02T15:01:56Z</time>
      </trkpt>
      <trkpt lat="50.20717" lon="3.26608">
        <ele>75</ele>
        <time>2014-03-02T15:01:58Z</time>
      </trkpt>
      <trkpt lat="50.20714" lon="3.26606">
        <ele>75</ele>
        <time>2014-03-02T15:02:00Z</time>
      </trkpt>
      <trkpt lat="50.20711" lon="3.26605">
        <ele>75</ele>
        <time>2014-03-02T15:02:03Z</time>
      </trkpt>
      <trkpt lat="50.20708" lon="3.26601">
        <ele>77</ele>
        <time>2014-03-02T15:02:06Z</time>
      </trkpt>
      <trkpt lat="50.20704" lon="3.26598">
        <ele>78</ele>
        <time>2014-03-02T15:02:09Z</time>
      </trkpt>
      <trkpt lat="50.20702" lon="3.26596">
        <ele>79</ele>
        <time>2014-03-02T15:02:11Z</time>
      </trkpt>
      <trkpt lat="50.20698" lon="3.26596">
        <ele>76</ele>
        <time>2014-03-02T15:02:14Z</time>
      </trkpt>
      <trkpt lat="50.20695" lon="3.26596">
        <ele>76</ele>
        <time>2014-03-02T15:02:17Z</time>
      </trkpt>
      <trkpt lat="50.20692" lon="3.26592">
        <ele>76</ele>
        <time>2014-03-02T15:02:20Z</time>
      </trkpt>
      <trkpt lat="50.20689" lon="3.26593">
        <ele>75</ele>
        <time>2014-03-02T15:02:24Z</time>
      </trkpt>
      <trkpt lat="50.20685" lon="3.26593">
        <ele>73</ele>
        <time>2014-03-02T15:02:27Z</time>
      </trkpt>
      <trkpt lat="50.20683" lon="3.26592">
        <ele>75</ele>
        <time>2014-03-02T15:02:29Z</time>
      </trkpt>
      <trkpt lat="50.2068" lon="3.26591">
        <ele>76</ele>
        <time>2014-03-02T15:02:31Z</time>
      </trkpt>
      <trkpt lat="50.20677" lon="3.26588">
        <ele>76</ele>
        <time>2014-03-02T15:02:34Z</time>
      </trkpt>
      <trkpt lat="50.20673" lon="3.26587">
        <ele>77</ele>
        <time>2014-03-02T15:02:37Z</time>
      </trkpt>
      <trkpt lat="50.20669" lon="3.26586">
        <ele>79</ele>
        <time>2014-03-02T15:02:40Z</time>
      </trkpt>
      <trkpt lat="50.20666" lon="3.26584">
        <ele>80</ele>
        <time>2014-03-02T15:02:43Z</time>
      </trkpt>
      <trkpt lat="50.20663" lon="3.26583">
        <ele>82</ele>
        <time>2014-03-02T15:02:45Z</time>
      </trkpt>
      <trkpt lat="50.2066" lon="3.26583">
        <ele>80</ele>
        <time>2014-03-02T15:02:48Z</time>
      </trkpt>
      <trkpt lat="50.20657" lon="3.26584">
        <ele>80</ele>
        <time>2014-03-02T15:03:16Z</time>
      </trkpt>
      <trkpt lat="50.20654" lon="3.26584">
        <ele>79</ele>
        <time>2014-03-02T15:03:19Z</time>
      </trkpt>
      <trkpt lat="50.20651" lon="3.26583">
        <ele>79</ele>
        <time>2014-03-02T15:03:22Z</time>
      </trkpt>
      <trkpt lat="50.20648" lon="3.26583">
        <ele>78</ele>
        <time>2014-03-02T15:03:26Z</time>
      </trkpt>
      <trkpt lat="50.20645" lon="3.26582">
        <ele>78</ele>
        <time>2014-03-02T15:03:29Z</time>
      </trkpt>
      <trkpt lat="50.20643" lon="3.26581">
        <ele>78</ele>
        <time>2014-03-02T15:03:32Z</time>
      </trkpt>
      <trkpt lat="50.2064" lon="3.26581">
        <ele>78</ele>
        <time>2014-03-02T15:03:35Z</time>
      </trkpt>
      <trkpt lat="50.20637" lon="3.2658">
        <ele>78</ele>
        <time>2014-03-02T15:03:38Z</time>
      </trkpt>
      <trkpt lat="50.20634" lon="3.26581">
        <ele>80</ele>
        <time>2014-03-02T15:03:40Z</time>
      </trkpt>
      <trkpt lat="50.20631" lon="3.26581">
        <ele>82</ele>
        <time>2014-03-02T15:03:42Z</time>
      </trkpt>
      <trkpt lat="50.20627" lon="3.26582">
        <ele>85</ele>
        <time>2014-03-02T15:03:44Z</time>
      </trkpt>
      <trkpt lat="50.20624" lon="3.26582">
        <ele>86</ele>
        <time>2014-03-02T15:03:46Z</time>
      </trkpt>
      <trkpt lat="50.20621" lon="3.26582">
        <ele>86</ele>
        <time>2014-03-02T15:03:48Z</time>
      </trkpt>
      <trkpt lat="50.20618" lon="3.26583">
        <ele>86</ele>
        <time>2014-03-02T15:03:50Z</time>
      </trkpt>
      <trkpt lat="50.20615" lon="3.26584">
        <ele>86</ele>
        <time>2014-03-02T15:03:52Z</time>
      </trkpt>
      <trkpt lat="50.20612" lon="3.26584">
        <ele>86</ele>
        <time>2014-03-02T15:03:54Z</time>
      </trkpt>
      <trkpt lat="50.20608" lon="3.26585">
        <ele>85</ele>
        <time>2014-03-02T15:03:57Z</time>
      </trkpt>
      <trkpt lat="50.20605" lon="3.26586">
        <ele>85</ele>
        <time>2014-03-02T15:04:00Z</time>
      </trkpt>
      <trkpt lat="50.20601" lon="3.26587">
        <ele>87</ele>
        <time>2014-03-02T15:04:03Z</time>
      </trkpt>
      <trkpt lat="50.20598" lon="3.26587">
        <ele>87</ele>
        <time>2014-03-02T15:04:07Z</time>
      </trkpt>
      <trkpt lat="50.20596" lon="3.26588">
        <ele>87</ele>
        <time>2014-03-02T15:04:10Z</time>
      </trkpt>
      <trkpt lat="50.20592" lon="3.26589">
        <ele>87</ele>
        <time>2014-03-02T15:04:13Z</time>
      </trkpt>
      <trkpt lat="50.20589" lon="3.2659">
        <ele>88</ele>
        <time>2014-03-02T15:04:16Z</time>
      </trkpt>
      <trkpt lat="50.20585" lon="3.26591">
        <ele>86</ele>
        <time>2014-03-02T15:04:20Z</time>
      </trkpt>
      <trkpt lat="50.20582" lon="3.26594">
        <ele>85</ele>
        <time>2014-03-02T15:04:23Z</time>
      </trkpt>
      <trkpt lat="50.20579" lon="3.26594">
        <ele>86</ele>
        <time>2014-03-02T15:04:26Z</time>
      </trkpt>
      <trkpt lat="50.20576" lon="3.26593">
        <ele>89</ele>
        <time>2014-03-02T15:04:29Z</time>
      </trkpt>
      <trkpt lat="50.20573" lon="3.26594">
        <ele>87</ele>
        <time>2014-03-02T15:04:32Z</time>
      </trkpt>
      <trkpt lat="50.2057" lon="3.26594">
        <ele>86</ele>
        <time>2014-03-02T15:04:34Z</time>
      </trkpt>
      <trkpt lat="50.20566" lon="3.26596">
        <ele>85</ele>
        <time>2014-03-02T15:04:37Z</time>
      </trkpt>
      <trkpt lat="50.20562" lon="3.26596">
        <ele>83</ele>
        <time>2014-03-02T15:04:40Z</time>
      </trkpt>
      <trkpt lat="50.20559" lon="3.26597">
        <ele>82</ele>
        <time>2014-03-02T15:04:42Z</time>
      </trkpt>
      <trkpt lat="50.20556" lon="3.26597">
        <ele>81</ele>
        <time>2014-03-02T15:04:44Z</time>
      </trkpt>
      <trkpt lat="50.20553" lon="3.26598">
        <ele>81</ele>
        <time>2014-03-02T15:04:46Z</time>
      </trkpt>
      <trkpt lat="50.2055" lon="3.26599">
        <ele>80</ele>
        <time>2014-03-02T15:04:48Z</time>
      </trkpt>
      <trkpt lat="50.20547" lon="3.266">
        <ele>80</ele>
        <time>2014-03-02T15:04:50Z</time>
      </trkpt>
      <trkpt lat="50.20544" lon="3.26601">
        <ele>79</ele>
        <time>2014-03-02T15:04:52Z</time>
      </trkpt>
      <trkpt lat="50.2054" lon="3.26601">
        <ele>82</ele>
        <time>2014-03-02T15:04:54Z</time>
      </trkpt>
      <trkpt lat="50.20537" lon="3.26601">
        <ele>82</ele>
        <time>2014-03-02T15:04:56Z</time>
      </trkpt>
      <trkpt lat="50.20534" lon="3.26601">
        <ele>82</ele>
        <time>2014-03-02T15:04:58Z</time>
      </trkpt>
      <trkpt lat="50.20531" lon="3.266">
        <ele>81</ele>
        <time>2014-03-02T15:05:01Z</time>
      </trkpt>
      <trkpt lat="50.20527" lon="3.26599">
        <ele>82</ele>
        <time>2014-03-02T15:05:04Z</time>
      </trkpt>
      <trkpt lat="50.20524" lon="3.26599">
        <ele>83</ele>
        <time>2014-03-02T15:05:07Z</time>
      </trkpt>
      <trkpt lat="50.2052" lon="3.26599">
        <ele>84</ele>
        <time>2014-03-02T15:05:10Z</time>
      </trkpt>
      <trkpt lat="50.20516" lon="3.26599">
        <ele>83</ele>
        <time>2014-03-02T15:05:13Z</time>
      </trkpt>
      <trkpt lat="50.20513" lon="3.266">
        <ele>81</ele>
        <time>2014-03-02T15:05:15Z</time>
      </trkpt>
      <trkpt lat="50.20509" lon="3.26601">
        <ele>81</ele>
        <time>2014-03-02T15:05:18Z</time>
      </trkpt>
      <trkpt lat="50.20506" lon="3.266">
        <ele>82</ele>
        <time>2014-03-02T15:05:21Z</time>
      </trkpt>
      <trkpt lat="50.20502" lon="3.26599">
        <ele>82</ele>
        <time>2014-03-02T15:05:24Z</time>
      </trkpt>
      <trkpt lat="50.20499" lon="3.26598">
        <ele>79</ele>
        <time>2014-03-02T15:05:27Z</time>
      </trkpt>
      <trkpt lat="50.20496" lon="3.26596">
        <ele>83</ele>
        <time>2014-03-02T15:05:30Z</time>
      </trkpt>
      <trkpt lat="50.20492" lon="3.26596">
        <ele>84</ele>
        <time>2014-03-02T15:05:33Z</time>
      </trkpt>
      <trkpt lat="50.20489" lon="3.26596">
        <ele>84</ele>
        <time>2014-03-02T15:05:36Z</time>
      </trkpt>
      <trkpt lat="50.20486" lon="3.26594">
        <ele>84</ele>
        <time>2014-03-02T15:05:39Z</time>
      </trkpt>
      <trkpt lat="50.20483" lon="3.26594">
        <ele>84</ele>
        <time>2014-03-02T15:05:42Z</time>
      </trkpt>
      <trkpt lat="50.20479" lon="3.26596">
        <ele>85</ele>
        <time>2014-03-02T15:05:45Z</time>
      </trkpt>
      <trkpt lat="50.20475" lon="3.26596">
        <ele>88</ele>
        <time>2014-03-02T15:05:48Z</time>
      </trkpt>
      <trkpt lat="50.20472" lon="3.26596">
        <ele>87</ele>
        <time>2014-03-02T15:05:51Z</time>
      </trkpt>
      <trkpt lat="50.20469" lon="3.26594">
        <ele>84</ele>
        <time>2014-03-02T15:05:54Z</time>
      </trkpt>
      <trkpt lat="50.20466" lon="3.26593">
        <ele>87</ele>
        <time>2014-03-02T15:05:56Z</time>
      </trkpt>
      <trkpt lat="50.20463" lon="3.26593">
        <ele>86</ele>
        <time>2014-03-02T15:05:58Z</time>
      </trkpt>
      <trkpt lat="50.20459" lon="3.26594">
        <ele>84</ele>
        <time>2014-03-02T15:06:01Z</time>
      </trkpt>
      <trkpt lat="50.20457" lon="3.26594">
        <ele>84</ele>
        <time>2014-03-02T15:06:03Z</time>
      </trkpt>
      <trkpt lat="50.20454" lon="3.26594">
        <ele>83</ele>
        <time>2014-03-02T15:06:05Z</time>
      </trkpt>
      <trkpt lat="50.20451" lon="3.26595">
        <ele>81</ele>
        <time>2014-03-02T15:06:07Z</time>
      </trkpt>
      <trkpt lat="50.20445" lon="3.26593">
        <ele>83</ele>
        <time>2014-03-02T15:06:11Z</time>
      </trkpt>
      <trkpt lat="50.20439" lon="3.2659">
        <ele>82</ele>
        <time>2014-03-02T15:06:15Z</time>
      </trkpt>
      <trkpt lat="50.20436" lon="3.2659">
        <ele>84</ele>
        <time>2014-03-02T15:06:17Z</time>
      </trkpt>
      <trkpt lat="50.20434" lon="3.26589">
        <ele>84</ele>
        <time>2014-03-02T15:06:19Z</time>
      </trkpt>
      <trkpt lat="50.20427" lon="3.26589">
        <ele>83</ele>
        <time>2014-03-02T15:06:24Z</time>
      </trkpt>
      <trkpt lat="50.20423" lon="3.26587">
        <ele>83</ele>
        <time>2014-03-02T15:06:27Z</time>
      </trkpt>
      <trkpt lat="50.2042" lon="3.26586">
        <ele>86</ele>
        <time>2014-03-02T15:06:29Z</time>
      </trkpt>
      <trkpt lat="50.20417" lon="3.26586">
        <ele>86</ele>
        <time>2014-03-02T15:06:31Z</time>
      </trkpt>
      <trkpt lat="50.20415" lon="3.26586">
        <ele>87</ele>
        <time>2014-03-02T15:06:33Z</time>
      </trkpt>
      <trkpt lat="50.20411" lon="3.26585">
        <ele>86</ele>
        <time>2014-03-02T15:06:36Z</time>
      </trkpt>
      <trkpt lat="50.20407" lon="3.26585">
        <ele>83</ele>
        <time>2014-03-02T15:06:39Z</time>
      </trkpt>
      <trkpt lat="50.20404" lon="3.26585">
        <ele>81</ele>
        <time>2014-03-02T15:06:41Z</time>
      </trkpt>
      <trkpt lat="50.20401" lon="3.26585">
        <ele>80</ele>
        <time>2014-03-02T15:06:43Z</time>
      </trkpt>
      <trkpt lat="50.20398" lon="3.26584">
        <ele>80</ele>
        <time>2014-03-02T15:06:45Z</time>
      </trkpt>
      <trkpt lat="50.20395" lon="3.26582">
        <ele>80</ele>
        <time>2014-03-02T15:06:47Z</time>
      </trkpt>
      <trkpt lat="50.20392" lon="3.2658">
        <ele>80</ele>
        <time>2014-03-02T15:06:49Z</time>
      </trkpt>
      <trkpt lat="50.2039" lon="3.26578">
        <ele>81</ele>
        <time>2014-03-02T15:06:51Z</time>
      </trkpt>
      <trkpt lat="50.20387" lon="3.26576">
        <ele>82</ele>
        <time>2014-03-02T15:06:53Z</time>
      </trkpt>
      <trkpt lat="50.2038" lon="3.26574">
        <ele>80</ele>
        <time>2014-03-02T15:06:58Z</time>
      </trkpt>
      <trkpt lat="50.20377" lon="3.26573">
        <ele>80</ele>
        <time>2014-03-02T15:07:01Z</time>
      </trkpt>
      <trkpt lat="50.20374" lon="3.2657">
        <ele>82</ele>
        <time>2014-03-02T15:07:05Z</time>
      </trkpt>
      <trkpt lat="50.20371" lon="3.26568">
        <ele>83</ele>
        <time>2014-03-02T15:07:08Z</time>
      </trkpt>
      <trkpt lat="50.20368" lon="3.26566">
        <ele>82</ele>
        <time>2014-03-02T15:07:11Z</time>
      </trkpt>
      <trkpt lat="50.20364" lon="3.26565">
        <ele>80</ele>
        <time>2014-03-02T15:07:14Z</time>
      </trkpt>
      <trkpt lat="50.20361" lon="3.26562">
        <ele>81</ele>
        <time>2014-03-02T15:07:17Z</time>
      </trkpt>
      <trkpt lat="50.20358" lon="3.2656">
        <ele>80</ele>
        <time>2014-03-02T15:07:19Z</time>
      </trkpt>
      <trkpt lat="50.20356" lon="3.26558">
        <ele>80</ele>
        <time>2014-03-02T15:07:21Z</time>
      </trkpt>
      <trkpt lat="50.20353" lon="3.26556">
        <ele>81</ele>
        <time>2014-03-02T15:07:23Z</time>
      </trkpt>
      <trkpt lat="50.20351" lon="3.26554">
        <ele>80</ele>
        <time>2014-03-02T15:07:25Z</time>
      </trkpt>
      <trkpt lat="50.20348" lon="3.26552">
        <ele>80</ele>
        <time>2014-03-02T15:07:27Z</time>
      </trkpt>
      <trkpt lat="50.20346" lon="3.26549">
        <ele>81</ele>
        <time>2014-03-02T15:07:29Z</time>
      </trkpt>
      <trkpt lat="50.20343" lon="3.26548">
        <ele>81</ele>
        <time>2014-03-02T15:07:31Z</time>
      </trkpt>
      <trkpt lat="50.20341" lon="3.26546">
        <ele>81</ele>
        <time>2014-03-02T15:07:33Z</time>
      </trkpt>
      <trkpt lat="50.20338" lon="3.26544">
        <ele>84</ele>
        <time>2014-03-02T15:07:35Z</time>
      </trkpt>
      <trkpt lat="50.20335" lon="3.26542">
        <ele>82</ele>
        <time>2014-03-02T15:07:37Z</time>
      </trkpt>
      <trkpt lat="50.20333" lon="3.26541">
        <ele>81</ele>
        <time>2014-03-02T15:07:39Z</time>
      </trkpt>
      <trkpt lat="50.20329" lon="3.26538">
        <ele>81</ele>
        <time>2014-03-02T15:07:42Z</time>
      </trkpt>
      <trkpt lat="50.20326" lon="3.26535">
        <ele>81</ele>
        <time>2014-03-02T15:07:45Z</time>
      </trkpt>
      <trkpt lat="50.20323" lon="3.26533">
        <ele>81</ele>
        <time>2014-03-02T15:07:48Z</time>
      </trkpt>
      <trkpt lat="50.2032" lon="3.26531">
        <ele>81</ele>
        <time>2014-03-02T15:07:51Z</time>
      </trkpt>
      <trkpt lat="50.20316" lon="3.26528">
        <ele>82</ele>
        <time>2014-03-02T15:07:54Z</time>
      </trkpt>
      <trkpt lat="50.20311" lon="3.26523">
        <ele>84</ele>
        <time>2014-03-02T15:07:58Z</time>
      </trkpt>
      <trkpt lat="50.2031" lon="3.2652">
        <ele>85</ele>
        <time>2014-03-02T15:08:00Z</time>
      </trkpt>
      <trkpt lat="50.20307" lon="3.26517">
        <ele>85</ele>
        <time>2014-03-02T15:08:02Z</time>
      </trkpt>
      <trkpt lat="50.20304" lon="3.26513">
        <ele>84</ele>
        <time>2014-03-02T15:08:05Z</time>
      </trkpt>
      <trkpt lat="50.20301" lon="3.2651">
        <ele>85</ele>
        <time>2014-03-02T15:08:08Z</time>
      </trkpt>
      <trkpt lat="50.20299" lon="3.26506">
        <ele>85</ele>
        <time>2014-03-02T15:08:11Z</time>
      </trkpt>
      <trkpt lat="50.20296" lon="3.26503">
        <ele>85</ele>
        <time>2014-03-02T15:08:14Z</time>
      </trkpt>
      <trkpt lat="50.20293" lon="3.265">
        <ele>84</ele>
        <time>2014-03-02T15:08:17Z</time>
      </trkpt>
      <trkpt lat="50.2029" lon="3.26497">
        <ele>83</ele>
        <time>2014-03-02T15:08:20Z</time>
      </trkpt>
      <trkpt lat="50.20286" lon="3.26494">
        <ele>82</ele>
        <time>2014-03-02T15:08:23Z</time>
      </trkpt>
      <trkpt lat="50.20283" lon="3.26491">
        <ele>84</ele>
        <time>2014-03-02T15:08:26Z</time>
      </trkpt>
      <trkpt lat="50.20281" lon="3.26488">
        <ele>86</ele>
        <time>2014-03-02T15:08:28Z</time>
      </trkpt>
      <trkpt lat="50.20279" lon="3.26485">
        <ele>86</ele>
        <time>2014-03-02T15:08:30Z</time>
      </trkpt>
      <trkpt lat="50.20274" lon="3.26478">
        <ele>88</ele>
        <time>2014-03-02T15:08:35Z</time>
      </trkpt>
      <trkpt lat="50.20271" lon="3.26474">
        <ele>88</ele>
        <time>2014-03-02T15:08:38Z</time>
      </trkpt>
      <trkpt lat="50.20269" lon="3.2647">
        <ele>88</ele>
        <time>2014-03-02T15:08:41Z</time>
      </trkpt>
      <trkpt lat="50.20267" lon="3.26467">
        <ele>88</ele>
        <time>2014-03-02T15:08:44Z</time>
      </trkpt>
      <trkpt lat="50.20264" lon="3.26464">
        <ele>89</ele>
        <time>2014-03-02T15:08:47Z</time>
      </trkpt>
      <trkpt lat="50.20261" lon="3.26461">
        <ele>87</ele>
        <time>2014-03-02T15:08:50Z</time>
      </trkpt>
      <trkpt lat="50.20259" lon="3.26457">
        <ele>87</ele>
        <time>2014-03-02T15:08:53Z</time>
      </trkpt>
      <trkpt lat="50.20256" lon="3.26454">
        <ele>86</ele>
        <time>2014-03-02T15:08:56Z</time>
      </trkpt>
      <trkpt lat="50.20253" lon="3.2645">
        <ele>86</ele>
        <time>2014-03-02T15:08:59Z</time>
      </trkpt>
      <trkpt lat="50.20251" lon="3.26447">
        <ele>86</ele>
        <time>2014-03-02T15:09:02Z</time>
      </trkpt>
      <trkpt lat="50.20248" lon="3.26444">
        <ele>85</ele>
        <time>2014-03-02T15:09:05Z</time>
      </trkpt>
      <trkpt lat="50.20246" lon="3.26441">
        <ele>84</ele>
        <time>2014-03-02T15:09:08Z</time>
      </trkpt>
      <trkpt lat="50.20244" lon="3.26437">
        <ele>83</ele>
        <time>2014-03-02T15:09:16Z</time>
      </trkpt>
      <trkpt lat="50.20241" lon="3.26433">
        <ele>83</ele>
        <time>2014-03-02T15:09:19Z</time>
      </trkpt>
      <trkpt lat="50.20238" lon="3.26429">
        <ele>83</ele>
        <time>2014-03-02T15:09:22Z</time>
      </trkpt>
      <trkpt lat="50.20235" lon="3.26424">
        <ele>83</ele>
        <time>2014-03-02T15:09:25Z</time>
      </trkpt>
      <trkpt lat="50.20232" lon="3.2642">
        <ele>83</ele>
        <time>2014-03-02T15:09:28Z</time>
      </trkpt>
      <trkpt lat="50.2023" lon="3.26417">
        <ele>81</ele>
        <time>2014-03-02T15:09:31Z</time>
      </trkpt>
      <trkpt lat="50.20227" lon="3.26413">
        <ele>82</ele>
        <time>2014-03-02T15:09:34Z</time>
      </trkpt>
      <trkpt lat="50.20225" lon="3.26408">
        <ele>82</ele>
        <time>2014-03-02T15:09:37Z</time>
      </trkpt>
      <trkpt lat="50.20223" lon="3.26405">
        <ele>82</ele>
        <time>2014-03-02T15:09:40Z</time>
      </trkpt>
      <trkpt lat="50.20221" lon="3.26399">
        <ele>82</ele>
        <time>2014-03-02T15:09:43Z</time>
      </trkpt>
      <trkpt lat="50.20219" lon="3.26394">
        <ele>82</ele>
        <time>2014-03-02T15:09:46Z</time>
      </trkpt>
      <trkpt lat="50.20217" lon="3.26389">
        <ele>84</ele>
        <time>2014-03-02T15:09:49Z</time>
      </trkpt>
      <trkpt lat="50.20215" lon="3.26385">
        <ele>84</ele>
        <time>2014-03-02T15:09:51Z</time>
      </trkpt>
      <trkpt lat="50.20214" lon="3.26381">
        <ele>84</ele>
        <time>2014-03-02T15:09:53Z</time>
      </trkpt>
      <trkpt lat="50.20212" lon="3.26376">
        <ele>85</ele>
        <time>2014-03-02T15:09:55Z</time>
      </trkpt>
      <trkpt lat="50.2021" lon="3.26373">
        <ele>85</ele>
        <time>2014-03-02T15:09:57Z</time>
      </trkpt>
      <trkpt lat="50.20208" lon="3.26367">
        <ele>87</ele>
        <time>2014-03-02T15:10:00Z</time>
      </trkpt>
      <trkpt lat="50.20206" lon="3.26364">
        <ele>85</ele>
        <time>2014-03-02T15:10:03Z</time>
      </trkpt>
      <trkpt lat="50.20204" lon="3.26361">
        <ele>85</ele>
        <time>2014-03-02T15:10:06Z</time>
      </trkpt>
      <trkpt lat="50.20202" lon="3.26359">
        <ele>86</ele>
        <time>2014-03-02T15:10:09Z</time>
      </trkpt>
      <trkpt lat="50.20199" lon="3.26354">
        <ele>86</ele>
        <time>2014-03-02T15:10:12Z</time>
      </trkpt>
      <trkpt lat="50.20197" lon="3.26349">
        <ele>86</ele>
        <time>2014-03-02T15:10:15Z</time>
      </trkpt>
      <trkpt lat="50.20194" lon="3.2634">
        <ele>85</ele>
        <time>2014-03-02T15:10:20Z</time>
      </trkpt>
      <trkpt lat="50.20191" lon="3.26336">
        <ele>84</ele>
        <time>2014-03-02T15:10:23Z</time>
      </trkpt>
      <trkpt lat="50.20189" lon="3.26333">
        <ele>84</ele>
        <time>2014-03-02T15:10:25Z</time>
      </trkpt>
      <trkpt lat="50.20186" lon="3.26328">
        <ele>84</ele>
        <time>2014-03-02T15:10:28Z</time>
      </trkpt>
      <trkpt lat="50.20183" lon="3.26325">
        <ele>84</ele>
        <time>2014-03-02T15:10:31Z</time>
      </trkpt>
      <trkpt lat="50.20181" lon="3.26321">
        <ele>82</ele>
        <time>2014-03-02T15:10:34Z</time>
      </trkpt>
      <trkpt lat="50.20178" lon="3.26317">
        <ele>82</ele>
        <time>2014-03-02T15:10:37Z</time>
      </trkpt>
      <trkpt lat="50.20176" lon="3.26313">
        <ele>82</ele>
        <time>2014-03-02T15:10:40Z</time>
      </trkpt>
      <trkpt lat="50.20174" lon="3.26309">
        <ele>82</ele>
        <time>2014-03-02T15:10:43Z</time>
      </trkpt>
      <trkpt lat="50.20172" lon="3.26304">
        <ele>82</ele>
        <time>2014-03-02T15:10:46Z</time>
      </trkpt>
      <trkpt lat="50.20169" lon="3.26301">
        <ele>82</ele>
        <time>2014-03-02T15:10:49Z</time>
      </trkpt>
      <trkpt lat="50.20168" lon="3.26296">
        <ele>83</ele>
        <time>2014-03-02T15:10:51Z</time>
      </trkpt>
      <trkpt lat="50.20167" lon="3.26291">
        <ele>84</ele>
        <time>2014-03-02T15:10:54Z</time>
      </trkpt>
      <trkpt lat="50.20164" lon="3.26286">
        <ele>84</ele>
        <time>2014-03-02T15:10:57Z</time>
      </trkpt>
      <trkpt lat="50.20162" lon="3.26281">
        <ele>85</ele>
        <time>2014-03-02T15:11:00Z</time>
      </trkpt>
      <trkpt lat="50.20159" lon="3.26277">
        <ele>85</ele>
        <time>2014-03-02T15:11:03Z</time>
      </trkpt>
      <trkpt lat="50.20156" lon="3.26273">
        <ele>82</ele>
        <time>2014-03-02T15:11:06Z</time>
      </trkpt>
      <trkpt lat="50.20154" lon="3.26268">
        <ele>84</ele>
        <time>2014-03-02T15:11:09Z</time>
      </trkpt>
      <trkpt lat="50.20151" lon="3.26264">
        <ele>84</ele>
        <time>2014-03-02T15:11:12Z</time>
      </trkpt>
      <trkpt lat="50.20149" lon="3.26259">
        <ele>85</ele>
        <time>2014-03-02T15:11:15Z</time>
      </trkpt>
      <trkpt lat="50.20147" lon="3.26255">
        <ele>85</ele>
        <time>2014-03-02T15:11:17Z</time>
      </trkpt>
      <trkpt lat="50.20145" lon="3.26252">
        <ele>85</ele>
        <time>2014-03-02T15:11:19Z</time>
      </trkpt>
      <trkpt lat="50.20142" lon="3.26247">
        <ele>84</ele>
        <time>2014-03-02T15:11:22Z</time>
      </trkpt>
      <trkpt lat="50.20139" lon="3.26243">
        <ele>84</ele>
        <time>2014-03-02T15:11:25Z</time>
      </trkpt>
      <trkpt lat="50.20137" lon="3.26238">
        <ele>82</ele>
        <time>2014-03-02T15:11:28Z</time>
      </trkpt>
      <trkpt lat="50.20135" lon="3.26234">
        <ele>81</ele>
        <time>2014-03-02T15:11:31Z</time>
      </trkpt>
      <trkpt lat="50.20132" lon="3.2623">
        <ele>81</ele>
        <time>2014-03-02T15:11:34Z</time>
      </trkpt>
      <trkpt lat="50.2013" lon="3.26226">
        <ele>81</ele>
        <time>2014-03-02T15:11:37Z</time>
      </trkpt>
      <trkpt lat="50.20128" lon="3.26222">
        <ele>81</ele>
        <time>2014-03-02T15:11:39Z</time>
      </trkpt>
      <trkpt lat="50.20127" lon="3.26219">
        <ele>80</ele>
        <time>2014-03-02T15:11:41Z</time>
      </trkpt>
      <trkpt lat="50.20124" lon="3.26214">
        <ele>79</ele>
        <time>2014-03-02T15:11:44Z</time>
      </trkpt>
      <trkpt lat="50.20122" lon="3.26209">
        <ele>79</ele>
        <time>2014-03-02T15:11:47Z</time>
      </trkpt>
      <trkpt lat="50.20119" lon="3.26205">
        <ele>78</ele>
        <time>2014-03-02T15:11:50Z</time>
      </trkpt>
      <trkpt lat="50.20116" lon="3.262">
        <ele>79</ele>
        <time>2014-03-02T15:11:53Z</time>
      </trkpt>
      <trkpt lat="50.20114" lon="3.26196">
        <ele>77</ele>
        <time>2014-03-02T15:11:56Z</time>
      </trkpt>
      <trkpt lat="50.20112" lon="3.26191">
        <ele>80</ele>
        <time>2014-03-02T15:11:59Z</time>
      </trkpt>
      <trkpt lat="50.20109" lon="3.26187">
        <ele>79</ele>
        <time>2014-03-02T15:12:02Z</time>
      </trkpt>
      <trkpt lat="50.20107" lon="3.26184">
        <ele>81</ele>
        <time>2014-03-02T15:12:04Z</time>
      </trkpt>
      <trkpt lat="50.20104" lon="3.26179">
        <ele>83</ele>
        <time>2014-03-02T15:12:07Z</time>
      </trkpt>
      <trkpt lat="50.20103" lon="3.26175">
        <ele>82</ele>
        <time>2014-03-02T15:12:09Z</time>
      </trkpt>
      <trkpt lat="50.20101" lon="3.26172">
        <ele>82</ele>
        <time>2014-03-02T15:12:11Z</time>
      </trkpt>
      <trkpt lat="50.20099" lon="3.26168">
        <ele>82</ele>
        <time>2014-03-02T15:12:13Z</time>
      </trkpt>
      <trkpt lat="50.20096" lon="3.26163">
        <ele>82</ele>
        <time>2014-03-02T15:12:16Z</time>
      </trkpt>
      <trkpt lat="50.20094" lon="3.26159">
        <ele>84</ele>
        <time>2014-03-02T15:12:19Z</time>
      </trkpt>
      <trkpt lat="50.20092" lon="3.26155">
        <ele>84</ele>
        <time>2014-03-02T15:12:21Z</time>
      </trkpt>
      <trkpt lat="50.2009" lon="3.26152">
        <ele>83</ele>
        <time>2014-03-02T15:12:23Z</time>
      </trkpt>
      <trkpt lat="50.20087" lon="3.26148">
        <ele>83</ele>
        <time>2014-03-02T15:12:26Z</time>
      </trkpt>
      <trkpt lat="50.20085" lon="3.26144">
        <ele>82</ele>
        <time>2014-03-02T15:12:29Z</time>
      </trkpt>
      <trkpt lat="50.20082" lon="3.26141">
        <ele>83</ele>
        <time>2014-03-02T15:12:32Z</time>
      </trkpt>
      <trkpt lat="50.2008" lon="3.26138">
        <ele>85</ele>
        <time>2014-03-02T15:12:34Z</time>
      </trkpt>
      <trkpt lat="50.20077" lon="3.26135">
        <ele>84</ele>
        <time>2014-03-02T15:12:37Z</time>
      </trkpt>
      <trkpt lat="50.20073" lon="3.26132">
        <ele>84</ele>
        <time>2014-03-02T15:12:40Z</time>
      </trkpt>
      <trkpt lat="50.20072" lon="3.26128">
        <ele>84</ele>
        <time>2014-03-02T15:12:42Z</time>
      </trkpt>
      <trkpt lat="50.2007" lon="3.26125">
        <ele>84</ele>
        <time>2014-03-02T15:12:44Z</time>
      </trkpt>
      <trkpt lat="50.20067" lon="3.26122">
        <ele>85</ele>
        <time>2014-03-02T15:12:46Z</time>
      </trkpt>
      <trkpt lat="50.20065" lon="3.26119">
        <ele>87</ele>
        <time>2014-03-02T15:12:48Z</time>
      </trkpt>
      <trkpt lat="50.20063" lon="3.26116">
        <ele>88</ele>
        <time>2014-03-02T15:12:50Z</time>
      </trkpt>
      <trkpt lat="50.2006" lon="3.26113">
        <ele>89</ele>
        <time>2014-03-02T15:12:52Z</time>
      </trkpt>
      <trkpt lat="50.20057" lon="3.2611">
        <ele>88</ele>
        <time>2014-03-02T15:12:55Z</time>
      </trkpt>
      <trkpt lat="50.20055" lon="3.26108">
        <ele>87</ele>
        <time>2014-03-02T15:12:57Z</time>
      </trkpt>
      <trkpt lat="50.20051" lon="3.26107">
        <ele>84</ele>
        <time>2014-03-02T15:13:00Z</time>
      </trkpt>
      <trkpt lat="50.20048" lon="3.26108">
        <ele>81</ele>
        <time>2014-03-02T15:13:03Z</time>
      </trkpt>
      <trkpt lat="50.20045" lon="3.26106">
        <ele>81</ele>
        <time>2014-03-02T15:13:06Z</time>
      </trkpt>
      <trkpt lat="50.20041" lon="3.26104">
        <ele>81</ele>
        <time>2014-03-02T15:13:09Z</time>
      </trkpt>
      <trkpt lat="50.20039" lon="3.26102">
        <ele>81</ele>
        <time>2014-03-02T15:13:11Z</time>
      </trkpt>
      <trkpt lat="50.20036" lon="3.261">
        <ele>81</ele>
        <time>2014-03-02T15:13:13Z</time>
      </trkpt>
      <trkpt lat="50.20034" lon="3.26099">
        <ele>80</ele>
        <time>2014-03-02T15:13:15Z</time>
      </trkpt>
      <trkpt lat="50.20031" lon="3.26097">
        <ele>82</ele>
        <time>2014-03-02T15:13:17Z</time>
      </trkpt>
      <trkpt lat="50.20028" lon="3.26095">
        <ele>85</ele>
        <time>2014-03-02T15:13:19Z</time>
      </trkpt>
      <trkpt lat="50.20025" lon="3.26092">
        <ele>87</ele>
        <time>2014-03-02T15:13:21Z</time>
      </trkpt>
      <trkpt lat="50.20021" lon="3.2609">
        <ele>87</ele>
        <time>2014-03-02T15:13:23Z</time>
      </trkpt>
      <trkpt lat="50.20019" lon="3.2609">
        <ele>87</ele>
        <time>2014-03-02T15:13:25Z</time>
      </trkpt>
      <trkpt lat="50.20016" lon="3.2609">
        <ele>87</ele>
        <time>2014-03-02T15:13:27Z</time>
      </trkpt>
      <trkpt lat="50.20013" lon="3.26091">
        <ele>86</ele>
        <time>2014-03-02T15:13:29Z</time>
      </trkpt>
      <trkpt lat="50.2001" lon="3.26092">
        <ele>87</ele>
        <time>2014-03-02T15:13:32Z</time>
      </trkpt>
      <trkpt lat="50.20006" lon="3.26089">
        <ele>85</ele>
        <time>2014-03-02T15:13:35Z</time>
      </trkpt>
      <trkpt lat="50.20003" lon="3.26086">
        <ele>84</ele>
        <time>2014-03-02T15:13:38Z</time>
      </trkpt>
      <trkpt lat="50.2" lon="3.26083">
        <ele>83</ele>
        <time>2014-03-02T15:13:41Z</time>
      </trkpt>
      <trkpt lat="50.19996" lon="3.26081">
        <ele>82</ele>
        <time>2014-03-02T15:13:44Z</time>
      </trkpt>
      <trkpt lat="50.19992" lon="3.26079">
        <ele>83</ele>
        <time>2014-03-02T15:13:47Z</time>
      </trkpt>
      <trkpt lat="50.1999" lon="3.26077">
        <ele>84</ele>
        <time>2014-03-02T15:13:49Z</time>
      </trkpt>
      <trkpt lat="50.19987" lon="3.26077">
        <ele>85</ele>
        <time>2014-03-02T15:13:51Z</time>
      </trkpt>
      <trkpt lat="50.19984" lon="3.26076">
        <ele>84</ele>
        <time>2014-03-02T15:13:53Z</time>
      </trkpt>
      <trkpt lat="50.19981" lon="3.26075">
        <ele>84</ele>
        <time>2014-03-02T15:13:55Z</time>
      </trkpt>
      <trkpt lat="50.19978" lon="3.26074">
        <ele>84</ele>
        <time>2014-03-02T15:13:57Z</time>
      </trkpt>
      <trkpt lat="50.19975" lon="3.26072">
        <ele>83</ele>
        <time>2014-03-02T15:14:00Z</time>
      </trkpt>
      <trkpt lat="50.19971" lon="3.2607">
        <ele>84</ele>
        <time>2014-03-02T15:14:03Z</time>
      </trkpt>
      <trkpt lat="50.19968" lon="3.26068">
        <ele>82</ele>
        <time>2014-03-02T15:14:06Z</time>
      </trkpt>
      <trkpt lat="50.19964" lon="3.26067">
        <ele>82</ele>
        <time>2014-03-02T15:14:09Z</time>
      </trkpt>
      <trkpt lat="50.19961" lon="3.26064">
        <ele>82</ele>
        <time>2014-03-02T15:14:12Z</time>
      </trkpt>
      <trkpt lat="50.19958" lon="3.26061">
        <ele>82</ele>
        <time>2014-03-02T15:14:14Z</time>
      </trkpt>
      <trkpt lat="50.19956" lon="3.26059">
        <ele>82</ele>
        <time>2014-03-02T15:14:16Z</time>
      </trkpt>
      <trkpt lat="50.19953" lon="3.26058">
        <ele>82</ele>
        <time>2014-03-02T15:14:18Z</time>
      </trkpt>
      <trkpt lat="50.1995" lon="3.26056">
        <ele>82</ele>
        <time>2014-03-02T15:14:21Z</time>
      </trkpt>
      <trkpt lat="50.19947" lon="3.26054">
        <ele>83</ele>
        <time>2014-03-02T15:14:23Z</time>
      </trkpt>
      <trkpt lat="50.19945" lon="3.26052">
        <ele>83</ele>
        <time>2014-03-02T15:14:25Z</time>
      </trkpt>
      <trkpt lat="50.19942" lon="3.26051">
        <ele>83</ele>
        <time>2014-03-02T15:14:27Z</time>
      </trkpt>
      <trkpt lat="50.19936" lon="3.26046">
        <ele>82</ele>
        <time>2014-03-02T15:14:32Z</time>
      </trkpt>
      <trkpt lat="50.19933" lon="3.26044">
        <ele>82</ele>
        <time>2014-03-02T15:14:35Z</time>
      </trkpt>
      <trkpt lat="50.1993" lon="3.2604">
        <ele>84</ele>
        <time>2014-03-02T15:14:38Z</time>
      </trkpt>
      <trkpt lat="50.19927" lon="3.26037">
        <ele>87</ele>
        <time>2014-03-02T15:14:41Z</time>
      </trkpt>
      <trkpt lat="50.19923" lon="3.26034">
        <ele>85</ele>
        <time>2014-03-02T15:14:44Z</time>
      </trkpt>
      <trkpt lat="50.1992" lon="3.26032">
        <ele>85</ele>
        <time>2014-03-02T15:14:47Z</time>
      </trkpt>
      <trkpt lat="50.19917" lon="3.26029">
        <ele>86</ele>
        <time>2014-03-02T15:14:50Z</time>
      </trkpt>
      <trkpt lat="50.19913" lon="3.26027">
        <ele>87</ele>
        <time>2014-03-02T15:14:53Z</time>
      </trkpt>
      <trkpt lat="50.1991" lon="3.26025">
        <ele>86</ele>
        <time>2014-03-02T15:14:56Z</time>
      </trkpt>
      <trkpt lat="50.19907" lon="3.26026">
        <ele>87</ele>
        <time>2014-03-02T15:14:59Z</time>
      </trkpt>
      <trkpt lat="50.19903" lon="3.26026">
        <ele>88</ele>
        <time>2014-03-02T15:15:02Z</time>
      </trkpt>
      <trkpt lat="50.199" lon="3.26025">
        <ele>83</ele>
        <time>2014-03-02T15:15:05Z</time>
      </trkpt>
      <trkpt lat="50.19897" lon="3.26024">
        <ele>85</ele>
        <time>2014-03-02T15:15:08Z</time>
      </trkpt>
      <trkpt lat="50.19894" lon="3.26023">
        <ele>84</ele>
        <time>2014-03-02T15:15:11Z</time>
      </trkpt>
      <trkpt lat="50.19891" lon="3.26021">
        <ele>83</ele>
        <time>2014-03-02T15:15:14Z</time>
      </trkpt>
      <trkpt lat="50.19888" lon="3.2602">
        <ele>83</ele>
        <time>2014-03-02T15:15:17Z</time>
      </trkpt>
      <trkpt lat="50.19885" lon="3.26019">
        <ele>83</ele>
        <time>2014-03-02T15:15:20Z</time>
      </trkpt>
      <trkpt lat="50.19881" lon="3.26017">
        <ele>81</ele>
        <time>2014-03-02T15:15:23Z</time>
      </trkpt>
      <trkpt lat="50.19878" lon="3.26016">
        <ele>81</ele>
        <time>2014-03-02T15:15:26Z</time>
      </trkpt>
      <trkpt lat="50.19875" lon="3.26014">
        <ele>82</ele>
        <time>2014-03-02T15:15:28Z</time>
      </trkpt>
      <trkpt lat="50.19872" lon="3.26012">
        <ele>82</ele>
        <time>2014-03-02T15:15:30Z</time>
      </trkpt>
      <trkpt lat="50.1987" lon="3.2601">
        <ele>81</ele>
        <time>2014-03-02T15:15:32Z</time>
      </trkpt>
      <trkpt lat="50.19866" lon="3.26011">
        <ele>77</ele>
        <time>2014-03-02T15:15:35Z</time>
      </trkpt>
      <trkpt lat="50.19863" lon="3.26011">
        <ele>76</ele>
        <time>2014-03-02T15:15:38Z</time>
      </trkpt>
      <trkpt lat="50.1986" lon="3.2601">
        <ele>74</ele>
        <time>2014-03-02T15:15:41Z</time>
      </trkpt>
      <trkpt lat="50.19857" lon="3.2601">
        <ele>73</ele>
        <time>2014-03-02T15:15:44Z</time>
      </trkpt>
      <trkpt lat="50.19853" lon="3.26009">
        <ele>73</ele>
        <time>2014-03-02T15:15:47Z</time>
      </trkpt>
      <trkpt lat="50.1985" lon="3.26007">
        <ele>72</ele>
        <time>2014-03-02T15:15:50Z</time>
      </trkpt>
      <trkpt lat="50.19846" lon="3.26008">
        <ele>71</ele>
        <time>2014-03-02T15:15:53Z</time>
      </trkpt>
      <trkpt lat="50.19843" lon="3.26006">
        <ele>72</ele>
        <time>2014-03-02T15:15:56Z</time>
      </trkpt>
      <trkpt lat="50.1984" lon="3.26002">
        <ele>72</ele>
        <time>2014-03-02T15:15:59Z</time>
      </trkpt>
      <trkpt lat="50.19837" lon="3.26">
        <ele>72</ele>
        <time>2014-03-02T15:16:02Z</time>
      </trkpt>
      <trkpt lat="50.19833" lon="3.25999">
        <ele>73</ele>
        <time>2014-03-02T15:16:05Z</time>
      </trkpt>
      <trkpt lat="50.1983" lon="3.25998">
        <ele>74</ele>
        <time>2014-03-02T15:16:08Z</time>
      </trkpt>
      <trkpt lat="50.19827" lon="3.25998">
        <ele>73</ele>
        <time>2014-03-02T15:16:11Z</time>
      </trkpt>
      <trkpt lat="50.19825" lon="3.25994">
        <ele>76</ele>
        <time>2014-03-02T15:16:13Z</time>
      </trkpt>
      <trkpt lat="50.19822" lon="3.2599">
        <ele>78</ele>
        <time>2014-03-02T15:16:16Z</time>
      </trkpt>
      <trkpt lat="50.19819" lon="3.25988">
        <ele>79</ele>
        <time>2014-03-02T15:16:20Z</time>
      </trkpt>
      <trkpt lat="50.19816" lon="3.25986">
        <ele>80</ele>
        <time>2014-03-02T15:16:23Z</time>
      </trkpt>
      <trkpt lat="50.19814" lon="3.25983">
        <ele>80</ele>
        <time>2014-03-02T15:16:25Z</time>
      </trkpt>
      <trkpt lat="50.19811" lon="3.25981">
        <ele>81</ele>
        <time>2014-03-02T15:16:28Z</time>
      </trkpt>
      <trkpt lat="50.19808" lon="3.2598">
        <ele>80</ele>
        <time>2014-03-02T15:16:31Z</time>
      </trkpt>
      <trkpt lat="50.19805" lon="3.2598">
        <ele>79</ele>
        <time>2014-03-02T15:16:34Z</time>
      </trkpt>
      <trkpt lat="50.19801" lon="3.25978">
        <ele>80</ele>
        <time>2014-03-02T15:16:37Z</time>
      </trkpt>
      <trkpt lat="50.19799" lon="3.25976">
        <ele>79</ele>
        <time>2014-03-02T15:16:39Z</time>
      </trkpt>
      <trkpt lat="50.19796" lon="3.25974">
        <ele>79</ele>
        <time>2014-03-02T15:16:41Z</time>
      </trkpt>
      <trkpt lat="50.19793" lon="3.25974">
        <ele>75</ele>
        <time>2014-03-02T15:16:44Z</time>
      </trkpt>
      <trkpt lat="50.1979" lon="3.25973">
        <ele>74</ele>
        <time>2014-03-02T15:16:47Z</time>
      </trkpt>
      <trkpt lat="50.19787" lon="3.25971">
        <ele>73</ele>
        <time>2014-03-02T15:16:50Z</time>
      </trkpt>
      <trkpt lat="50.19784" lon="3.25971">
        <ele>72</ele>
        <time>2014-03-02T15:16:55Z</time>
      </trkpt>
      <trkpt lat="50.1978" lon="3.25968">
        <ele>75</ele>
        <time>2014-03-02T15:16:58Z</time>
      </trkpt>
      <trkpt lat="50.19778" lon="3.25966">
        <ele>74</ele>
        <time>2014-03-02T15:17:00Z</time>
      </trkpt>
      <trkpt lat="50.19775" lon="3.25965">
        <ele>74</ele>
        <time>2014-03-02T15:17:02Z</time>
      </trkpt>
      <trkpt lat="50.19772" lon="3.25964">
        <ele>76</ele>
        <time>2014-03-02T15:17:04Z</time>
      </trkpt>
      <trkpt lat="50.19769" lon="3.25961">
        <ele>77</ele>
        <time>2014-03-02T15:17:06Z</time>
      </trkpt>
      <trkpt lat="50.19765" lon="3.25958">
        <ele>77</ele>
        <time>2014-03-02T15:17:08Z</time>
      </trkpt>
      <trkpt lat="50.19762" lon="3.25957">
        <ele>75</ele>
        <time>2014-03-02T15:17:10Z</time>
      </trkpt>
      <trkpt lat="50.1976" lon="3.25956">
        <ele>76</ele>
        <time>2014-03-02T15:17:12Z</time>
      </trkpt>
      <trkpt lat="50.19757" lon="3.25953">
        <ele>77</ele>
        <time>2014-03-02T15:17:14Z</time>
      </trkpt>
      <trkpt lat="50.19751" lon="3.25948">
        <ele>76</ele>
        <time>2014-03-02T15:17:18Z</time>
      </trkpt>
      <trkpt lat="50.19748" lon="3.25944">
        <ele>76</ele>
        <time>2014-03-02T15:17:20Z</time>
      </trkpt>
      <trkpt lat="50.19742" lon="3.25939">
        <ele>75</ele>
        <time>2014-03-02T15:17:24Z</time>
      </trkpt>
      <trkpt lat="50.1974" lon="3.25938">
        <ele>74</ele>
        <time>2014-03-02T15:17:26Z</time>
      </trkpt>
      <trkpt lat="50.19737" lon="3.25936">
        <ele>75</ele>
        <time>2014-03-02T15:17:28Z</time>
      </trkpt>
      <trkpt lat="50.19735" lon="3.25933">
        <ele>76</ele>
        <time>2014-03-02T15:17:30Z</time>
      </trkpt>
      <trkpt lat="50.1973" lon="3.25928">
        <ele>77</ele>
        <time>2014-03-02T15:17:34Z</time>
      </trkpt>
      <trkpt lat="50.19727" lon="3.25925">
        <ele>76</ele>
        <time>2014-03-02T15:17:36Z</time>
      </trkpt>
      <trkpt lat="50.19724" lon="3.25922">
        <ele>75</ele>
        <time>2014-03-02T15:17:39Z</time>
      </trkpt>
      <trkpt lat="50.19722" lon="3.2592">
        <ele>74</ele>
        <time>2014-03-02T15:17:41Z</time>
      </trkpt>
      <trkpt lat="50.19719" lon="3.25917">
        <ele>75</ele>
        <time>2014-03-02T15:17:43Z</time>
      </trkpt>
      <trkpt lat="50.19717" lon="3.25914">
        <ele>76</ele>
        <time>2014-03-02T15:17:45Z</time>
      </trkpt>
      <trkpt lat="50.19714" lon="3.25912">
        <ele>77</ele>
        <time>2014-03-02T15:17:47Z</time>
      </trkpt>
      <trkpt lat="50.19712" lon="3.25909">
        <ele>78</ele>
        <time>2014-03-02T15:17:49Z</time>
      </trkpt>
      <trkpt lat="50.19709" lon="3.25906">
        <ele>78</ele>
        <time>2014-03-02T15:17:52Z</time>
      </trkpt>
      <trkpt lat="50.19706" lon="3.25904">
        <ele>80</ele>
        <time>2014-03-02T15:18:00Z</time>
      </trkpt>
      <trkpt lat="50.19702" lon="3.25901">
        <ele>79</ele>
        <time>2014-03-02T15:18:03Z</time>
      </trkpt>
      <trkpt lat="50.19699" lon="3.25899">
        <ele>78</ele>
        <time>2014-03-02T15:18:06Z</time>
      </trkpt>
      <trkpt lat="50.19696" lon="3.25897">
        <ele>75</ele>
        <time>2014-03-02T15:18:09Z</time>
      </trkpt>
      <trkpt lat="50.19693" lon="3.25895">
        <ele>75</ele>
        <time>2014-03-02T15:18:12Z</time>
      </trkpt>
      <trkpt lat="50.1969" lon="3.25891">
        <ele>76</ele>
        <time>2014-03-02T15:18:15Z</time>
      </trkpt>
      <trkpt lat="50.19687" lon="3.25888">
        <ele>79</ele>
        <time>2014-03-02T15:18:18Z</time>
      </trkpt>
      <trkpt lat="50.19684" lon="3.25885">
        <ele>78</ele>
        <time>2014-03-02T15:18:20Z</time>
      </trkpt>
      <trkpt lat="50.19682" lon="3.25882">
        <ele>78</ele>
        <time>2014-03-02T15:18:22Z</time>
      </trkpt>
      <trkpt lat="50.19679" lon="3.25881">
        <ele>77</ele>
        <time>2014-03-02T15:18:25Z</time>
      </trkpt>
      <trkpt lat="50.19676" lon="3.25876">
        <ele>76</ele>
        <time>2014-03-02T15:18:28Z</time>
      </trkpt>
      <trkpt lat="50.19674" lon="3.25873">
        <ele>76</ele>
        <time>2014-03-02T15:18:31Z</time>
      </trkpt>
      <trkpt lat="50.1967" lon="3.25872">
        <ele>76</ele>
        <time>2014-03-02T15:18:37Z</time>
      </trkpt>
      <trkpt lat="50.19667" lon="3.2587">
        <ele>75</ele>
        <time>2014-03-02T15:18:40Z</time>
      </trkpt>
      <trkpt lat="50.19665" lon="3.25867">
        <ele>74</ele>
        <time>2014-03-02T15:18:43Z</time>
      </trkpt>
      <trkpt lat="50.19663" lon="3.25862">
        <ele>74</ele>
        <time>2014-03-02T15:18:46Z</time>
      </trkpt>
      <trkpt lat="50.1966" lon="3.25858">
        <ele>75</ele>
        <time>2014-03-02T15:18:49Z</time>
      </trkpt>
      <trkpt lat="50.19657" lon="3.25855">
        <ele>76</ele>
        <time>2014-03-02T15:18:52Z</time>
      </trkpt>
      <trkpt lat="50.19655" lon="3.2585">
        <ele>77</ele>
        <time>2014-03-02T15:18:55Z</time>
      </trkpt>
      <trkpt lat="50.19652" lon="3.25846">
        <ele>78</ele>
        <time>2014-03-02T15:18:58Z</time>
      </trkpt>
      <trkpt lat="50.19649" lon="3.25842">
        <ele>77</ele>
        <time>2014-03-02T15:19:01Z</time>
      </trkpt>
      <trkpt lat="50.19646" lon="3.25838">
        <ele>77</ele>
        <time>2014-03-02T15:19:04Z</time>
      </trkpt>
      <trkpt lat="50.19643" lon="3.25836">
        <ele>77</ele>
        <time>2014-03-02T15:19:07Z</time>
      </trkpt>
      <trkpt lat="50.19642" lon="3.25831">
        <ele>80</ele>
        <time>2014-03-02T15:19:14Z</time>
      </trkpt>
      <trkpt lat="50.19639" lon="3.25827">
        <ele>81</ele>
        <time>2014-03-02T15:19:17Z</time>
      </trkpt>
      <trkpt lat="50.19637" lon="3.25822">
        <ele>83</ele>
        <time>2014-03-02T15:19:20Z</time>
      </trkpt>
      <trkpt lat="50.19635" lon="3.2582">
        <ele>83</ele>
        <time>2014-03-02T15:19:22Z</time>
      </trkpt>
      <trkpt lat="50.19632" lon="3.25816">
        <ele>82</ele>
        <time>2014-03-02T15:19:25Z</time>
      </trkpt>
      <trkpt lat="50.1963" lon="3.25813">
        <ele>80</ele>
        <time>2014-03-02T15:19:28Z</time>
      </trkpt>
      <trkpt lat="50.19629" lon="3.25809">
        <ele>82</ele>
        <time>2014-03-02T15:19:33Z</time>
      </trkpt>
      <trkpt lat="50.19626" lon="3.25805">
        <ele>83</ele>
        <time>2014-03-02T15:19:37Z</time>
      </trkpt>
      <trkpt lat="50.19625" lon="3.25801">
        <ele>84</ele>
        <time>2014-03-02T15:19:44Z</time>
      </trkpt>
      <trkpt lat="50.19622" lon="3.25797">
        <ele>83</ele>
        <time>2014-03-02T15:19:47Z</time>
      </trkpt>
      <trkpt lat="50.19619" lon="3.25793">
        <ele>83</ele>
        <time>2014-03-02T15:19:50Z</time>
      </trkpt>
      <trkpt lat="50.19617" lon="3.25791">
        <ele>82</ele>
        <time>2014-03-02T15:19:53Z</time>
      </trkpt>
      <trkpt lat="50.19615" lon="3.25787">
        <ele>81</ele>
        <time>2014-03-02T15:20:03Z</time>
      </trkpt>
      <trkpt lat="50.19613" lon="3.25783">
        <ele>80</ele>
        <time>2014-03-02T15:20:06Z</time>
      </trkpt>
      <trkpt lat="50.19611" lon="3.2578">
        <ele>80</ele>
        <time>2014-03-02T15:20:08Z</time>
      </trkpt>
      <trkpt lat="50.19608" lon="3.25776">
        <ele>79</ele>
        <time>2014-03-02T15:20:12Z</time>
      </trkpt>
      <trkpt lat="50.19606" lon="3.25771">
        <ele>81</ele>
        <time>2014-03-02T15:20:15Z</time>
      </trkpt>
      <trkpt lat="50.19602" lon="3.25764">
        <ele>84</ele>
        <time>2014-03-02T15:20:19Z</time>
      </trkpt>
      <trkpt lat="50.19599" lon="3.2576">
        <ele>82</ele>
        <time>2014-03-02T15:20:22Z</time>
      </trkpt>
      <trkpt lat="50.19597" lon="3.25756">
        <ele>81</ele>
        <time>2014-03-02T15:20:25Z</time>
      </trkpt>
      <trkpt lat="50.19595" lon="3.25752">
        <ele>81</ele>
        <time>2014-03-02T15:20:28Z</time>
      </trkpt>
      <trkpt lat="50.19593" lon="3.25747">
        <ele>82</ele>
        <time>2014-03-02T15:20:31Z</time>
      </trkpt>
      <trkpt lat="50.19591" lon="3.25742">
        <ele>82</ele>
        <time>2014-03-02T15:20:34Z</time>
      </trkpt>
      <trkpt lat="50.19588" lon="3.25738">
        <ele>81</ele>
        <time>2014-03-02T15:20:37Z</time>
      </trkpt>
      <trkpt lat="50.19586" lon="3.25735">
        <ele>80</ele>
        <time>2014-03-02T15:20:39Z</time>
      </trkpt>
      <trkpt lat="50.19584" lon="3.25732">
        <ele>80</ele>
        <time>2014-03-02T15:20:41Z</time>
      </trkpt>
      <trkpt lat="50.19582" lon="3.25727">
        <ele>80</ele>
        <time>2014-03-02T15:20:44Z</time>
      </trkpt>
      <trkpt lat="50.1958" lon="3.25724">
        <ele>81</ele>
        <time>2014-03-02T15:20:46Z</time>
      </trkpt>
      <trkpt lat="50.19578" lon="3.2572">
        <ele>80</ele>
        <time>2014-03-02T15:20:48Z</time>
      </trkpt>
      <trkpt lat="50.19576" lon="3.25717">
        <ele>80</ele>
        <time>2014-03-02T15:20:50Z</time>
      </trkpt>
      <trkpt lat="50.19574" lon="3.25712">
        <ele>77</ele>
        <time>2014-03-02T15:20:53Z</time>
      </trkpt>
      <trkpt lat="50.19572" lon="3.25708">
        <ele>80</ele>
        <time>2014-03-02T15:20:56Z</time>
      </trkpt>
      <trkpt lat="50.19571" lon="3.25704">
        <ele>80</ele>
        <time>2014-03-02T15:20:59Z</time>
      </trkpt>
      <trkpt lat="50.19569" lon="3.25699">
        <ele>80</ele>
        <time>2014-03-02T15:21:02Z</time>
      </trkpt>
      <trkpt lat="50.19569" lon="3.25695">
        <ele>79</ele>
        <time>2014-03-02T15:21:06Z</time>
      </trkpt>
      <trkpt lat="50.19572" lon="3.25694">
        <ele>80</ele>
        <time>2014-03-02T15:21:16Z</time>
      </trkpt>
      <trkpt lat="50.19569" lon="3.25694">
        <ele>77</ele>
        <time>2014-03-02T15:21:31Z</time>
      </trkpt>
      <trkpt lat="50.19566" lon="3.25689">
        <ele>77</ele>
        <time>2014-03-02T15:21:34Z</time>
      </trkpt>
      <trkpt lat="50.19564" lon="3.25686">
        <ele>77</ele>
        <time>2014-03-02T15:21:36Z</time>
      </trkpt>
      <trkpt lat="50.19562" lon="3.25682">
        <ele>79</ele>
        <time>2014-03-02T15:21:39Z</time>
      </trkpt>
      <trkpt lat="50.19561" lon="3.25677">
        <ele>78</ele>
        <time>2014-03-02T15:21:43Z</time>
      </trkpt>
      <trkpt lat="50.1956" lon="3.25673">
        <ele>79</ele>
        <time>2014-03-02T15:21:46Z</time>
      </trkpt>
      <trkpt lat="50.19559" lon="3.25669">
        <ele>80</ele>
        <time>2014-03-02T15:21:50Z</time>
      </trkpt>
      <trkpt lat="50.19556" lon="3.25666">
        <ele>79</ele>
        <time>2014-03-02T15:21:53Z</time>
      </trkpt>
      <trkpt lat="50.19553" lon="3.25664">
        <ele>78</ele>
        <time>2014-03-02T15:21:56Z</time>
      </trkpt>
      <trkpt lat="50.19551" lon="3.25659">
        <ele>77</ele>
        <time>2014-03-02T15:21:59Z</time>
      </trkpt>
      <trkpt lat="50.19549" lon="3.25654">
        <ele>79</ele>
        <time>2014-03-02T15:22:01Z</time>
      </trkpt>
      <trkpt lat="50.19547" lon="3.25649">
        <ele>78</ele>
        <time>2014-03-02T15:22:04Z</time>
      </trkpt>
      <trkpt lat="50.19545" lon="3.25643">
        <ele>80</ele>
        <time>2014-03-02T15:22:07Z</time>
      </trkpt>
      <trkpt lat="50.19544" lon="3.25639">
        <ele>80</ele>
        <time>2014-03-02T15:22:09Z</time>
      </trkpt>
      <trkpt lat="50.19543" lon="3.25635">
        <ele>81</ele>
        <time>2014-03-02T15:22:11Z</time>
      </trkpt>
      <trkpt lat="50.19542" lon="3.2563">
        <ele>82</ele>
        <time>2014-03-02T15:22:13Z</time>
      </trkpt>
      <trkpt lat="50.19541" lon="3.25625">
        <ele>83</ele>
        <time>2014-03-02T15:22:15Z</time>
      </trkpt>
      <trkpt lat="50.1954" lon="3.25621">
        <ele>84</ele>
        <time>2014-03-02T15:22:17Z</time>
      </trkpt>
      <trkpt lat="50.19538" lon="3.25616">
        <ele>84</ele>
        <time>2014-03-02T15:22:19Z</time>
      </trkpt>
      <trkpt lat="50.19537" lon="3.25611">
        <ele>86</ele>
        <time>2014-03-02T15:22:21Z</time>
      </trkpt>
      <trkpt lat="50.19536" lon="3.25607">
        <ele>86</ele>
        <time>2014-03-02T15:22:23Z</time>
      </trkpt>
      <trkpt lat="50.19534" lon="3.25603">
        <ele>85</ele>
        <time>2014-03-02T15:22:25Z</time>
      </trkpt>
      <trkpt lat="50.19533" lon="3.25599">
        <ele>84</ele>
        <time>2014-03-02T15:22:29Z</time>
      </trkpt>
      <trkpt lat="50.19531" lon="3.25594">
        <ele>85</ele>
        <time>2014-03-02T15:22:32Z</time>
      </trkpt>
      <trkpt lat="50.1953" lon="3.25589">
        <ele>83</ele>
        <time>2014-03-02T15:22:35Z</time>
      </trkpt>
      <trkpt lat="50.19528" lon="3.25585">
        <ele>83</ele>
        <time>2014-03-02T15:22:38Z</time>
      </trkpt>
      <trkpt lat="50.19527" lon="3.2558">
        <ele>83</ele>
        <time>2014-03-02T15:22:41Z</time>
      </trkpt>
      <trkpt lat="50.19526" lon="3.25575">
        <ele>83</ele>
        <time>2014-03-02T15:22:44Z</time>
      </trkpt>
      <trkpt lat="50.19526" lon="3.2557">
        <ele>82</ele>
        <time>2014-03-02T15:22:48Z</time>
      </trkpt>
      <trkpt lat="50.19528" lon="3.25567">
        <ele>85</ele>
        <time>2014-03-02T15:22:52Z</time>
      </trkpt>
      <trkpt lat="50.19531" lon="3.25564">
        <ele>85</ele>
        <time>2014-03-02T15:22:55Z</time>
      </trkpt>
      <trkpt lat="50.19533" lon="3.25561">
        <ele>86</ele>
        <time>2014-03-02T15:22:58Z</time>
      </trkpt>
      <trkpt lat="50.19536" lon="3.25557">
        <ele>86</ele>
        <time>2014-03-02T15:23:08Z</time>
      </trkpt>
      <trkpt lat="50.19539" lon="3.25554">
        <ele>86</ele>
        <time>2014-03-02T15:23:11Z</time>
      </trkpt>
      <trkpt lat="50.19543" lon="3.25551">
        <ele>86</ele>
        <time>2014-03-02T15:23:14Z</time>
      </trkpt>
      <trkpt lat="50.19546" lon="3.25548">
        <ele>86</ele>
        <time>2014-03-02T15:23:17Z</time>
      </trkpt>
      <trkpt lat="50.19549" lon="3.25546">
        <ele>86</ele>
        <time>2014-03-02T15:23:19Z</time>
      </trkpt>
      <trkpt lat="50.19552" lon="3.25543">
        <ele>85</ele>
        <time>2014-03-02T15:23:22Z</time>
      </trkpt>
      <trkpt lat="50.19555" lon="3.25541">
        <ele>86</ele>
        <time>2014-03-02T15:23:25Z</time>
      </trkpt>
      <trkpt lat="50.19558" lon="3.25538">
        <ele>87</ele>
        <time>2014-03-02T15:23:28Z</time>
      </trkpt>
      <trkpt lat="50.19562" lon="3.25535">
        <ele>87</ele>
        <time>2014-03-02T15:23:31Z</time>
      </trkpt>
      <trkpt lat="50.19565" lon="3.25535">
        <ele>87</ele>
        <time>2014-03-02T15:23:34Z</time>
      </trkpt>
      <trkpt lat="50.19568" lon="3.25532">
        <ele>89</ele>
        <time>2014-03-02T15:23:37Z</time>
      </trkpt>
      <trkpt lat="50.19571" lon="3.25529">
        <ele>90</ele>
        <time>2014-03-02T15:23:39Z</time>
      </trkpt>
      <trkpt lat="50.19573" lon="3.25527">
        <ele>90</ele>
        <time>2014-03-02T15:23:41Z</time>
      </trkpt>
      <trkpt lat="50.19576" lon="3.25525">
        <ele>89</ele>
        <time>2014-03-02T15:23:43Z</time>
      </trkpt>
      <trkpt lat="50.19579" lon="3.25523">
        <ele>89</ele>
        <time>2014-03-02T15:23:46Z</time>
      </trkpt>
      <trkpt lat="50.19582" lon="3.25524">
        <ele>89</ele>
        <time>2014-03-02T15:23:49Z</time>
      </trkpt>
      <trkpt lat="50.19585" lon="3.25522">
        <ele>91</ele>
        <time>2014-03-02T15:23:52Z</time>
      </trkpt>
      <trkpt lat="50.19588" lon="3.25519">
        <ele>89</ele>
        <time>2014-03-02T15:23:55Z</time>
      </trkpt>
      <trkpt lat="50.19591" lon="3.25518">
        <ele>88</ele>
        <time>2014-03-02T15:23:58Z</time>
      </trkpt>
      <trkpt lat="50.19594" lon="3.25519">
        <ele>88</ele>
        <time>2014-03-02T15:24:01Z</time>
      </trkpt>
      <trkpt lat="50.19597" lon="3.25519">
        <ele>87</ele>
        <time>2014-03-02T15:24:04Z</time>
      </trkpt>
      <trkpt lat="50.19601" lon="3.25519">
        <ele>87</ele>
        <time>2014-03-02T15:24:07Z</time>
      </trkpt>
      <trkpt lat="50.19604" lon="3.25517">
        <ele>87</ele>
        <time>2014-03-02T15:24:10Z</time>
      </trkpt>
      <trkpt lat="50.19608" lon="3.25515">
        <ele>87</ele>
        <time>2014-03-02T15:24:13Z</time>
      </trkpt>
      <trkpt lat="50.19611" lon="3.25514">
        <ele>86</ele>
        <time>2014-03-02T15:24:16Z</time>
      </trkpt>
      <trkpt lat="50.19615" lon="3.25512">
        <ele>86</ele>
        <time>2014-03-02T15:24:19Z</time>
      </trkpt>
      <trkpt lat="50.19618" lon="3.2551">
        <ele>87</ele>
        <time>2014-03-02T15:24:22Z</time>
      </trkpt>
      <trkpt lat="50.19622" lon="3.25507">
        <ele>87</ele>
        <time>2014-03-02T15:24:25Z</time>
      </trkpt>
      <trkpt lat="50.19625" lon="3.25505">
        <ele>87</ele>
        <time>2014-03-02T15:24:28Z</time>
      </trkpt>
      <trkpt lat="50.19628" lon="3.25502">
        <ele>88</ele>
        <time>2014-03-02T15:24:31Z</time>
      </trkpt>
      <trkpt lat="50.19631" lon="3.255">
        <ele>88</ele>
        <time>2014-03-02T15:24:34Z</time>
      </trkpt>
      <trkpt lat="50.19635" lon="3.25497">
        <ele>88</ele>
        <time>2014-03-02T15:24:37Z</time>
      </trkpt>
      <trkpt lat="50.19638" lon="3.25494">
        <ele>88</ele>
        <time>2014-03-02T15:24:40Z</time>
      </trkpt>
      <trkpt lat="50.1964" lon="3.2549">
        <ele>88</ele>
        <time>2014-03-02T15:24:43Z</time>
      </trkpt>
      <trkpt lat="50.19643" lon="3.25486">
        <ele>89</ele>
        <time>2014-03-02T15:24:46Z</time>
      </trkpt>
      <trkpt lat="50.19645" lon="3.25482">
        <ele>88</ele>
        <time>2014-03-02T15:24:49Z</time>
      </trkpt>
      <trkpt lat="50.19647" lon="3.25479">
        <ele>86</ele>
        <time>2014-03-02T15:24:52Z</time>
      </trkpt>
      <trkpt lat="50.1965" lon="3.25478">
        <ele>84</ele>
        <time>2014-03-02T15:24:55Z</time>
      </trkpt>
      <trkpt lat="50.19654" lon="3.25479">
        <ele>82</ele>
        <time>2014-03-02T15:24:58Z</time>
      </trkpt>
      <trkpt lat="50.19657" lon="3.25478">
        <ele>82</ele>
        <time>2014-03-02T15:25:01Z</time>
      </trkpt>
      <trkpt lat="50.1966" lon="3.25478">
        <ele>80</ele>
        <time>2014-03-02T15:25:04Z</time>
      </trkpt>
      <trkpt lat="50.19663" lon="3.25476">
        <ele>78</ele>
        <time>2014-03-02T15:25:07Z</time>
      </trkpt>
      <trkpt lat="50.19666" lon="3.25476">
        <ele>78</ele>
        <time>2014-03-02T15:25:10Z</time>
      </trkpt>
      <trkpt lat="50.19669" lon="3.25474">
        <ele>79</ele>
        <time>2014-03-02T15:25:13Z</time>
      </trkpt>
      <trkpt lat="50.19672" lon="3.25471">
        <ele>80</ele>
        <time>2014-03-02T15:25:16Z</time>
      </trkpt>
      <trkpt lat="50.19675" lon="3.25467">
        <ele>80</ele>
        <time>2014-03-02T15:25:19Z</time>
      </trkpt>
      <trkpt lat="50.19678" lon="3.25464">
        <ele>80</ele>
        <time>2014-03-02T15:25:22Z</time>
      </trkpt>
      <trkpt lat="50.19681" lon="3.25462">
        <ele>80</ele>
        <time>2014-03-02T15:25:24Z</time>
      </trkpt>
      <trkpt lat="50.19684" lon="3.2546">
        <ele>80</ele>
        <time>2014-03-02T15:25:26Z</time>
      </trkpt>
      <trkpt lat="50.19687" lon="3.25457">
        <ele>81</ele>
        <time>2014-03-02T15:25:29Z</time>
      </trkpt>
      <trkpt lat="50.1969" lon="3.25455">
        <ele>80</ele>
        <time>2014-03-02T15:25:32Z</time>
      </trkpt>
      <trkpt lat="50.19693" lon="3.25452">
        <ele>79</ele>
        <time>2014-03-02T15:25:35Z</time>
      </trkpt>
      <trkpt lat="50.19696" lon="3.2545">
        <ele>79</ele>
        <time>2014-03-02T15:25:38Z</time>
      </trkpt>
      <trkpt lat="50.19699" lon="3.25447">
        <ele>79</ele>
        <time>2014-03-02T15:25:41Z</time>
      </trkpt>
      <trkpt lat="50.19702" lon="3.25445">
        <ele>80</ele>
        <time>2014-03-02T15:25:44Z</time>
      </trkpt>
      <trkpt lat="50.19706" lon="3.25444">
        <ele>80</ele>
        <time>2014-03-02T15:25:47Z</time>
      </trkpt>
      <trkpt lat="50.1971" lon="3.25443">
        <ele>80</ele>
        <time>2014-03-02T15:25:50Z</time>
      </trkpt>
      <trkpt lat="50.19712" lon="3.25442">
        <ele>80</ele>
        <time>2014-03-02T15:25:52Z</time>
      </trkpt>
      <trkpt lat="50.19714" lon="3.25439">
        <ele>81</ele>
        <time>2014-03-02T15:25:54Z</time>
      </trkpt>
      <trkpt lat="50.19717" lon="3.25435">
        <ele>82</ele>
        <time>2014-03-02T15:25:57Z</time>
      </trkpt>
      <trkpt lat="50.1972" lon="3.2543">
        <ele>81</ele>
        <time>2014-03-02T15:26:00Z</time>
      </trkpt>
      <trkpt lat="50.19723" lon="3.25428">
        <ele>81</ele>
        <time>2014-03-02T15:26:03Z</time>
      </trkpt>
      <trkpt lat="50.19726" lon="3.25429">
        <ele>81</ele>
        <time>2014-03-02T15:26:05Z</time>
      </trkpt>
      <trkpt lat="50.19729" lon="3.2543">
        <ele>81</ele>
        <time>2014-03-02T15:26:07Z</time>
      </trkpt>
      <trkpt lat="50.19732" lon="3.25433">
        <ele>82</ele>
        <time>2014-03-02T15:26:09Z</time>
      </trkpt>
      <trkpt lat="50.19734" lon="3.25437">
        <ele>81</ele>
        <time>2014-03-02T15:26:11Z</time>
      </trkpt>
      <trkpt lat="50.19737" lon="3.2544">
        <ele>81</ele>
        <time>2014-03-02T15:26:13Z</time>
      </trkpt>
      <trkpt lat="50.1974" lon="3.25443">
        <ele>82</ele>
        <time>2014-03-02T15:26:16Z</time>
      </trkpt>
      <trkpt lat="50.19743" lon="3.25447">
        <ele>83</ele>
        <time>2014-03-02T15:26:19Z</time>
      </trkpt>
      <trkpt lat="50.19747" lon="3.2545">
        <ele>85</ele>
        <time>2014-03-02T15:26:22Z</time>
      </trkpt>
      <trkpt lat="50.19749" lon="3.25452">
        <ele>86</ele>
        <time>2014-03-02T15:26:24Z</time>
      </trkpt>
      <trkpt lat="50.19753" lon="3.25455">
        <ele>83</ele>
        <time>2014-03-02T15:26:27Z</time>
      </trkpt>
      <trkpt lat="50.19755" lon="3.25459">
        <ele>83</ele>
        <time>2014-03-02T15:26:30Z</time>
      </trkpt>
      <trkpt lat="50.19757" lon="3.25462">
        <ele>84</ele>
        <time>2014-03-02T15:26:32Z</time>
      </trkpt>
      <trkpt lat="50.19759" lon="3.25465">
        <ele>85</ele>
        <time>2014-03-02T15:26:34Z</time>
      </trkpt>
      <trkpt lat="50.19761" lon="3.25468">
        <ele>86</ele>
        <time>2014-03-02T15:26:36Z</time>
      </trkpt>
      <trkpt lat="50.19764" lon="3.2547">
        <ele>86</ele>
        <time>2014-03-02T15:26:38Z</time>
      </trkpt>
      <trkpt lat="50.19766" lon="3.25473">
        <ele>87</ele>
        <time>2014-03-02T15:26:40Z</time>
      </trkpt>
      <trkpt lat="50.19768" lon="3.25476">
        <ele>86</ele>
        <time>2014-03-02T15:26:42Z</time>
      </trkpt>
      <trkpt lat="50.19771" lon="3.25479">
        <ele>88</ele>
        <time>2014-03-02T15:26:44Z</time>
      </trkpt>
      <trkpt lat="50.19773" lon="3.25481">
        <ele>88</ele>
        <time>2014-03-02T15:26:46Z</time>
      </trkpt>
      <trkpt lat="50.19776" lon="3.25483">
        <ele>88</ele>
        <time>2014-03-02T15:26:48Z</time>
      </trkpt>
      <trkpt lat="50.19778" lon="3.25486">
        <ele>87</ele>
        <time>2014-03-02T15:26:50Z</time>
      </trkpt>
      <trkpt lat="50.19782" lon="3.25494">
        <ele>86</ele>
        <time>2014-03-02T15:26:55Z</time>
      </trkpt>
      <trkpt lat="50.19784" lon="3.25498">
        <ele>82</ele>
        <time>2014-03-02T15:26:58Z</time>
      </trkpt>
      <trkpt lat="50.19786" lon="3.25502">
        <ele>80</ele>
        <time>2014-03-02T15:27:01Z</time>
      </trkpt>
      <trkpt lat="50.19788" lon="3.25505">
        <ele>83</ele>
        <time>2014-03-02T15:27:04Z</time>
      </trkpt>
      <trkpt lat="50.19791" lon="3.25508">
        <ele>83</ele>
        <time>2014-03-02T15:27:07Z</time>
      </trkpt>
      <trkpt lat="50.19794" lon="3.25511">
        <ele>84</ele>
        <time>2014-03-02T15:27:09Z</time>
      </trkpt>
      <trkpt lat="50.19798" lon="3.25514">
        <ele>84</ele>
        <time>2014-03-02T15:27:12Z</time>
      </trkpt>
      <trkpt lat="50.19801" lon="3.25515">
        <ele>84</ele>
        <time>2014-03-02T15:27:15Z</time>
      </trkpt>
      <trkpt lat="50.19805" lon="3.25516">
        <ele>84</ele>
        <time>2014-03-02T15:27:18Z</time>
      </trkpt>
      <trkpt lat="50.19808" lon="3.25519">
        <ele>86</ele>
        <time>2014-03-02T15:27:21Z</time>
      </trkpt>
      <trkpt lat="50.19811" lon="3.2552">
        <ele>87</ele>
        <time>2014-03-02T15:27:23Z</time>
      </trkpt>
      <trkpt lat="50.19814" lon="3.25523">
        <ele>86</ele>
        <time>2014-03-02T15:27:26Z</time>
      </trkpt>
      <trkpt lat="50.19818" lon="3.25525">
        <ele>86</ele>
        <time>2014-03-02T15:27:29Z</time>
      </trkpt>
      <trkpt lat="50.19821" lon="3.25527">
        <ele>86</ele>
        <time>2014-03-02T15:27:32Z</time>
      </trkpt>
      <trkpt lat="50.19824" lon="3.25529">
        <ele>86</ele>
        <time>2014-03-02T15:27:34Z</time>
      </trkpt>
      <trkpt lat="50.19827" lon="3.2553">
        <ele>87</ele>
        <time>2014-03-02T15:27:36Z</time>
      </trkpt>
      <trkpt lat="50.1983" lon="3.25531">
        <ele>87</ele>
        <time>2014-03-02T15:27:38Z</time>
      </trkpt>
      <trkpt lat="50.19833" lon="3.25533">
        <ele>86</ele>
        <time>2014-03-02T15:27:41Z</time>
      </trkpt>
      <trkpt lat="50.19836" lon="3.25534">
        <ele>84</ele>
        <time>2014-03-02T15:27:44Z</time>
      </trkpt>
      <trkpt lat="50.19839" lon="3.25534">
        <ele>84</ele>
        <time>2014-03-02T15:27:47Z</time>
      </trkpt>
      <trkpt lat="50.19842" lon="3.25534">
        <ele>84</ele>
        <time>2014-03-02T15:27:50Z</time>
      </trkpt>
      <trkpt lat="50.19846" lon="3.25534">
        <ele>84</ele>
        <time>2014-03-02T15:27:53Z</time>
      </trkpt>
      <trkpt lat="50.1985" lon="3.25534">
        <ele>84</ele>
        <time>2014-03-02T15:27:56Z</time>
      </trkpt>
      <trkpt lat="50.19854" lon="3.25533">
        <ele>84</ele>
        <time>2014-03-02T15:27:59Z</time>
      </trkpt>
      <trkpt lat="50.19856" lon="3.25533">
        <ele>84</ele>
        <time>2014-03-02T15:28:01Z</time>
      </trkpt>
      <trkpt lat="50.19862" lon="3.2553">
        <ele>83</ele>
        <time>2014-03-02T15:28:06Z</time>
      </trkpt>
      <trkpt lat="50.19865" lon="3.25529">
        <ele>82</ele>
        <time>2014-03-02T15:28:09Z</time>
      </trkpt>
      <trkpt lat="50.19868" lon="3.25528">
        <ele>81</ele>
        <time>2014-03-02T15:28:12Z</time>
      </trkpt>
      <trkpt lat="50.19872" lon="3.25527">
        <ele>81</ele>
        <time>2014-03-02T15:28:15Z</time>
      </trkpt>
      <trkpt lat="50.19876" lon="3.25527">
        <ele>80</ele>
        <time>2014-03-02T15:28:18Z</time>
      </trkpt>
      <trkpt lat="50.1988" lon="3.25527">
        <ele>81</ele>
        <time>2014-03-02T15:28:21Z</time>
      </trkpt>
      <trkpt lat="50.19882" lon="3.25528">
        <ele>81</ele>
        <time>2014-03-02T15:28:23Z</time>
      </trkpt>
      <trkpt lat="50.19885" lon="3.25529">
        <ele>80</ele>
        <time>2014-03-02T15:28:25Z</time>
      </trkpt>
      <trkpt lat="50.19889" lon="3.25531">
        <ele>81</ele>
        <time>2014-03-02T15:28:28Z</time>
      </trkpt>
      <trkpt lat="50.19892" lon="3.25534">
        <ele>82</ele>
        <time>2014-03-02T15:28:31Z</time>
      </trkpt>
      <trkpt lat="50.19895" lon="3.25538">
        <ele>84</ele>
        <time>2014-03-02T15:28:34Z</time>
      </trkpt>
      <trkpt lat="50.19898" lon="3.25542">
        <ele>84</ele>
        <time>2014-03-02T15:28:37Z</time>
      </trkpt>
      <trkpt lat="50.19901" lon="3.25546">
        <ele>85</ele>
        <time>2014-03-02T15:28:40Z</time>
      </trkpt>
      <trkpt lat="50.19903" lon="3.2555">
        <ele>85</ele>
        <time>2014-03-02T15:28:43Z</time>
      </trkpt>
      <trkpt lat="50.19906" lon="3.25553">
        <ele>87</ele>
        <time>2014-03-02T15:28:46Z</time>
      </trkpt>
      <trkpt lat="50.19909" lon="3.25557">
        <ele>89</ele>
        <time>2014-03-02T15:28:49Z</time>
      </trkpt>
      <trkpt lat="50.19912" lon="3.25559">
        <ele>90</ele>
        <time>2014-03-02T15:28:51Z</time>
      </trkpt>
      <trkpt lat="50.19914" lon="3.25562">
        <ele>90</ele>
        <time>2014-03-02T15:28:53Z</time>
      </trkpt>
      <trkpt lat="50.19916" lon="3.25565">
        <ele>91</ele>
        <time>2014-03-02T15:28:55Z</time>
      </trkpt>
      <trkpt lat="50.19919" lon="3.25568">
        <ele>92</ele>
        <time>2014-03-02T15:28:57Z</time>
      </trkpt>
      <trkpt lat="50.19924" lon="3.25573">
        <ele>92</ele>
        <time>2014-03-02T15:29:01Z</time>
      </trkpt>
      <trkpt lat="50.19927" lon="3.25575">
        <ele>94</ele>
        <time>2014-03-02T15:29:03Z</time>
      </trkpt>
      <trkpt lat="50.19929" lon="3.25579">
        <ele>92</ele>
        <time>2014-03-02T15:29:06Z</time>
      </trkpt>
      <trkpt lat="50.19931" lon="3.25582">
        <ele>94</ele>
        <time>2014-03-02T15:29:08Z</time>
      </trkpt>
      <trkpt lat="50.19934" lon="3.25585">
        <ele>93</ele>
        <time>2014-03-02T15:29:10Z</time>
      </trkpt>
      <trkpt lat="50.19937" lon="3.25589">
        <ele>92</ele>
        <time>2014-03-02T15:29:13Z</time>
      </trkpt>
      <trkpt lat="50.19942" lon="3.25596">
        <ele>92</ele>
        <time>2014-03-02T15:29:18Z</time>
      </trkpt>
      <trkpt lat="50.19944" lon="3.25599">
        <ele>94</ele>
        <time>2014-03-02T15:29:20Z</time>
      </trkpt>
      <trkpt lat="50.19947" lon="3.25601">
        <ele>96</ele>
        <time>2014-03-02T15:29:22Z</time>
      </trkpt>
      <trkpt lat="50.1995" lon="3.25604">
        <ele>98</ele>
        <time>2014-03-02T15:29:24Z</time>
      </trkpt>
      <trkpt lat="50.19953" lon="3.25606">
        <ele>96</ele>
        <time>2014-03-02T15:29:27Z</time>
      </trkpt>
      <trkpt lat="50.19956" lon="3.25609">
        <ele>95</ele>
        <time>2014-03-02T15:29:30Z</time>
      </trkpt>
      <trkpt lat="50.19958" lon="3.25611">
        <ele>96</ele>
        <time>2014-03-02T15:29:32Z</time>
      </trkpt>
      <trkpt lat="50.19961" lon="3.25614">
        <ele>98</ele>
        <time>2014-03-02T15:29:34Z</time>
      </trkpt>
      <trkpt lat="50.19964" lon="3.25616">
        <ele>98</ele>
        <time>2014-03-02T15:29:36Z</time>
      </trkpt>
      <trkpt lat="50.19966" lon="3.25619">
        <ele>99</ele>
        <time>2014-03-02T15:29:38Z</time>
      </trkpt>
      <trkpt lat="50.19969" lon="3.25621">
        <ele>99</ele>
        <time>2014-03-02T15:29:40Z</time>
      </trkpt>
      <trkpt lat="50.19971" lon="3.25623">
        <ele>100</ele>
        <time>2014-03-02T15:29:42Z</time>
      </trkpt>
      <trkpt lat="50.19974" lon="3.25625">
        <ele>101</ele>
        <time>2014-03-02T15:29:44Z</time>
      </trkpt>
      <trkpt lat="50.19977" lon="3.25628">
        <ele>102</ele>
        <time>2014-03-02T15:29:46Z</time>
      </trkpt>
      <trkpt lat="50.1998" lon="3.2563">
        <ele>100</ele>
        <time>2014-03-02T15:29:49Z</time>
      </trkpt>
      <trkpt lat="50.19983" lon="3.25633">
        <ele>100</ele>
        <time>2014-03-02T15:29:52Z</time>
      </trkpt>
      <trkpt lat="50.19985" lon="3.25637">
        <ele>97</ele>
        <time>2014-03-02T15:29:55Z</time>
      </trkpt>
      <trkpt lat="50.19987" lon="3.25641">
        <ele>97</ele>
        <time>2014-03-02T15:29:58Z</time>
      </trkpt>
      <trkpt lat="50.1999" lon="3.25644">
        <ele>97</ele>
        <time>2014-03-02T15:30:01Z</time>
      </trkpt>
      <trkpt lat="50.19992" lon="3.25648">
        <ele>96</ele>
        <time>2014-03-02T15:30:04Z</time>
      </trkpt>
      <trkpt lat="50.19995" lon="3.25651">
        <ele>97</ele>
        <time>2014-03-02T15:30:07Z</time>
      </trkpt>
      <trkpt lat="50.19999" lon="3.25654">
        <ele>97</ele>
        <time>2014-03-02T15:30:10Z</time>
      </trkpt>
      <trkpt lat="50.20002" lon="3.25655">
        <ele>98</ele>
        <time>2014-03-02T15:30:12Z</time>
      </trkpt>
      <trkpt lat="50.20005" lon="3.25658">
        <ele>98</ele>
        <time>2014-03-02T15:30:14Z</time>
      </trkpt>
      <trkpt lat="50.20007" lon="3.2566">
        <ele>98</ele>
        <time>2014-03-02T15:30:16Z</time>
      </trkpt>
      <trkpt lat="50.20011" lon="3.25663">
        <ele>99</ele>
        <time>2014-03-02T15:30:19Z</time>
      </trkpt>
      <trkpt lat="50.20014" lon="3.25666">
        <ele>99</ele>
        <time>2014-03-02T15:30:22Z</time>
      </trkpt>
      <trkpt lat="50.20016" lon="3.25669">
        <ele>100</ele>
        <time>2014-03-02T15:30:24Z</time>
      </trkpt>
      <trkpt lat="50.20019" lon="3.25671">
        <ele>100</ele>
        <time>2014-03-02T15:30:26Z</time>
      </trkpt>
      <trkpt lat="50.20022" lon="3.25674">
        <ele>98</ele>
        <time>2014-03-02T15:30:29Z</time>
      </trkpt>
      <trkpt lat="50.20024" lon="3.25678">
        <ele>98</ele>
        <time>2014-03-02T15:30:32Z</time>
      </trkpt>
      <trkpt lat="50.20027" lon="3.25681">
        <ele>98</ele>
        <time>2014-03-02T15:30:35Z</time>
      </trkpt>
      <trkpt lat="50.2003" lon="3.25683">
        <ele>97</ele>
        <time>2014-03-02T15:30:38Z</time>
      </trkpt>
      <trkpt lat="50.20033" lon="3.25686">
        <ele>97</ele>
        <time>2014-03-02T15:30:41Z</time>
      </trkpt>
      <trkpt lat="50.20036" lon="3.25689">
        <ele>96</ele>
        <time>2014-03-02T15:30:44Z</time>
      </trkpt>
      <trkpt lat="50.20039" lon="3.25692">
        <ele>95</ele>
        <time>2014-03-02T15:30:47Z</time>
      </trkpt>
      <trkpt lat="50.20042" lon="3.25695">
        <ele>94</ele>
        <time>2014-03-02T15:30:50Z</time>
      </trkpt>
      <trkpt lat="50.20044" lon="3.25699">
        <ele>93</ele>
        <time>2014-03-02T15:30:53Z</time>
      </trkpt>
      <trkpt lat="50.20047" lon="3.25703">
        <ele>93</ele>
        <time>2014-03-02T15:30:56Z</time>
      </trkpt>
      <trkpt lat="50.20049" lon="3.25707">
        <ele>94</ele>
        <time>2014-03-02T15:30:59Z</time>
      </trkpt>
      <trkpt lat="50.20052" lon="3.25711">
        <ele>94</ele>
        <time>2014-03-02T15:31:02Z</time>
      </trkpt>
      <trkpt lat="50.20055" lon="3.25713">
        <ele>93</ele>
        <time>2014-03-02T15:31:04Z</time>
      </trkpt>
      <trkpt lat="50.20057" lon="3.25715">
        <ele>93</ele>
        <time>2014-03-02T15:31:06Z</time>
      </trkpt>
      <trkpt lat="50.2006" lon="3.25717">
        <ele>92</ele>
        <time>2014-03-02T15:31:08Z</time>
      </trkpt>
      <trkpt lat="50.20062" lon="3.25721">
        <ele>92</ele>
        <time>2014-03-02T15:31:11Z</time>
      </trkpt>
      <trkpt lat="50.20065" lon="3.25724">
        <ele>92</ele>
        <time>2014-03-02T15:31:14Z</time>
      </trkpt>
      <trkpt lat="50.20067" lon="3.25728">
        <ele>93</ele>
        <time>2014-03-02T15:31:17Z</time>
      </trkpt>
      <trkpt lat="50.2007" lon="3.25732">
        <ele>92</ele>
        <time>2014-03-02T15:31:20Z</time>
      </trkpt>
      <trkpt lat="50.20072" lon="3.25734">
        <ele>94</ele>
        <time>2014-03-02T15:31:22Z</time>
      </trkpt>
      <trkpt lat="50.20075" lon="3.25736">
        <ele>93</ele>
        <time>2014-03-02T15:31:24Z</time>
      </trkpt>
      <trkpt lat="50.20077" lon="3.25738">
        <ele>92</ele>
        <time>2014-03-02T15:31:26Z</time>
      </trkpt>
      <trkpt lat="50.2008" lon="3.25741">
        <ele>93</ele>
        <time>2014-03-02T15:31:28Z</time>
      </trkpt>
      <trkpt lat="50.20082" lon="3.25743">
        <ele>93</ele>
        <time>2014-03-02T15:31:30Z</time>
      </trkpt>
      <trkpt lat="50.20085" lon="3.25745">
        <ele>94</ele>
        <time>2014-03-02T15:31:32Z</time>
      </trkpt>
      <trkpt lat="50.20088" lon="3.25748">
        <ele>95</ele>
        <time>2014-03-02T15:31:34Z</time>
      </trkpt>
      <trkpt lat="50.20091" lon="3.25749">
        <ele>96</ele>
        <time>2014-03-02T15:31:36Z</time>
      </trkpt>
      <trkpt lat="50.20094" lon="3.25752">
        <ele>96</ele>
        <time>2014-03-02T15:31:38Z</time>
      </trkpt>
      <trkpt lat="50.20099" lon="3.25757">
        <ele>95</ele>
        <time>2014-03-02T15:31:42Z</time>
      </trkpt>
      <trkpt lat="50.20101" lon="3.2576">
        <ele>95</ele>
        <time>2014-03-02T15:31:44Z</time>
      </trkpt>
      <trkpt lat="50.20104" lon="3.25764">
        <ele>94</ele>
        <time>2014-03-02T15:31:47Z</time>
      </trkpt>
      <trkpt lat="50.20106" lon="3.25767">
        <ele>94</ele>
        <time>2014-03-02T15:31:49Z</time>
      </trkpt>
      <trkpt lat="50.20109" lon="3.2577">
        <ele>95</ele>
        <time>2014-03-02T15:31:52Z</time>
      </trkpt>
      <trkpt lat="50.20112" lon="3.25774">
        <ele>95</ele>
        <time>2014-03-02T15:31:55Z</time>
      </trkpt>
      <trkpt lat="50.20115" lon="3.25776">
        <ele>96</ele>
        <time>2014-03-02T15:31:57Z</time>
      </trkpt>
      <trkpt lat="50.20118" lon="3.25779">
        <ele>97</ele>
        <time>2014-03-02T15:32:00Z</time>
      </trkpt>
      <trkpt lat="50.20121" lon="3.2578">
        <ele>96</ele>
        <time>2014-03-02T15:32:02Z</time>
      </trkpt>
      <trkpt lat="50.20123" lon="3.25783">
        <ele>97</ele>
        <time>2014-03-02T15:32:04Z</time>
      </trkpt>
      <trkpt lat="50.20126" lon="3.25785">
        <ele>98</ele>
        <time>2014-03-02T15:32:06Z</time>
      </trkpt>
      <trkpt lat="50.20132" lon="3.25791">
        <ele>98</ele>
        <time>2014-03-02T15:32:11Z</time>
      </trkpt>
      <trkpt lat="50.20134" lon="3.25793">
        <ele>100</ele>
        <time>2014-03-02T15:32:13Z</time>
      </trkpt>
      <trkpt lat="50.20137" lon="3.25797">
        <ele>99</ele>
        <time>2014-03-02T15:32:16Z</time>
      </trkpt>
      <trkpt lat="50.2014" lon="3.25801">
        <ele>101</ele>
        <time>2014-03-02T15:32:19Z</time>
      </trkpt>
      <trkpt lat="50.20143" lon="3.25803">
        <ele>103</ele>
        <time>2014-03-02T15:32:21Z</time>
      </trkpt>
      <trkpt lat="50.20146" lon="3.25805">
        <ele>106</ele>
        <time>2014-03-02T15:32:23Z</time>
      </trkpt>
      <trkpt lat="50.2015" lon="3.25809">
        <ele>106</ele>
        <time>2014-03-02T15:32:26Z</time>
      </trkpt>
      <trkpt lat="50.20152" lon="3.25813">
        <ele>106</ele>
        <time>2014-03-02T15:32:29Z</time>
      </trkpt>
      <trkpt lat="50.20155" lon="3.25816">
        <ele>106</ele>
        <time>2014-03-02T15:32:32Z</time>
      </trkpt>
      <trkpt lat="50.20158" lon="3.2582">
        <ele>107</ele>
        <time>2014-03-02T15:32:35Z</time>
      </trkpt>
      <trkpt lat="50.20159" lon="3.25825">
        <ele>106</ele>
        <time>2014-03-02T15:32:39Z</time>
      </trkpt>
      <trkpt lat="50.20161" lon="3.25829">
        <ele>102</ele>
        <time>2014-03-02T15:32:45Z</time>
      </trkpt>
      <trkpt lat="50.20164" lon="3.25831">
        <ele>102</ele>
        <time>2014-03-02T15:32:47Z</time>
      </trkpt>
      <trkpt lat="50.20167" lon="3.25834">
        <ele>101</ele>
        <time>2014-03-02T15:32:49Z</time>
      </trkpt>
      <trkpt lat="50.20169" lon="3.25837">
        <ele>102</ele>
        <time>2014-03-02T15:32:51Z</time>
      </trkpt>
      <trkpt lat="50.20171" lon="3.2584">
        <ele>101</ele>
        <time>2014-03-02T15:32:53Z</time>
      </trkpt>
      <trkpt lat="50.20174" lon="3.25842">
        <ele>102</ele>
        <time>2014-03-02T15:32:55Z</time>
      </trkpt>
      <trkpt lat="50.20176" lon="3.25845">
        <ele>102</ele>
        <time>2014-03-02T15:32:57Z</time>
      </trkpt>
      <trkpt lat="50.20179" lon="3.25849">
        <ele>102</ele>
        <time>2014-03-02T15:32:59Z</time>
      </trkpt>
      <trkpt lat="50.20181" lon="3.25852">
        <ele>105</ele>
        <time>2014-03-02T15:33:01Z</time>
      </trkpt>
      <trkpt lat="50.20184" lon="3.25854">
        <ele>105</ele>
        <time>2014-03-02T15:33:03Z</time>
      </trkpt>
      <trkpt lat="50.20187" lon="3.25857">
        <ele>104</ele>
        <time>2014-03-02T15:33:06Z</time>
      </trkpt>
      <trkpt lat="50.20185" lon="3.2586">
        <ele>94</ele>
        <time>2014-03-02T15:33:11Z</time>
      </trkpt>
      <trkpt lat="50.20186" lon="3.25865">
        <ele>94</ele>
        <time>2014-03-02T15:33:15Z</time>
      </trkpt>
      <trkpt lat="50.20189" lon="3.25868">
        <ele>94</ele>
        <time>2014-03-02T15:33:18Z</time>
      </trkpt>
      <trkpt lat="50.20192" lon="3.25871">
        <ele>96</ele>
        <time>2014-03-02T15:33:21Z</time>
      </trkpt>
      <trkpt lat="50.20195" lon="3.25874">
        <ele>95</ele>
        <time>2014-03-02T15:33:24Z</time>
      </trkpt>
      <trkpt lat="50.20195" lon="3.25879">
        <ele>95</ele>
        <time>2014-03-02T15:33:27Z</time>
      </trkpt>
      <trkpt lat="50.20196" lon="3.25884">
        <ele>91</ele>
        <time>2014-03-02T15:33:31Z</time>
      </trkpt>
      <trkpt lat="50.20198" lon="3.25889">
        <ele>89</ele>
        <time>2014-03-02T15:33:34Z</time>
      </trkpt>
      <trkpt lat="50.202" lon="3.25893">
        <ele>88</ele>
        <time>2014-03-02T15:33:37Z</time>
      </trkpt>
      <trkpt lat="50.20202" lon="3.25898">
        <ele>86</ele>
        <time>2014-03-02T15:33:40Z</time>
      </trkpt>
      <trkpt lat="50.20205" lon="3.25901">
        <ele>85</ele>
        <time>2014-03-02T15:33:43Z</time>
      </trkpt>
      <trkpt lat="50.20207" lon="3.25905">
        <ele>84</ele>
        <time>2014-03-02T15:33:46Z</time>
      </trkpt>
      <trkpt lat="50.20209" lon="3.2591">
        <ele>84</ele>
        <time>2014-03-02T15:33:49Z</time>
      </trkpt>
      <trkpt lat="50.20211" lon="3.25914">
        <ele>84</ele>
        <time>2014-03-02T15:33:52Z</time>
      </trkpt>
      <trkpt lat="50.20214" lon="3.25918">
        <ele>85</ele>
        <time>2014-03-02T15:33:55Z</time>
      </trkpt>
      <trkpt lat="50.20215" lon="3.25922">
        <ele>85</ele>
        <time>2014-03-02T15:33:58Z</time>
      </trkpt>
      <trkpt lat="50.20218" lon="3.25925">
        <ele>86</ele>
        <time>2014-03-02T15:34:01Z</time>
      </trkpt>
      <trkpt lat="50.20222" lon="3.25928">
        <ele>86</ele>
        <time>2014-03-02T15:34:04Z</time>
      </trkpt>
      <trkpt lat="50.20224" lon="3.25931">
        <ele>86</ele>
        <time>2014-03-02T15:34:07Z</time>
      </trkpt>
      <trkpt lat="50.20227" lon="3.25934">
        <ele>86</ele>
        <time>2014-03-02T15:34:10Z</time>
      </trkpt>
      <trkpt lat="50.20229" lon="3.25936">
        <ele>87</ele>
        <time>2014-03-02T15:34:12Z</time>
      </trkpt>
      <trkpt lat="50.20232" lon="3.2594">
        <ele>86</ele>
        <time>2014-03-02T15:34:15Z</time>
      </trkpt>
      <trkpt lat="50.20234" lon="3.25944">
        <ele>90</ele>
        <time>2014-03-02T15:34:26Z</time>
      </trkpt>
      <trkpt lat="50.20238" lon="3.25948">
        <ele>90</ele>
        <time>2014-03-02T15:34:29Z</time>
      </trkpt>
      <trkpt lat="50.20241" lon="3.25951">
        <ele>90</ele>
        <time>2014-03-02T15:34:32Z</time>
      </trkpt>
      <trkpt lat="50.20244" lon="3.25955">
        <ele>90</ele>
        <time>2014-03-02T15:34:35Z</time>
      </trkpt>
      <trkpt lat="50.20247" lon="3.25959">
        <ele>90</ele>
        <time>2014-03-02T15:34:38Z</time>
      </trkpt>
      <trkpt lat="50.20249" lon="3.25963">
        <ele>89</ele>
        <time>2014-03-02T15:34:41Z</time>
      </trkpt>
      <trkpt lat="50.20252" lon="3.25967">
        <ele>89</ele>
        <time>2014-03-02T15:34:44Z</time>
      </trkpt>
      <trkpt lat="50.20255" lon="3.2597">
        <ele>87</ele>
        <time>2014-03-02T15:34:47Z</time>
      </trkpt>
      <trkpt lat="50.20258" lon="3.25973">
        <ele>87</ele>
        <time>2014-03-02T15:34:50Z</time>
      </trkpt>
      <trkpt lat="50.20261" lon="3.25977">
        <ele>87</ele>
        <time>2014-03-02T15:34:53Z</time>
      </trkpt>
      <trkpt lat="50.20263" lon="3.25981">
        <ele>86</ele>
        <time>2014-03-02T15:34:56Z</time>
      </trkpt>
      <trkpt lat="50.20266" lon="3.25983">
        <ele>85</ele>
        <time>2014-03-02T15:34:58Z</time>
      </trkpt>
      <trkpt lat="50.20269" lon="3.25986">
        <ele>85</ele>
        <time>2014-03-02T15:35:00Z</time>
      </trkpt>
      <trkpt lat="50.20272" lon="3.25989">
        <ele>85</ele>
        <time>2014-03-02T15:35:03Z</time>
      </trkpt>
      <trkpt lat="50.20275" lon="3.25992">
        <ele>83</ele>
        <time>2014-03-02T15:35:06Z</time>
      </trkpt>
      <trkpt lat="50.20278" lon="3.25995">
        <ele>84</ele>
        <time>2014-03-02T15:35:09Z</time>
      </trkpt>
      <trkpt lat="50.20281" lon="3.25997">
        <ele>84</ele>
        <time>2014-03-02T15:35:13Z</time>
      </trkpt>
      <trkpt lat="50.20284" lon="3.26">
        <ele>84</ele>
        <time>2014-03-02T15:35:16Z</time>
      </trkpt>
      <trkpt lat="50.20288" lon="3.26002">
        <ele>84</ele>
        <time>2014-03-02T15:35:19Z</time>
      </trkpt>
      <trkpt lat="50.20292" lon="3.26003">
        <ele>85</ele>
        <time>2014-03-02T15:35:21Z</time>
      </trkpt>
      <trkpt lat="50.20296" lon="3.26004">
        <ele>86</ele>
        <time>2014-03-02T15:35:23Z</time>
      </trkpt>
      <trkpt lat="50.20299" lon="3.26005">
        <ele>85</ele>
        <time>2014-03-02T15:35:25Z</time>
      </trkpt>
      <trkpt lat="50.20302" lon="3.26008">
        <ele>83</ele>
        <time>2014-03-02T15:35:28Z</time>
      </trkpt>
      <trkpt lat="50.20304" lon="3.26012">
        <ele>81</ele>
        <time>2014-03-02T15:35:32Z</time>
      </trkpt>
      <trkpt lat="50.20307" lon="3.26015">
        <ele>80</ele>
        <time>2014-03-02T15:35:36Z</time>
      </trkpt>
      <trkpt lat="50.2031" lon="3.26017">
        <ele>80</ele>
        <time>2014-03-02T15:35:39Z</time>
      </trkpt>
      <trkpt lat="50.20312" lon="3.26019">
        <ele>80</ele>
        <time>2014-03-02T15:35:41Z</time>
      </trkpt>
      <trkpt lat="50.20315" lon="3.26022">
        <ele>81</ele>
        <time>2014-03-02T15:35:43Z</time>
      </trkpt>
      <trkpt lat="50.20318" lon="3.26024">
        <ele>81</ele>
        <time>2014-03-02T15:35:45Z</time>
      </trkpt>
      <trkpt lat="50.20321" lon="3.26026">
        <ele>79</ele>
        <time>2014-03-02T15:35:47Z</time>
      </trkpt>
      <trkpt lat="50.20324" lon="3.26028">
        <ele>81</ele>
        <time>2014-03-02T15:35:49Z</time>
      </trkpt>
      <trkpt lat="50.20326" lon="3.2603">
        <ele>80</ele>
        <time>2014-03-02T15:35:51Z</time>
      </trkpt>
      <trkpt lat="50.20329" lon="3.26033">
        <ele>80</ele>
        <time>2014-03-02T15:35:53Z</time>
      </trkpt>
      <trkpt lat="50.20332" lon="3.26035">
        <ele>84</ele>
        <time>2014-03-02T15:35:55Z</time>
      </trkpt>
      <trkpt lat="50.20334" lon="3.26038">
        <ele>85</ele>
        <time>2014-03-02T15:35:57Z</time>
      </trkpt>
      <trkpt lat="50.20336" lon="3.26041">
        <ele>87</ele>
        <time>2014-03-02T15:35:59Z</time>
      </trkpt>
      <trkpt lat="50.20339" lon="3.26045">
        <ele>86</ele>
        <time>2014-03-02T15:36:02Z</time>
      </trkpt>
      <trkpt lat="50.20341" lon="3.2605">
        <ele>85</ele>
        <time>2014-03-02T15:36:05Z</time>
      </trkpt>
      <trkpt lat="50.20343" lon="3.26054">
        <ele>85</ele>
        <time>2014-03-02T15:36:08Z</time>
      </trkpt>
      <trkpt lat="50.20345" lon="3.26059">
        <ele>85</ele>
        <time>2014-03-02T15:36:11Z</time>
      </trkpt>
      <trkpt lat="50.20347" lon="3.26064">
        <ele>86</ele>
        <time>2014-03-02T15:36:14Z</time>
      </trkpt>
      <trkpt lat="50.20351" lon="3.26069">
        <ele>89</ele>
        <time>2014-03-02T15:36:18Z</time>
      </trkpt>
      <trkpt lat="50.20354" lon="3.26073">
        <ele>89</ele>
        <time>2014-03-02T15:36:21Z</time>
      </trkpt>
      <trkpt lat="50.20356" lon="3.26077">
        <ele>89</ele>
        <time>2014-03-02T15:36:24Z</time>
      </trkpt>
      <trkpt lat="50.20358" lon="3.2608">
        <ele>88</ele>
        <time>2014-03-02T15:36:26Z</time>
      </trkpt>
      <trkpt lat="50.20361" lon="3.26082">
        <ele>88</ele>
        <time>2014-03-02T15:36:29Z</time>
      </trkpt>
      <trkpt lat="50.20363" lon="3.26085">
        <ele>88</ele>
        <time>2014-03-02T15:36:31Z</time>
      </trkpt>
      <trkpt lat="50.20366" lon="3.26087">
        <ele>90</ele>
        <time>2014-03-02T15:36:33Z</time>
      </trkpt>
      <trkpt lat="50.20369" lon="3.26089">
        <ele>89</ele>
        <time>2014-03-02T15:36:35Z</time>
      </trkpt>
      <trkpt lat="50.20372" lon="3.26093">
        <ele>88</ele>
        <time>2014-03-02T15:36:38Z</time>
      </trkpt>
      <trkpt lat="50.20374" lon="3.26097">
        <ele>88</ele>
        <time>2014-03-02T15:36:41Z</time>
      </trkpt>
      <trkpt lat="50.20377" lon="3.26102">
        <ele>89</ele>
        <time>2014-03-02T15:36:44Z</time>
      </trkpt>
      <trkpt lat="50.20379" lon="3.26107">
        <ele>88</ele>
        <time>2014-03-02T15:36:47Z</time>
      </trkpt>
      <trkpt lat="50.20381" lon="3.26108">
        <ele>89</ele>
        <time>2014-03-02T15:36:49Z</time>
      </trkpt>
      <trkpt lat="50.20384" lon="3.26113">
        <ele>90</ele>
        <time>2014-03-02T15:36:52Z</time>
      </trkpt>
      <trkpt lat="50.20386" lon="3.26116">
        <ele>91</ele>
        <time>2014-03-02T15:36:54Z</time>
      </trkpt>
      <trkpt lat="50.20389" lon="3.26119">
        <ele>92</ele>
        <time>2014-03-02T15:36:56Z</time>
      </trkpt>
      <trkpt lat="50.20391" lon="3.26122">
        <ele>92</ele>
        <time>2014-03-02T15:36:58Z</time>
      </trkpt>
      <trkpt lat="50.20393" lon="3.26125">
        <ele>92</ele>
        <time>2014-03-02T15:37:00Z</time>
      </trkpt>
      <trkpt lat="50.20396" lon="3.26129">
        <ele>94</ele>
        <time>2014-03-02T15:37:02Z</time>
      </trkpt>
      <trkpt lat="50.20399" lon="3.26131">
        <ele>93</ele>
        <time>2014-03-02T15:37:04Z</time>
      </trkpt>
      <trkpt lat="50.20403" lon="3.26138">
        <ele>93</ele>
        <time>2014-03-02T15:37:08Z</time>
      </trkpt>
      <trkpt lat="50.20405" lon="3.26142">
        <ele>94</ele>
        <time>2014-03-02T15:37:11Z</time>
      </trkpt>
      <trkpt lat="50.20407" lon="3.26146">
        <ele>93</ele>
        <time>2014-03-02T15:37:13Z</time>
      </trkpt>
      <trkpt lat="50.20408" lon="3.2615">
        <ele>90</ele>
        <time>2014-03-02T15:37:15Z</time>
      </trkpt>
      <trkpt lat="50.2041" lon="3.26155">
        <ele>88</ele>
        <time>2014-03-02T15:37:18Z</time>
      </trkpt>
      <trkpt lat="50.20411" lon="3.26159">
        <ele>87</ele>
        <time>2014-03-02T15:37:21Z</time>
      </trkpt>
      <trkpt lat="50.20409" lon="3.26163">
        <ele>92</ele>
        <time>2014-03-02T15:37:28Z</time>
      </trkpt>
      <trkpt lat="50.20412" lon="3.26167">
        <ele>91</ele>
        <time>2014-03-02T15:37:32Z</time>
      </trkpt>
      <trkpt lat="50.20414" lon="3.2617">
        <ele>91</ele>
        <time>2014-03-02T15:37:34Z</time>
      </trkpt>
      <trkpt lat="50.20416" lon="3.26173">
        <ele>91</ele>
        <time>2014-03-02T15:37:36Z</time>
      </trkpt>
      <trkpt lat="50.20418" lon="3.26176">
        <ele>90</ele>
        <time>2014-03-02T15:37:38Z</time>
      </trkpt>
      <trkpt lat="50.2042" lon="3.2618">
        <ele>90</ele>
        <time>2014-03-02T15:37:40Z</time>
      </trkpt>
      <trkpt lat="50.20422" lon="3.26183">
        <ele>89</ele>
        <time>2014-03-02T15:37:42Z</time>
      </trkpt>
      <trkpt lat="50.20424" lon="3.26185">
        <ele>88</ele>
        <time>2014-03-02T15:37:44Z</time>
      </trkpt>
      <trkpt lat="50.20427" lon="3.26189">
        <ele>88</ele>
        <time>2014-03-02T15:37:47Z</time>
      </trkpt>
      <trkpt lat="50.2043" lon="3.26193">
        <ele>88</ele>
        <time>2014-03-02T15:37:50Z</time>
      </trkpt>
      <trkpt lat="50.20432" lon="3.26197">
        <ele>87</ele>
        <time>2014-03-02T15:37:53Z</time>
      </trkpt>
      <trkpt lat="50.20436" lon="3.26199">
        <ele>86</ele>
        <time>2014-03-02T15:37:56Z</time>
      </trkpt>
      <trkpt lat="50.2044" lon="3.26198">
        <ele>86</ele>
        <time>2014-03-02T15:37:59Z</time>
      </trkpt>
      <trkpt lat="50.20443" lon="3.26198">
        <ele>85</ele>
        <time>2014-03-02T15:38:02Z</time>
      </trkpt>
      <trkpt lat="50.20447" lon="3.26197">
        <ele>85</ele>
        <time>2014-03-02T15:38:05Z</time>
      </trkpt>
      <trkpt lat="50.20449" lon="3.26192">
        <ele>83</ele>
        <time>2014-03-02T15:38:08Z</time>
      </trkpt>
      <trkpt lat="50.20451" lon="3.26188">
        <ele>82</ele>
        <time>2014-03-02T15:38:11Z</time>
      </trkpt>
      <trkpt lat="50.20451" lon="3.26183">
        <ele>79</ele>
        <time>2014-03-02T15:38:15Z</time>
      </trkpt>
      <trkpt lat="50.20453" lon="3.26179">
        <ele>78</ele>
        <time>2014-03-02T15:38:18Z</time>
      </trkpt>
      <trkpt lat="50.20457" lon="3.26177">
        <ele>77</ele>
        <time>2014-03-02T15:38:21Z</time>
      </trkpt>
      <trkpt lat="50.2046" lon="3.26177">
        <ele>77</ele>
        <time>2014-03-02T15:38:23Z</time>
      </trkpt>
      <trkpt lat="50.20462" lon="3.26176">
        <ele>77</ele>
        <time>2014-03-02T15:38:25Z</time>
      </trkpt>
      <trkpt lat="50.20465" lon="3.26175">
        <ele>79</ele>
        <time>2014-03-02T15:38:27Z</time>
      </trkpt>
      <trkpt lat="50.20469" lon="3.26174">
        <ele>80</ele>
        <time>2014-03-02T15:38:30Z</time>
      </trkpt>
      <trkpt lat="50.20472" lon="3.26172">
        <ele>80</ele>
        <time>2014-03-02T15:38:32Z</time>
      </trkpt>
      <trkpt lat="50.20474" lon="3.2617">
        <ele>81</ele>
        <time>2014-03-02T15:38:34Z</time>
      </trkpt>
      <trkpt lat="50.20477" lon="3.26167">
        <ele>80</ele>
        <time>2014-03-02T15:38:36Z</time>
      </trkpt>
      <trkpt lat="50.2048" lon="3.26165">
        <ele>80</ele>
        <time>2014-03-02T15:38:39Z</time>
      </trkpt>
      <trkpt lat="50.20483" lon="3.26161">
        <ele>81</ele>
        <time>2014-03-02T15:38:42Z</time>
      </trkpt>
      <trkpt lat="50.20485" lon="3.26155">
        <ele>80</ele>
        <time>2014-03-02T15:38:45Z</time>
      </trkpt>
      <trkpt lat="50.20487" lon="3.26152">
        <ele>80</ele>
        <time>2014-03-02T15:38:47Z</time>
      </trkpt>
      <trkpt lat="50.20488" lon="3.26146">
        <ele>82</ele>
        <time>2014-03-02T15:38:50Z</time>
      </trkpt>
      <trkpt lat="50.2049" lon="3.26142">
        <ele>82</ele>
        <time>2014-03-02T15:38:52Z</time>
      </trkpt>
      <trkpt lat="50.20492" lon="3.26139">
        <ele>83</ele>
        <time>2014-03-02T15:38:54Z</time>
      </trkpt>
      <trkpt lat="50.20493" lon="3.26135">
        <ele>83</ele>
        <time>2014-03-02T15:38:56Z</time>
      </trkpt>
      <trkpt lat="50.20494" lon="3.26131">
        <ele>84</ele>
        <time>2014-03-02T15:38:58Z</time>
      </trkpt>
      <trkpt lat="50.20496" lon="3.26127">
        <ele>85</ele>
        <time>2014-03-02T15:39:00Z</time>
      </trkpt>
      <trkpt lat="50.20498" lon="3.26123">
        <ele>85</ele>
        <time>2014-03-02T15:39:02Z</time>
      </trkpt>
      <trkpt lat="50.205" lon="3.2612">
        <ele>84</ele>
        <time>2014-03-02T15:39:05Z</time>
      </trkpt>
      <trkpt lat="50.20501" lon="3.26116">
        <ele>84</ele>
        <time>2014-03-02T15:39:08Z</time>
      </trkpt>
      <trkpt lat="50.20502" lon="3.26112">
        <ele>85</ele>
        <time>2014-03-02T15:39:10Z</time>
      </trkpt>
      <trkpt lat="50.20503" lon="3.26106">
        <ele>86</ele>
        <time>2014-03-02T15:39:12Z</time>
      </trkpt>
      <trkpt lat="50.20504" lon="3.26101">
        <ele>84</ele>
        <time>2014-03-02T15:39:15Z</time>
      </trkpt>
      <trkpt lat="50.20506" lon="3.26097">
        <ele>84</ele>
        <time>2014-03-02T15:39:18Z</time>
      </trkpt>
      <trkpt lat="50.20508" lon="3.26093">
        <ele>83</ele>
        <time>2014-03-02T15:39:21Z</time>
      </trkpt>
      <trkpt lat="50.2051" lon="3.26089">
        <ele>82</ele>
        <time>2014-03-02T15:39:23Z</time>
      </trkpt>
      <trkpt lat="50.20511" lon="3.26086">
        <ele>81</ele>
        <time>2014-03-02T15:39:25Z</time>
      </trkpt>
      <trkpt lat="50.20513" lon="3.26082">
        <ele>81</ele>
        <time>2014-03-02T15:39:27Z</time>
      </trkpt>
      <trkpt lat="50.20516" lon="3.26074">
        <ele>80</ele>
        <time>2014-03-02T15:39:31Z</time>
      </trkpt>
      <trkpt lat="50.20517" lon="3.2607">
        <ele>80</ele>
        <time>2014-03-02T15:39:33Z</time>
      </trkpt>
      <trkpt lat="50.20519" lon="3.26067">
        <ele>80</ele>
        <time>2014-03-02T15:39:35Z</time>
      </trkpt>
      <trkpt lat="50.2052" lon="3.26062">
        <ele>79</ele>
        <time>2014-03-02T15:39:38Z</time>
      </trkpt>
      <trkpt lat="50.20522" lon="3.26057">
        <ele>78</ele>
        <time>2014-03-02T15:39:41Z</time>
      </trkpt>
      <trkpt lat="50.20523" lon="3.26052">
        <ele>78</ele>
        <time>2014-03-02T15:39:44Z</time>
      </trkpt>
      <trkpt lat="50.20525" lon="3.26047">
        <ele>78</ele>
        <time>2014-03-02T15:39:47Z</time>
      </trkpt>
      <trkpt lat="50.20527" lon="3.26044">
        <ele>79</ele>
        <time>2014-03-02T15:39:50Z</time>
      </trkpt>
      <trkpt lat="50.2053" lon="3.26039">
        <ele>80</ele>
        <time>2014-03-02T15:39:53Z</time>
      </trkpt>
      <trkpt lat="50.20531" lon="3.26035">
        <ele>80</ele>
        <time>2014-03-02T15:39:55Z</time>
      </trkpt>
      <trkpt lat="50.20533" lon="3.26032">
        <ele>81</ele>
        <time>2014-03-02T15:39:57Z</time>
      </trkpt>
      <trkpt lat="50.20537" lon="3.26032">
        <ele>80</ele>
        <time>2014-03-02T15:40:00Z</time>
      </trkpt>
      <trkpt lat="50.2054" lon="3.26032">
        <ele>79</ele>
        <time>2014-03-02T15:40:03Z</time>
      </trkpt>
      <trkpt lat="50.20544" lon="3.26034">
        <ele>79</ele>
        <time>2014-03-02T15:40:07Z</time>
      </trkpt>
      <trkpt lat="50.20547" lon="3.26036">
        <ele>80</ele>
        <time>2014-03-02T15:40:10Z</time>
      </trkpt>
      <trkpt lat="50.2055" lon="3.26039">
        <ele>81</ele>
        <time>2014-03-02T15:40:15Z</time>
      </trkpt>
      <trkpt lat="50.20551" lon="3.26042">
        <ele>82</ele>
        <time>2014-03-02T15:40:18Z</time>
      </trkpt>
      <trkpt lat="50.20553" lon="3.26046">
        <ele>82</ele>
        <time>2014-03-02T15:40:20Z</time>
      </trkpt>
      <trkpt lat="50.20558" lon="3.26052">
        <ele>81</ele>
        <time>2014-03-02T15:40:24Z</time>
      </trkpt>
      <trkpt lat="50.20561" lon="3.26054">
        <ele>81</ele>
        <time>2014-03-02T15:40:26Z</time>
      </trkpt>
      <trkpt lat="50.20564" lon="3.26056">
        <ele>83</ele>
        <time>2014-03-02T15:40:28Z</time>
      </trkpt>
      <trkpt lat="50.20567" lon="3.26058">
        <ele>83</ele>
        <time>2014-03-02T15:40:30Z</time>
      </trkpt>
      <trkpt lat="50.20571" lon="3.2606">
        <ele>83</ele>
        <time>2014-03-02T15:40:32Z</time>
      </trkpt>
      <trkpt lat="50.20573" lon="3.26062">
        <ele>82</ele>
        <time>2014-03-02T15:40:34Z</time>
      </trkpt>
      <trkpt lat="50.20575" lon="3.26066">
        <ele>80</ele>
        <time>2014-03-02T15:40:37Z</time>
      </trkpt>
      <trkpt lat="50.20579" lon="3.26069">
        <ele>80</ele>
        <time>2014-03-02T15:40:40Z</time>
      </trkpt>
      <trkpt lat="50.20582" lon="3.26071">
        <ele>81</ele>
        <time>2014-03-02T15:40:43Z</time>
      </trkpt>
      <trkpt lat="50.20585" lon="3.26074">
        <ele>83</ele>
        <time>2014-03-02T15:40:45Z</time>
      </trkpt>
      <trkpt lat="50.20587" lon="3.26076">
        <ele>82</ele>
        <time>2014-03-02T15:40:47Z</time>
      </trkpt>
      <trkpt lat="50.2059" lon="3.26079">
        <ele>83</ele>
        <time>2014-03-02T15:40:50Z</time>
      </trkpt>
      <trkpt lat="50.20594" lon="3.26082">
        <ele>83</ele>
        <time>2014-03-02T15:40:53Z</time>
      </trkpt>
      <trkpt lat="50.20597" lon="3.26085">
        <ele>83</ele>
        <time>2014-03-02T15:40:56Z</time>
      </trkpt>
      <trkpt lat="50.206" lon="3.26086">
        <ele>84</ele>
        <time>2014-03-02T15:40:59Z</time>
      </trkpt>
      <trkpt lat="50.20604" lon="3.26087">
        <ele>84</ele>
        <time>2014-03-02T15:41:02Z</time>
      </trkpt>
      <trkpt lat="50.20607" lon="3.26087">
        <ele>84</ele>
        <time>2014-03-02T15:41:06Z</time>
      </trkpt>
      <trkpt lat="50.20609" lon="3.26088">
        <ele>83</ele>
        <time>2014-03-02T15:41:08Z</time>
      </trkpt>
      <trkpt lat="50.20612" lon="3.26089">
        <ele>83</ele>
        <time>2014-03-02T15:41:10Z</time>
      </trkpt>
      <trkpt lat="50.20616" lon="3.26091">
        <ele>83</ele>
        <time>2014-03-02T15:41:12Z</time>
      </trkpt>
      <trkpt lat="50.20619" lon="3.26091">
        <ele>84</ele>
        <time>2014-03-02T15:41:14Z</time>
      </trkpt>
      <trkpt lat="50.20622" lon="3.26091">
        <ele>84</ele>
        <time>2014-03-02T15:41:16Z</time>
      </trkpt>
      <trkpt lat="50.20626" lon="3.2609">
        <ele>82</ele>
        <time>2014-03-02T15:41:19Z</time>
      </trkpt>
      <trkpt lat="50.20629" lon="3.2609">
        <ele>79</ele>
        <time>2014-03-02T15:41:24Z</time>
      </trkpt>
      <trkpt lat="50.20632" lon="3.26089">
        <ele>80</ele>
        <time>2014-03-02T15:41:28Z</time>
      </trkpt>
      <trkpt lat="50.20635" lon="3.26089">
        <ele>79</ele>
        <time>2014-03-02T15:41:31Z</time>
      </trkpt>
      <trkpt lat="50.20638" lon="3.26088">
        <ele>78</ele>
        <time>2014-03-02T15:41:34Z</time>
      </trkpt>
      <trkpt lat="50.20641" lon="3.26087">
        <ele>78</ele>
        <time>2014-03-02T15:41:37Z</time>
      </trkpt>
      <trkpt lat="50.20644" lon="3.26085">
        <ele>76</ele>
        <time>2014-03-02T15:41:40Z</time>
      </trkpt>
      <trkpt lat="50.20647" lon="3.26083">
        <ele>75</ele>
        <time>2014-03-02T15:41:44Z</time>
      </trkpt>
      <trkpt lat="50.2065" lon="3.26081">
        <ele>74</ele>
        <time>2014-03-02T15:41:47Z</time>
      </trkpt>
      <trkpt lat="50.20653" lon="3.2608">
        <ele>72</ele>
        <time>2014-03-02T15:41:51Z</time>
      </trkpt>
      <trkpt lat="50.20656" lon="3.26078">
        <ele>73</ele>
        <time>2014-03-02T15:41:54Z</time>
      </trkpt>
      <trkpt lat="50.20658" lon="3.26074">
        <ele>73</ele>
        <time>2014-03-02T15:41:56Z</time>
      </trkpt>
      <trkpt lat="50.20659" lon="3.2607">
        <ele>73</ele>
        <time>2014-03-02T15:41:58Z</time>
      </trkpt>
      <trkpt lat="50.20661" lon="3.26065">
        <ele>73</ele>
        <time>2014-03-02T15:42:00Z</time>
      </trkpt>
      <trkpt lat="50.20664" lon="3.26062">
        <ele>74</ele>
        <time>2014-03-02T15:42:03Z</time>
      </trkpt>
      <trkpt lat="50.20667" lon="3.26061">
        <ele>75</ele>
        <time>2014-03-02T15:42:06Z</time>
      </trkpt>
      <trkpt lat="50.20671" lon="3.2606">
        <ele>76</ele>
        <time>2014-03-02T15:42:08Z</time>
      </trkpt>
      <trkpt lat="50.20675" lon="3.26058">
        <ele>78</ele>
        <time>2014-03-02T15:42:10Z</time>
      </trkpt>
      <trkpt lat="50.20679" lon="3.26058">
        <ele>79</ele>
        <time>2014-03-02T15:42:12Z</time>
      </trkpt>
      <trkpt lat="50.20682" lon="3.26058">
        <ele>81</ele>
        <time>2014-03-02T15:42:14Z</time>
      </trkpt>
      <trkpt lat="50.20685" lon="3.26058">
        <ele>81</ele>
        <time>2014-03-02T15:42:16Z</time>
      </trkpt>
      <trkpt lat="50.20689" lon="3.26058">
        <ele>81</ele>
        <time>2014-03-02T15:42:18Z</time>
      </trkpt>
      <trkpt lat="50.20692" lon="3.26057">
        <ele>83</ele>
        <time>2014-03-02T15:42:20Z</time>
      </trkpt>
      <trkpt lat="50.20696" lon="3.26056">
        <ele>83</ele>
        <time>2014-03-02T15:42:22Z</time>
      </trkpt>
      <trkpt lat="50.20698" lon="3.26057">
        <ele>82</ele>
        <time>2014-03-02T15:42:24Z</time>
      </trkpt>
      <trkpt lat="50.20701" lon="3.26058">
        <ele>81</ele>
        <time>2014-03-02T15:42:26Z</time>
      </trkpt>
      <trkpt lat="50.20704" lon="3.26058">
        <ele>81</ele>
        <time>2014-03-02T15:42:28Z</time>
      </trkpt>
      <trkpt lat="50.20707" lon="3.26057">
        <ele>82</ele>
        <time>2014-03-02T15:42:30Z</time>
      </trkpt>
      <trkpt lat="50.20711" lon="3.26057">
        <ele>81</ele>
        <time>2014-03-02T15:42:33Z</time>
      </trkpt>
      <trkpt lat="50.20714" lon="3.26056">
        <ele>81</ele>
        <time>2014-03-02T15:42:36Z</time>
      </trkpt>
      <trkpt lat="50.20718" lon="3.26054">
        <ele>83</ele>
        <time>2014-03-02T15:42:39Z</time>
      </trkpt>
      <trkpt lat="50.20721" lon="3.26053">
        <ele>85</ele>
        <time>2014-03-02T15:42:41Z</time>
      </trkpt>
      <trkpt lat="50.20724" lon="3.26052">
        <ele>84</ele>
        <time>2014-03-02T15:42:43Z</time>
      </trkpt>
      <trkpt lat="50.20728" lon="3.26051">
        <ele>85</ele>
        <time>2014-03-02T15:42:45Z</time>
      </trkpt>
      <trkpt lat="50.20731" lon="3.2605">
        <ele>86</ele>
        <time>2014-03-02T15:42:47Z</time>
      </trkpt>
      <trkpt lat="50.20734" lon="3.26049">
        <ele>86</ele>
        <time>2014-03-02T15:42:49Z</time>
      </trkpt>
      <trkpt lat="50.20737" lon="3.26048">
        <ele>87</ele>
        <time>2014-03-02T15:42:51Z</time>
      </trkpt>
      <trkpt lat="50.2074" lon="3.26047">
        <ele>87</ele>
        <time>2014-03-02T15:42:57Z</time>
      </trkpt>
      <trkpt lat="50.20743" lon="3.26045">
        <ele>83</ele>
        <time>2014-03-02T15:43:01Z</time>
      </trkpt>
      <trkpt lat="50.20745" lon="3.26042">
        <ele>83</ele>
        <time>2014-03-02T15:43:04Z</time>
      </trkpt>
      <trkpt lat="50.20748" lon="3.26041">
        <ele>83</ele>
        <time>2014-03-02T15:43:06Z</time>
      </trkpt>
      <trkpt lat="50.20752" lon="3.26041">
        <ele>84</ele>
        <time>2014-03-02T15:43:08Z</time>
      </trkpt>
      <trkpt lat="50.20756" lon="3.26041">
        <ele>86</ele>
        <time>2014-03-02T15:43:10Z</time>
      </trkpt>
      <trkpt lat="50.2076" lon="3.26041">
        <ele>88</ele>
        <time>2014-03-02T15:43:12Z</time>
      </trkpt>
      <trkpt lat="50.20763" lon="3.2604">
        <ele>89</ele>
        <time>2014-03-02T15:43:14Z</time>
      </trkpt>
      <trkpt lat="50.20768" lon="3.26041">
        <ele>87</ele>
        <time>2014-03-02T15:43:16Z</time>
      </trkpt>
      <trkpt lat="50.20771" lon="3.26042">
        <ele>90</ele>
        <time>2014-03-02T15:43:18Z</time>
      </trkpt>
      <trkpt lat="50.20775" lon="3.26043">
        <ele>90</ele>
        <time>2014-03-02T15:43:20Z</time>
      </trkpt>
      <trkpt lat="50.20778" lon="3.26045">
        <ele>86</ele>
        <time>2014-03-02T15:43:22Z</time>
      </trkpt>
      <trkpt lat="50.20782" lon="3.26045">
        <ele>88</ele>
        <time>2014-03-02T15:43:24Z</time>
      </trkpt>
      <trkpt lat="50.20786" lon="3.26046">
        <ele>90</ele>
        <time>2014-03-02T15:43:26Z</time>
      </trkpt>
      <trkpt lat="50.20789" lon="3.26047">
        <ele>92</ele>
        <time>2014-03-02T15:43:28Z</time>
      </trkpt>
      <trkpt lat="50.20793" lon="3.26048">
        <ele>93</ele>
        <time>2014-03-02T15:43:30Z</time>
      </trkpt>
      <trkpt lat="50.20796" lon="3.26048">
        <ele>94</ele>
        <time>2014-03-02T15:43:32Z</time>
      </trkpt>
      <trkpt lat="50.208" lon="3.26049">
        <ele>93</ele>
        <time>2014-03-02T15:43:34Z</time>
      </trkpt>
      <trkpt lat="50.20803" lon="3.26052">
        <ele>90</ele>
        <time>2014-03-02T15:43:38Z</time>
      </trkpt>
      <trkpt lat="50.20806" lon="3.26054">
        <ele>93</ele>
        <time>2014-03-02T15:43:41Z</time>
      </trkpt>
      <trkpt lat="50.20809" lon="3.26056">
        <ele>94</ele>
        <time>2014-03-02T15:43:43Z</time>
      </trkpt>
      <trkpt lat="50.20813" lon="3.26056">
        <ele>92</ele>
        <time>2014-03-02T15:43:46Z</time>
      </trkpt>
      <trkpt lat="50.20816" lon="3.26058">
        <ele>91</ele>
        <time>2014-03-02T15:43:49Z</time>
      </trkpt>
      <trkpt lat="50.20819" lon="3.26059">
        <ele>92</ele>
        <time>2014-03-02T15:43:51Z</time>
      </trkpt>
      <trkpt lat="50.20822" lon="3.26062">
        <ele>92</ele>
        <time>2014-03-02T15:43:54Z</time>
      </trkpt>
      <trkpt lat="50.20825" lon="3.26064">
        <ele>91</ele>
        <time>2014-03-02T15:43:57Z</time>
      </trkpt>
      <trkpt lat="50.20828" lon="3.26066">
        <ele>90</ele>
        <time>2014-03-02T15:44:00Z</time>
      </trkpt>
      <trkpt lat="50.20831" lon="3.26067">
        <ele>92</ele>
        <time>2014-03-02T15:44:03Z</time>
      </trkpt>
      <trkpt lat="50.20834" lon="3.26069">
        <ele>92</ele>
        <time>2014-03-02T15:44:06Z</time>
      </trkpt>
      <trkpt lat="50.20837" lon="3.26071">
        <ele>91</ele>
        <time>2014-03-02T15:44:09Z</time>
      </trkpt>
      <trkpt lat="50.2084" lon="3.26071">
        <ele>92</ele>
        <time>2014-03-02T15:44:11Z</time>
      </trkpt>
      <trkpt lat="50.20843" lon="3.26072">
        <ele>93</ele>
        <time>2014-03-02T15:44:13Z</time>
      </trkpt>
      <trkpt lat="50.20846" lon="3.26073">
        <ele>91</ele>
        <time>2014-03-02T15:44:15Z</time>
      </trkpt>
      <trkpt lat="50.20849" lon="3.26074">
        <ele>92</ele>
        <time>2014-03-02T15:44:17Z</time>
      </trkpt>
      <trkpt lat="50.20851" lon="3.26075">
        <ele>93</ele>
        <time>2014-03-02T15:44:19Z</time>
      </trkpt>
      <trkpt lat="50.20855" lon="3.26076">
        <ele>94</ele>
        <time>2014-03-02T15:44:21Z</time>
      </trkpt>
      <trkpt lat="50.20859" lon="3.26076">
        <ele>96</ele>
        <time>2014-03-02T15:44:23Z</time>
      </trkpt>
      <trkpt lat="50.20862" lon="3.26077">
        <ele>93</ele>
        <time>2014-03-02T15:44:26Z</time>
      </trkpt>
      <trkpt lat="50.20866" lon="3.26078">
        <ele>93</ele>
        <time>2014-03-02T15:44:29Z</time>
      </trkpt>
      <trkpt lat="50.20869" lon="3.26081">
        <ele>93</ele>
        <time>2014-03-02T15:44:32Z</time>
      </trkpt>
      <trkpt lat="50.20873" lon="3.26083">
        <ele>93</ele>
        <time>2014-03-02T15:44:35Z</time>
      </trkpt>
      <trkpt lat="50.20876" lon="3.26084">
        <ele>88</ele>
        <time>2014-03-02T15:44:41Z</time>
      </trkpt>
      <trkpt lat="50.20878" lon="3.26086">
        <ele>87</ele>
        <time>2014-03-02T15:44:46Z</time>
      </trkpt>
      <trkpt lat="50.20881" lon="3.26088">
        <ele>86</ele>
        <time>2014-03-02T15:44:50Z</time>
      </trkpt>
      <trkpt lat="50.20884" lon="3.2609">
        <ele>87</ele>
        <time>2014-03-02T15:44:53Z</time>
      </trkpt>
      <trkpt lat="50.20887" lon="3.26092">
        <ele>88</ele>
        <time>2014-03-02T15:44:55Z</time>
      </trkpt>
      <trkpt lat="50.2089" lon="3.26095">
        <ele>88</ele>
        <time>2014-03-02T15:44:57Z</time>
      </trkpt>
      <trkpt lat="50.20892" lon="3.26097">
        <ele>87</ele>
        <time>2014-03-02T15:44:59Z</time>
      </trkpt>
      <trkpt lat="50.20895" lon="3.26098">
        <ele>87</ele>
        <time>2014-03-02T15:45:01Z</time>
      </trkpt>
      <trkpt lat="50.20899" lon="3.26101">
        <ele>88</ele>
        <time>2014-03-02T15:45:04Z</time>
      </trkpt>
      <trkpt lat="50.20902" lon="3.26103">
        <ele>88</ele>
        <time>2014-03-02T15:45:07Z</time>
      </trkpt>
      <trkpt lat="50.20906" lon="3.26104">
        <ele>89</ele>
        <time>2014-03-02T15:45:10Z</time>
      </trkpt>
      <trkpt lat="50.2091" lon="3.26105">
        <ele>90</ele>
        <time>2014-03-02T15:45:13Z</time>
      </trkpt>
      <trkpt lat="50.20914" lon="3.26105">
        <ele>90</ele>
        <time>2014-03-02T15:45:16Z</time>
      </trkpt>
      <trkpt lat="50.20917" lon="3.26107">
        <ele>90</ele>
        <time>2014-03-02T15:45:19Z</time>
      </trkpt>
      <trkpt lat="50.20919" lon="3.26109">
        <ele>89</ele>
        <time>2014-03-02T15:45:22Z</time>
      </trkpt>
      <trkpt lat="50.20923" lon="3.26109">
        <ele>91</ele>
        <time>2014-03-02T15:45:25Z</time>
      </trkpt>
      <trkpt lat="50.20926" lon="3.26111">
        <ele>90</ele>
        <time>2014-03-02T15:45:28Z</time>
      </trkpt>
      <trkpt lat="50.20929" lon="3.26113">
        <ele>91</ele>
        <time>2014-03-02T15:45:32Z</time>
      </trkpt>
      <trkpt lat="50.20932" lon="3.26114">
        <ele>91</ele>
        <time>2014-03-02T15:45:35Z</time>
      </trkpt>
      <trkpt lat="50.20936" lon="3.26115">
        <ele>92</ele>
        <time>2014-03-02T15:45:38Z</time>
      </trkpt>
      <trkpt lat="50.20939" lon="3.26116">
        <ele>91</ele>
        <time>2014-03-02T15:45:41Z</time>
      </trkpt>
      <trkpt lat="50.20942" lon="3.26118">
        <ele>89</ele>
        <time>2014-03-02T15:45:45Z</time>
      </trkpt>
      <trkpt lat="50.20945" lon="3.26121">
        <ele>90</ele>
        <time>2014-03-02T15:45:48Z</time>
      </trkpt>
      <trkpt lat="50.20949" lon="3.26122">
        <ele>91</ele>
        <time>2014-03-02T15:45:51Z</time>
      </trkpt>
      <trkpt lat="50.20954" lon="3.26125">
        <ele>92</ele>
        <time>2014-03-02T15:45:55Z</time>
      </trkpt>
      <trkpt lat="50.2096" lon="3.26129">
        <ele>91</ele>
        <time>2014-03-02T15:46:00Z</time>
      </trkpt>
      <trkpt lat="50.20964" lon="3.2613">
        <ele>91</ele>
        <time>2014-03-02T15:46:03Z</time>
      </trkpt>
      <trkpt lat="50.20967" lon="3.26133">
        <ele>91</ele>
        <time>2014-03-02T15:46:06Z</time>
      </trkpt>
      <trkpt lat="50.2097" lon="3.26133">
        <ele>91</ele>
        <time>2014-03-02T15:46:08Z</time>
      </trkpt>
      <trkpt lat="50.20973" lon="3.26135">
        <ele>93</ele>
        <time>2014-03-02T15:46:10Z</time>
      </trkpt>
      <trkpt lat="50.20976" lon="3.26136">
        <ele>94</ele>
        <time>2014-03-02T15:46:12Z</time>
      </trkpt>
      <trkpt lat="50.20979" lon="3.26138">
        <ele>94</ele>
        <time>2014-03-02T15:46:14Z</time>
      </trkpt>
      <trkpt lat="50.20982" lon="3.26139">
        <ele>94</ele>
        <time>2014-03-02T15:46:16Z</time>
      </trkpt>
      <trkpt lat="50.20986" lon="3.26141">
        <ele>96</ele>
        <time>2014-03-02T15:46:19Z</time>
      </trkpt>
      <trkpt lat="50.20993" lon="3.26145">
        <ele>97</ele>
        <time>2014-03-02T15:46:23Z</time>
      </trkpt>
      <trkpt lat="50.20996" lon="3.26146">
        <ele>97</ele>
        <time>2014-03-02T15:46:25Z</time>
      </trkpt>
      <trkpt lat="50.20999" lon="3.26147">
        <ele>97</ele>
        <time>2014-03-02T15:46:27Z</time>
      </trkpt>
      <trkpt lat="50.21005" lon="3.26151">
        <ele>97</ele>
        <time>2014-03-02T15:46:32Z</time>
      </trkpt>
      <trkpt lat="50.21008" lon="3.26152">
        <ele>97</ele>
        <time>2014-03-02T15:46:34Z</time>
      </trkpt>
      <trkpt lat="50.21012" lon="3.26154">
        <ele>98</ele>
        <time>2014-03-02T15:46:36Z</time>
      </trkpt>
      <trkpt lat="50.21015" lon="3.26155">
        <ele>97</ele>
        <time>2014-03-02T15:46:38Z</time>
      </trkpt>
      <trkpt lat="50.21018" lon="3.26156">
        <ele>98</ele>
        <time>2014-03-02T15:46:40Z</time>
      </trkpt>
      <trkpt lat="50.21021" lon="3.26158">
        <ele>98</ele>
        <time>2014-03-02T15:46:42Z</time>
      </trkpt>
      <trkpt lat="50.21024" lon="3.26161">
        <ele>98</ele>
        <time>2014-03-02T15:46:45Z</time>
      </trkpt>
      <trkpt lat="50.21027" lon="3.26162">
        <ele>99</ele>
        <time>2014-03-02T15:46:50Z</time>
      </trkpt>
      <trkpt lat="50.21031" lon="3.26163">
        <ele>99</ele>
        <time>2014-03-02T15:46:52Z</time>
      </trkpt>
      <trkpt lat="50.21033" lon="3.26165">
        <ele>98</ele>
        <time>2014-03-02T15:46:54Z</time>
      </trkpt>
      <trkpt lat="50.21036" lon="3.26167">
        <ele>97</ele>
        <time>2014-03-02T15:46:57Z</time>
      </trkpt>
      <trkpt lat="50.21039" lon="3.26168">
        <ele>98</ele>
        <time>2014-03-02T15:46:59Z</time>
      </trkpt>
      <trkpt lat="50.21042" lon="3.2617">
        <ele>99</ele>
        <time>2014-03-02T15:47:01Z</time>
      </trkpt>
      <trkpt lat="50.21047" lon="3.26173">
        <ele>100</ele>
        <time>2014-03-02T15:47:05Z</time>
      </trkpt>
      <trkpt lat="50.2105" lon="3.26174">
        <ele>100</ele>
        <time>2014-03-02T15:47:07Z</time>
      </trkpt>
      <trkpt lat="50.21053" lon="3.26176">
        <ele>100</ele>
        <time>2014-03-02T15:47:09Z</time>
      </trkpt>
      <trkpt lat="50.21056" lon="3.26178">
        <ele>101</ele>
        <time>2014-03-02T15:47:11Z</time>
      </trkpt>
      <trkpt lat="50.21058" lon="3.26179">
        <ele>101</ele>
        <time>2014-03-02T15:47:13Z</time>
      </trkpt>
      <trkpt lat="50.21061" lon="3.26181">
        <ele>101</ele>
        <time>2014-03-02T15:47:15Z</time>
      </trkpt>
      <trkpt lat="50.21064" lon="3.26183">
        <ele>100</ele>
        <time>2014-03-02T15:47:18Z</time>
      </trkpt>
      <trkpt lat="50.21067" lon="3.26184">
        <ele>101</ele>
        <time>2014-03-02T15:47:20Z</time>
      </trkpt>
      <trkpt lat="50.2107" lon="3.26185">
        <ele>102</ele>
        <time>2014-03-02T15:47:22Z</time>
      </trkpt>
      <trkpt lat="50.21074" lon="3.26187">
        <ele>103</ele>
        <time>2014-03-02T15:47:24Z</time>
      </trkpt>
      <trkpt lat="50.21076" lon="3.26188">
        <ele>103</ele>
        <time>2014-03-02T15:47:26Z</time>
      </trkpt>
      <trkpt lat="50.21079" lon="3.2619">
        <ele>104</ele>
        <time>2014-03-02T15:47:28Z</time>
      </trkpt>
      <trkpt lat="50.21082" lon="3.26191">
        <ele>105</ele>
        <time>2014-03-02T15:47:30Z</time>
      </trkpt>
      <trkpt lat="50.21085" lon="3.26193">
        <ele>105</ele>
        <time>2014-03-02T15:47:32Z</time>
      </trkpt>
      <trkpt lat="50.21089" lon="3.26194">
        <ele>106</ele>
        <time>2014-03-02T15:47:34Z</time>
      </trkpt>
      <trkpt lat="50.21092" lon="3.26196">
        <ele>107</ele>
        <time>2014-03-02T15:47:36Z</time>
      </trkpt>
      <trkpt lat="50.21094" lon="3.26197">
        <ele>108</ele>
        <time>2014-03-02T15:47:38Z</time>
      </trkpt>
      <trkpt lat="50.21097" lon="3.26199">
        <ele>107</ele>
        <time>2014-03-02T15:47:40Z</time>
      </trkpt>
      <trkpt lat="50.21101" lon="3.262">
        <ele>107</ele>
        <time>2014-03-02T15:47:43Z</time>
      </trkpt>
      <trkpt lat="50.21104" lon="3.26202">
        <ele>108</ele>
        <time>2014-03-02T15:47:45Z</time>
      </trkpt>
      <trkpt lat="50.21106" lon="3.26203">
        <ele>108</ele>
        <time>2014-03-02T15:47:47Z</time>
      </trkpt>
      <trkpt lat="50.21109" lon="3.26205">
        <ele>108</ele>
        <time>2014-03-02T15:47:49Z</time>
      </trkpt>
      <trkpt lat="50.21112" lon="3.26206">
        <ele>108</ele>
        <time>2014-03-02T15:47:51Z</time>
      </trkpt>
      <trkpt lat="50.21114" lon="3.26208">
        <ele>109</ele>
        <time>2014-03-02T15:47:53Z</time>
      </trkpt>
      <trkpt lat="50.21117" lon="3.2621">
        <ele>109</ele>
        <time>2014-03-02T15:47:55Z</time>
      </trkpt>
      <trkpt lat="50.2112" lon="3.26213">
        <ele>106</ele>
        <time>2014-03-02T15:47:59Z</time>
      </trkpt>
      <trkpt lat="50.21123" lon="3.26216">
        <ele>107</ele>
        <time>2014-03-02T15:48:02Z</time>
      </trkpt>
      <trkpt lat="50.21127" lon="3.26217">
        <ele>109</ele>
        <time>2014-03-02T15:48:04Z</time>
      </trkpt>
      <trkpt lat="50.2113" lon="3.26219">
        <ele>110</ele>
        <time>2014-03-02T15:48:06Z</time>
      </trkpt>
      <trkpt lat="50.21134" lon="3.26221">
        <ele>110</ele>
        <time>2014-03-02T15:48:08Z</time>
      </trkpt>
      <trkpt lat="50.21136" lon="3.26222">
        <ele>109</ele>
        <time>2014-03-02T15:48:10Z</time>
      </trkpt>
      <trkpt lat="50.21139" lon="3.26224">
        <ele>109</ele>
        <time>2014-03-02T15:48:12Z</time>
      </trkpt>
      <trkpt lat="50.21142" lon="3.26227">
        <ele>108</ele>
        <time>2014-03-02T15:48:15Z</time>
      </trkpt>
      <trkpt lat="50.21145" lon="3.26229">
        <ele>108</ele>
        <time>2014-03-02T15:48:18Z</time>
      </trkpt>
      <trkpt lat="50.21149" lon="3.26232">
        <ele>108</ele>
        <time>2014-03-02T15:48:21Z</time>
      </trkpt>
      <trkpt lat="50.21152" lon="3.26233">
        <ele>109</ele>
        <time>2014-03-02T15:48:24Z</time>
      </trkpt>
      <trkpt lat="50.21156" lon="3.26235">
        <ele>109</ele>
        <time>2014-03-02T15:48:27Z</time>
      </trkpt>
      <trkpt lat="50.21161" lon="3.26239">
        <ele>110</ele>
        <time>2014-03-02T15:48:31Z</time>
      </trkpt>
      <trkpt lat="50.21164" lon="3.2624">
        <ele>110</ele>
        <time>2014-03-02T15:48:33Z</time>
      </trkpt>
      <trkpt lat="50.21168" lon="3.26241">
        <ele>109</ele>
        <time>2014-03-02T15:48:36Z</time>
      </trkpt>
      <trkpt lat="50.21171" lon="3.26243">
        <ele>110</ele>
        <time>2014-03-02T15:48:39Z</time>
      </trkpt>
      <trkpt lat="50.21174" lon="3.26246">
        <ele>107</ele>
        <time>2014-03-02T15:48:43Z</time>
      </trkpt>
      <trkpt lat="50.21174" lon="3.26251">
        <ele>101</ele>
        <time>2014-03-02T15:48:51Z</time>
      </trkpt>
      <trkpt lat="50.21177" lon="3.26253">
        <ele>102</ele>
        <time>2014-03-02T15:48:54Z</time>
      </trkpt>
      <trkpt lat="50.2118" lon="3.26254">
        <ele>102</ele>
        <time>2014-03-02T15:48:56Z</time>
      </trkpt>
      <trkpt lat="50.21183" lon="3.26255">
        <ele>102</ele>
        <time>2014-03-02T15:48:58Z</time>
      </trkpt>
      <trkpt lat="50.21185" lon="3.26256">
        <ele>102</ele>
        <time>2014-03-02T15:49:00Z</time>
      </trkpt>
      <trkpt lat="50.21188" lon="3.26257">
        <ele>103</ele>
        <time>2014-03-02T15:49:02Z</time>
      </trkpt>
      <trkpt lat="50.21191" lon="3.26259">
        <ele>103</ele>
        <time>2014-03-02T15:49:04Z</time>
      </trkpt>
      <trkpt lat="50.21194" lon="3.2626">
        <ele>103</ele>
        <time>2014-03-02T15:49:06Z</time>
      </trkpt>
      <trkpt lat="50.21197" lon="3.26262">
        <ele>105</ele>
        <time>2014-03-02T15:49:08Z</time>
      </trkpt>
      <trkpt lat="50.212" lon="3.26264">
        <ele>105</ele>
        <time>2014-03-02T15:49:10Z</time>
      </trkpt>
      <trkpt lat="50.21203" lon="3.26265">
        <ele>107</ele>
        <time>2014-03-02T15:49:12Z</time>
      </trkpt>
      <trkpt lat="50.21206" lon="3.26268">
        <ele>106</ele>
        <time>2014-03-02T15:49:14Z</time>
      </trkpt>
      <trkpt lat="50.21208" lon="3.2627">
        <ele>106</ele>
        <time>2014-03-02T15:49:16Z</time>
      </trkpt>
      <trkpt lat="50.21211" lon="3.26272">
        <ele>106</ele>
        <time>2014-03-02T15:49:19Z</time>
      </trkpt>
      <trkpt lat="50.21215" lon="3.26274">
        <ele>106</ele>
        <time>2014-03-02T15:49:22Z</time>
      </trkpt>
      <trkpt lat="50.21218" lon="3.26276">
        <ele>108</ele>
        <time>2014-03-02T15:49:24Z</time>
      </trkpt>
      <trkpt lat="50.21221" lon="3.26277">
        <ele>108</ele>
        <time>2014-03-02T15:49:26Z</time>
      </trkpt>
      <trkpt lat="50.21224" lon="3.26279">
        <ele>109</ele>
        <time>2014-03-02T15:49:28Z</time>
      </trkpt>
      <trkpt lat="50.21228" lon="3.26281">
        <ele>110</ele>
        <time>2014-03-02T15:49:30Z</time>
      </trkpt>
      <trkpt lat="50.21231" lon="3.26282">
        <ele>111</ele>
        <time>2014-03-02T15:49:32Z</time>
      </trkpt>
      <trkpt lat="50.21234" lon="3.26284">
        <ele>112</ele>
        <time>2014-03-02T15:49:34Z</time>
      </trkpt>
      <trkpt lat="50.21237" lon="3.26286">
        <ele>113</ele>
        <time>2014-03-02T15:49:36Z</time>
      </trkpt>
      <trkpt lat="50.2124" lon="3.26288">
        <ele>108</ele>
        <time>2014-03-02T15:49:39Z</time>
      </trkpt>
      <trkpt lat="50.21242" lon="3.26292">
        <ele>106</ele>
        <time>2014-03-02T15:49:44Z</time>
      </trkpt>
      <trkpt lat="50.21245" lon="3.26295">
        <ele>105</ele>
        <time>2014-03-02T15:49:47Z</time>
      </trkpt>
      <trkpt lat="50.21248" lon="3.26297">
        <ele>106</ele>
        <time>2014-03-02T15:49:50Z</time>
      </trkpt>
      <trkpt lat="50.21251" lon="3.26298">
        <ele>107</ele>
        <time>2014-03-02T15:49:52Z</time>
      </trkpt>
      <trkpt lat="50.21254" lon="3.263">
        <ele>104</ele>
        <time>2014-03-02T15:49:55Z</time>
      </trkpt>
      <trkpt lat="50.21257" lon="3.26303">
        <ele>103</ele>
        <time>2014-03-02T15:49:58Z</time>
      </trkpt>
      <trkpt lat="50.21259" lon="3.26306">
        <ele>101</ele>
        <time>2014-03-02T15:50:02Z</time>
      </trkpt>
      <trkpt lat="50.21262" lon="3.26308">
        <ele>101</ele>
        <time>2014-03-02T15:50:05Z</time>
      </trkpt>
      <trkpt lat="50.21265" lon="3.2631">
        <ele>100</ele>
        <time>2014-03-02T15:50:09Z</time>
      </trkpt>
      <trkpt lat="50.21268" lon="3.26313">
        <ele>100</ele>
        <time>2014-03-02T15:50:12Z</time>
      </trkpt>
      <trkpt lat="50.21271" lon="3.26315">
        <ele>98</ele>
        <time>2014-03-02T15:50:15Z</time>
      </trkpt>
      <trkpt lat="50.21274" lon="3.26317">
        <ele>98</ele>
        <time>2014-03-02T15:50:18Z</time>
      </trkpt>
      <trkpt lat="50.21277" lon="3.26319">
        <ele>98</ele>
        <time>2014-03-02T15:50:21Z</time>
      </trkpt>
      <trkpt lat="50.2128" lon="3.26321">
        <ele>98</ele>
        <time>2014-03-02T15:50:24Z</time>
      </trkpt>
      <trkpt lat="50.21283" lon="3.26323">
        <ele>97</ele>
        <time>2014-03-02T15:50:27Z</time>
      </trkpt>
      <trkpt lat="50.21286" lon="3.26325">
        <ele>97</ele>
        <time>2014-03-02T15:50:30Z</time>
      </trkpt>
      <trkpt lat="50.2129" lon="3.26327">
        <ele>97</ele>
        <time>2014-03-02T15:50:33Z</time>
      </trkpt>
      <trkpt lat="50.21294" lon="3.26329">
        <ele>97</ele>
        <time>2014-03-02T15:50:36Z</time>
      </trkpt>
      <trkpt lat="50.21297" lon="3.26331">
        <ele>97</ele>
        <time>2014-03-02T15:50:39Z</time>
      </trkpt>
      <trkpt lat="50.213" lon="3.26333">
        <ele>95</ele>
        <time>2014-03-02T15:50:42Z</time>
      </trkpt>
      <trkpt lat="50.21303" lon="3.26335">
        <ele>95</ele>
        <time>2014-03-02T15:50:44Z</time>
      </trkpt>
      <trkpt lat="50.21305" lon="3.26336">
        <ele>96</ele>
        <time>2014-03-02T15:50:46Z</time>
      </trkpt>
      <trkpt lat="50.21308" lon="3.26338">
        <ele>96</ele>
        <time>2014-03-02T15:50:49Z</time>
      </trkpt>
      <trkpt lat="50.21312" lon="3.26339">
        <ele>95</ele>
        <time>2014-03-02T15:50:56Z</time>
      </trkpt>
      <trkpt lat="50.21315" lon="3.26341">
        <ele>96</ele>
        <time>2014-03-02T15:50:59Z</time>
      </trkpt>
      <trkpt lat="50.21319" lon="3.26343">
        <ele>96</ele>
        <time>2014-03-02T15:51:02Z</time>
      </trkpt>
      <trkpt lat="50.21322" lon="3.26345">
        <ele>96</ele>
        <time>2014-03-02T15:51:05Z</time>
      </trkpt>
      <trkpt lat="50.21326" lon="3.26347">
        <ele>96</ele>
        <time>2014-03-02T15:51:08Z</time>
      </trkpt>
      <trkpt lat="50.21329" lon="3.26349">
        <ele>96</ele>
        <time>2014-03-02T15:51:11Z</time>
      </trkpt>
      <trkpt lat="50.21332" lon="3.2635">
        <ele>97</ele>
        <time>2014-03-02T15:51:13Z</time>
      </trkpt>
      <trkpt lat="50.21336" lon="3.26353">
        <ele>97</ele>
        <time>2014-03-02T15:51:16Z</time>
      </trkpt>
      <trkpt lat="50.21339" lon="3.26356">
        <ele>96</ele>
        <time>2014-03-02T15:51:19Z</time>
      </trkpt>
      <trkpt lat="50.21342" lon="3.26358">
        <ele>96</ele>
        <time>2014-03-02T15:51:22Z</time>
      </trkpt>
      <trkpt lat="50.21345" lon="3.2636">
        <ele>96</ele>
        <time>2014-03-02T15:51:25Z</time>
      </trkpt>
      <trkpt lat="50.21348" lon="3.26362">
        <ele>96</ele>
        <time>2014-03-02T15:51:28Z</time>
      </trkpt>
      <trkpt lat="50.21352" lon="3.26364">
        <ele>97</ele>
        <time>2014-03-02T15:51:31Z</time>
      </trkpt>
      <trkpt lat="50.21355" lon="3.26366">
        <ele>96</ele>
        <time>2014-03-02T15:51:34Z</time>
      </trkpt>
      <trkpt lat="50.21359" lon="3.26368">
        <ele>97</ele>
        <time>2014-03-02T15:51:37Z</time>
      </trkpt>
      <trkpt lat="50.21362" lon="3.26369">
        <ele>98</ele>
        <time>2014-03-02T15:51:39Z</time>
      </trkpt>
      <trkpt lat="50.21365" lon="3.26371">
        <ele>98</ele>
        <time>2014-03-02T15:51:42Z</time>
      </trkpt>
      <trkpt lat="50.21368" lon="3.26373">
        <ele>98</ele>
        <time>2014-03-02T15:51:45Z</time>
      </trkpt>
      <trkpt lat="50.21371" lon="3.26375">
        <ele>98</ele>
        <time>2014-03-02T15:51:48Z</time>
      </trkpt>
      <trkpt lat="50.21375" lon="3.26376">
        <ele>97</ele>
        <time>2014-03-02T15:51:51Z</time>
      </trkpt>
      <trkpt lat="50.21379" lon="3.26379">
        <ele>96</ele>
        <time>2014-03-02T15:51:54Z</time>
      </trkpt>
      <trkpt lat="50.21382" lon="3.26382">
        <ele>96</ele>
        <time>2014-03-02T15:51:57Z</time>
      </trkpt>
      <trkpt lat="50.21385" lon="3.26383">
        <ele>97</ele>
        <time>2014-03-02T15:51:59Z</time>
      </trkpt>
      <trkpt lat="50.21388" lon="3.26384">
        <ele>97</ele>
        <time>2014-03-02T15:52:01Z</time>
      </trkpt>
      <trkpt lat="50.21391" lon="3.26386">
        <ele>96</ele>
        <time>2014-03-02T15:52:04Z</time>
      </trkpt>
      <trkpt lat="50.21395" lon="3.26387">
        <ele>96</ele>
        <time>2014-03-02T15:52:07Z</time>
      </trkpt>
      <trkpt lat="50.21398" lon="3.26388">
        <ele>97</ele>
        <time>2014-03-02T15:52:09Z</time>
      </trkpt>
      <trkpt lat="50.21402" lon="3.2639">
        <ele>98</ele>
        <time>2014-03-02T15:52:11Z</time>
      </trkpt>
      <trkpt lat="50.21406" lon="3.26391">
        <ele>99</ele>
        <time>2014-03-02T15:52:13Z</time>
      </trkpt>
      <trkpt lat="50.21409" lon="3.26393">
        <ele>99</ele>
        <time>2014-03-02T15:52:15Z</time>
      </trkpt>
      <trkpt lat="50.21412" lon="3.26395">
        <ele>100</ele>
        <time>2014-03-02T15:52:17Z</time>
      </trkpt>
      <trkpt lat="50.21415" lon="3.26396">
        <ele>100</ele>
        <time>2014-03-02T15:52:19Z</time>
      </trkpt>
      <trkpt lat="50.21418" lon="3.26398">
        <ele>100</ele>
        <time>2014-03-02T15:52:21Z</time>
      </trkpt>
      <trkpt lat="50.21421" lon="3.26399">
        <ele>99</ele>
        <time>2014-03-02T15:52:23Z</time>
      </trkpt>
      <trkpt lat="50.21424" lon="3.26401">
        <ele>101</ele>
        <time>2014-03-02T15:52:25Z</time>
      </trkpt>
      <trkpt lat="50.21427" lon="3.26402">
        <ele>100</ele>
        <time>2014-03-02T15:52:27Z</time>
      </trkpt>
      <trkpt lat="50.21432" lon="3.26405">
        <ele>101</ele>
        <time>2014-03-02T15:52:31Z</time>
      </trkpt>
      <trkpt lat="50.21436" lon="3.26406">
        <ele>101</ele>
        <time>2014-03-02T15:52:33Z</time>
      </trkpt>
      <trkpt lat="50.21439" lon="3.26407">
        <ele>102</ele>
        <time>2014-03-02T15:52:35Z</time>
      </trkpt>
      <trkpt lat="50.21442" lon="3.26408">
        <ele>103</ele>
        <time>2014-03-02T15:52:37Z</time>
      </trkpt>
      <trkpt lat="50.21445" lon="3.2641">
        <ele>103</ele>
        <time>2014-03-02T15:52:39Z</time>
      </trkpt>
      <trkpt lat="50.21447" lon="3.26411">
        <ele>103</ele>
        <time>2014-03-02T15:52:41Z</time>
      </trkpt>
      <trkpt lat="50.21451" lon="3.26412">
        <ele>103</ele>
        <time>2014-03-02T15:52:43Z</time>
      </trkpt>
      <trkpt lat="50.21454" lon="3.26413">
        <ele>106</ele>
        <time>2014-03-02T15:52:45Z</time>
      </trkpt>
      <trkpt lat="50.21459" lon="3.26415">
        <ele>105</ele>
        <time>2014-03-02T15:52:47Z</time>
      </trkpt>
      <trkpt lat="50.21462" lon="3.26417">
        <ele>105</ele>
        <time>2014-03-02T15:52:49Z</time>
      </trkpt>
      <trkpt lat="50.21465" lon="3.26419">
        <ele>105</ele>
        <time>2014-03-02T15:52:52Z</time>
      </trkpt>
      <trkpt lat="50.21468" lon="3.2642">
        <ele>106</ele>
        <time>2014-03-02T15:52:54Z</time>
      </trkpt>
      <trkpt lat="50.21472" lon="3.26422">
        <ele>106</ele>
        <time>2014-03-02T15:52:56Z</time>
      </trkpt>
      <trkpt lat="50.21476" lon="3.26423">
        <ele>106</ele>
        <time>2014-03-02T15:52:58Z</time>
      </trkpt>
      <trkpt lat="50.21479" lon="3.26425">
        <ele>105</ele>
        <time>2014-03-02T15:53:00Z</time>
      </trkpt>
      <trkpt lat="50.21481" lon="3.26426">
        <ele>105</ele>
        <time>2014-03-02T15:53:02Z</time>
      </trkpt>
      <trkpt lat="50.21485" lon="3.26428">
        <ele>104</ele>
        <time>2014-03-02T15:53:05Z</time>
      </trkpt>
      <trkpt lat="50.21487" lon="3.26429">
        <ele>105</ele>
        <time>2014-03-02T15:53:07Z</time>
      </trkpt>
      <trkpt lat="50.21491" lon="3.2643">
        <ele>105</ele>
        <time>2014-03-02T15:53:09Z</time>
      </trkpt>
      <trkpt lat="50.21494" lon="3.26431">
        <ele>106</ele>
        <time>2014-03-02T15:53:11Z</time>
      </trkpt>
      <trkpt lat="50.21496" lon="3.26432">
        <ele>107</ele>
        <time>2014-03-02T15:53:13Z</time>
      </trkpt>
      <trkpt lat="50.21499" lon="3.26433">
        <ele>106</ele>
        <time>2014-03-02T15:53:15Z</time>
      </trkpt>
      <trkpt lat="50.21502" lon="3.26434">
        <ele>105</ele>
        <time>2014-03-02T15:53:17Z</time>
      </trkpt>
      <trkpt lat="50.21505" lon="3.26435">
        <ele>106</ele>
        <time>2014-03-02T15:53:19Z</time>
      </trkpt>
      <trkpt lat="50.21506" lon="3.26441">
        <ele>103</ele>
        <time>2014-03-02T15:53:22Z</time>
      </trkpt>
      <trkpt lat="50.21503" lon="3.26444">
        <ele>97</ele>
        <time>2014-03-02T15:53:24Z</time>
      </trkpt>
      <trkpt lat="50.21496" lon="3.26441">
        <ele>96</ele>
        <time>2014-03-02T15:53:27Z</time>
      </trkpt>
      <trkpt lat="50.21493" lon="3.2644">
        <ele>95</ele>
        <time>2014-03-02T15:53:34Z</time>
      </trkpt>
      <trkpt lat="50.21497" lon="3.26439">
        <ele>94</ele>
        <time>2014-03-02T15:54:02Z</time>
      </trkpt>
      <trkpt lat="50.21503" lon="3.26441">
        <ele>92</ele>
        <time>2014-03-02T15:54:04Z</time>
      </trkpt>
      <trkpt lat="50.21512" lon="3.26445">
        <ele>91</ele>
        <time>2014-03-02T15:54:07Z</time>
      </trkpt>
      <trkpt lat="50.21518" lon="3.26448">
        <ele>91</ele>
        <time>2014-03-02T15:54:09Z</time>
      </trkpt>
      <trkpt lat="50.21521" lon="3.26449">
        <ele>90</ele>
        <time>2014-03-02T15:54:10Z</time>
      </trkpt>
      <trkpt lat="50.21526" lon="3.26452">
        <ele>89</ele>
        <time>2014-03-02T15:54:12Z</time>
      </trkpt>
      <trkpt lat="50.21528" lon="3.26454">
        <ele>88</ele>
        <time>2014-03-02T15:54:13Z</time>
      </trkpt>
      <trkpt lat="50.21533" lon="3.26457">
        <ele>89</ele>
        <time>2014-03-02T15:54:15Z</time>
      </trkpt>
      <trkpt lat="50.21537" lon="3.26459">
        <ele>89</ele>
        <time>2014-03-02T15:54:17Z</time>
      </trkpt>
      <trkpt lat="50.21542" lon="3.26461">
        <ele>89</ele>
        <time>2014-03-02T15:54:19Z</time>
      </trkpt>
      <trkpt lat="50.21546" lon="3.26464">
        <ele>88</ele>
        <time>2014-03-02T15:54:21Z</time>
      </trkpt>
      <trkpt lat="50.21551" lon="3.26466">
        <ele>90</ele>
        <time>2014-03-02T15:54:23Z</time>
      </trkpt>
      <trkpt lat="50.21555" lon="3.26467">
        <ele>92</ele>
        <time>2014-03-02T15:54:25Z</time>
      </trkpt>
      <trkpt lat="50.2156" lon="3.26469">
        <ele>92</ele>
        <time>2014-03-02T15:54:27Z</time>
      </trkpt>
      <trkpt lat="50.21565" lon="3.26472">
        <ele>93</ele>
        <time>2014-03-02T15:54:29Z</time>
      </trkpt>
      <trkpt lat="50.21571" lon="3.26474">
        <ele>92</ele>
        <time>2014-03-02T15:54:31Z</time>
      </trkpt>
      <trkpt lat="50.21576" lon="3.26475">
        <ele>92</ele>
        <time>2014-03-02T15:54:33Z</time>
      </trkpt>
      <trkpt lat="50.2158" lon="3.26477">
        <ele>91</ele>
        <time>2014-03-02T15:54:35Z</time>
      </trkpt>
      <trkpt lat="50.21583" lon="3.26478">
        <ele>92</ele>
        <time>2014-03-02T15:54:38Z</time>
      </trkpt>
      <trkpt lat="50.21586" lon="3.2648">
        <ele>92</ele>
        <time>2014-03-02T15:54:41Z</time>
      </trkpt>
      <trkpt lat="50.21589" lon="3.26481">
        <ele>92</ele>
        <time>2014-03-02T15:54:44Z</time>
      </trkpt>
      <trkpt lat="50.21593" lon="3.26483">
        <ele>91</ele>
        <time>2014-03-02T15:54:47Z</time>
      </trkpt>
      <trkpt lat="50.21596" lon="3.26484">
        <ele>92</ele>
        <time>2014-03-02T15:54:49Z</time>
      </trkpt>
      <trkpt lat="50.21599" lon="3.26485">
        <ele>94</ele>
        <time>2014-03-02T15:54:51Z</time>
      </trkpt>
      <trkpt lat="50.21603" lon="3.26485">
        <ele>94</ele>
        <time>2014-03-02T15:54:53Z</time>
      </trkpt>
      <trkpt lat="50.2161" lon="3.26488">
        <ele>97</ele>
        <time>2014-03-02T15:54:57Z</time>
      </trkpt>
      <trkpt lat="50.21614" lon="3.26489">
        <ele>96</ele>
        <time>2014-03-02T15:54:59Z</time>
      </trkpt>
      <trkpt lat="50.2162" lon="3.26492">
        <ele>96</ele>
        <time>2014-03-02T15:55:04Z</time>
      </trkpt>
      <trkpt lat="50.21624" lon="3.26493">
        <ele>97</ele>
        <time>2014-03-02T15:55:07Z</time>
      </trkpt>
      <trkpt lat="50.21627" lon="3.26495">
        <ele>96</ele>
        <time>2014-03-02T15:55:11Z</time>
      </trkpt>
      <trkpt lat="50.2163" lon="3.26496">
        <ele>95</ele>
        <time>2014-03-02T15:55:14Z</time>
      </trkpt>
      <trkpt lat="50.21633" lon="3.26497">
        <ele>97</ele>
        <time>2014-03-02T15:55:17Z</time>
      </trkpt>
      <trkpt lat="50.21636" lon="3.26498">
        <ele>98</ele>
        <time>2014-03-02T15:55:19Z</time>
      </trkpt>
      <trkpt lat="50.21639" lon="3.26498">
        <ele>98</ele>
        <time>2014-03-02T15:55:21Z</time>
      </trkpt>
      <trkpt lat="50.21642" lon="3.26499">
        <ele>97</ele>
        <time>2014-03-02T15:55:23Z</time>
      </trkpt>
      <trkpt lat="50.21645" lon="3.265">
        <ele>98</ele>
        <time>2014-03-02T15:55:25Z</time>
      </trkpt>
      <trkpt lat="50.21647" lon="3.26501">
        <ele>98</ele>
        <time>2014-03-02T15:55:27Z</time>
      </trkpt>
      <trkpt lat="50.2165" lon="3.26502">
        <ele>99</ele>
        <time>2014-03-02T15:55:29Z</time>
      </trkpt>
      <trkpt lat="50.21654" lon="3.26503">
        <ele>99</ele>
        <time>2014-03-02T15:55:32Z</time>
      </trkpt>
      <trkpt lat="50.21657" lon="3.26504">
        <ele>98</ele>
        <time>2014-03-02T15:55:35Z</time>
      </trkpt>
      <trkpt lat="50.2166" lon="3.26505">
        <ele>98</ele>
        <time>2014-03-02T15:55:38Z</time>
      </trkpt>
      <trkpt lat="50.21664" lon="3.26506">
        <ele>99</ele>
        <time>2014-03-02T15:55:41Z</time>
      </trkpt>
      <trkpt lat="50.21667" lon="3.26506">
        <ele>99</ele>
        <time>2014-03-02T15:55:44Z</time>
      </trkpt>
      <trkpt lat="50.2167" lon="3.26507">
        <ele>96</ele>
        <time>2014-03-02T15:55:48Z</time>
      </trkpt>
      <trkpt lat="50.21674" lon="3.26508">
        <ele>97</ele>
        <time>2014-03-02T15:55:51Z</time>
      </trkpt>
      <trkpt lat="50.21678" lon="3.2651">
        <ele>96</ele>
        <time>2014-03-02T15:55:54Z</time>
      </trkpt>
      <trkpt lat="50.21682" lon="3.26511">
        <ele>96</ele>
        <time>2014-03-02T15:55:57Z</time>
      </trkpt>
      <trkpt lat="50.21686" lon="3.26512">
        <ele>96</ele>
        <time>2014-03-02T15:56:00Z</time>
      </trkpt>
      <trkpt lat="50.21689" lon="3.26512">
        <ele>96</ele>
        <time>2014-03-02T15:56:03Z</time>
      </trkpt>
      <trkpt lat="50.21692" lon="3.26513">
        <ele>93</ele>
        <time>2014-03-02T15:56:06Z</time>
      </trkpt>
      <trkpt lat="50.21696" lon="3.26514">
        <ele>89</ele>
        <time>2014-03-02T15:56:12Z</time>
      </trkpt>
      <trkpt lat="50.217" lon="3.26514">
        <ele>90</ele>
        <time>2014-03-02T15:56:16Z</time>
      </trkpt>
      <trkpt lat="50.21704" lon="3.26515">
        <ele>90</ele>
        <time>2014-03-02T15:56:19Z</time>
      </trkpt>
      <trkpt lat="50.21706" lon="3.26516">
        <ele>91</ele>
        <time>2014-03-02T15:56:21Z</time>
      </trkpt>
      <trkpt lat="50.21709" lon="3.26517">
        <ele>91</ele>
        <time>2014-03-02T15:56:23Z</time>
      </trkpt>
      <trkpt lat="50.21712" lon="3.26517">
        <ele>92</ele>
        <time>2014-03-02T15:56:25Z</time>
      </trkpt>
      <trkpt lat="50.21716" lon="3.26518">
        <ele>92</ele>
        <time>2014-03-02T15:56:27Z</time>
      </trkpt>
      <trkpt lat="50.21719" lon="3.26518">
        <ele>92</ele>
        <time>2014-03-02T15:56:29Z</time>
      </trkpt>
      <trkpt lat="50.21725" lon="3.2652">
        <ele>93</ele>
        <time>2014-03-02T15:56:34Z</time>
      </trkpt>
      <trkpt lat="50.21729" lon="3.26521">
        <ele>92</ele>
        <time>2014-03-02T15:56:37Z</time>
      </trkpt>
      <trkpt lat="50.21733" lon="3.26522">
        <ele>92</ele>
        <time>2014-03-02T15:56:40Z</time>
      </trkpt>
      <trkpt lat="50.21736" lon="3.26523">
        <ele>92</ele>
        <time>2014-03-02T15:56:43Z</time>
      </trkpt>
      <trkpt lat="50.2174" lon="3.26523">
        <ele>91</ele>
        <time>2014-03-02T15:56:46Z</time>
      </trkpt>
      <trkpt lat="50.21744" lon="3.26524">
        <ele>92</ele>
        <time>2014-03-02T15:56:49Z</time>
      </trkpt>
      <trkpt lat="50.21747" lon="3.26526">
        <ele>93</ele>
        <time>2014-03-02T15:56:52Z</time>
      </trkpt>
      <trkpt lat="50.2175" lon="3.26528">
        <ele>93</ele>
        <time>2014-03-02T15:56:55Z</time>
      </trkpt>
      <trkpt lat="50.21753" lon="3.26529">
        <ele>93</ele>
        <time>2014-03-02T15:56:58Z</time>
      </trkpt>
      <trkpt lat="50.21757" lon="3.2653">
        <ele>94</ele>
        <time>2014-03-02T15:57:01Z</time>
      </trkpt>
      <trkpt lat="50.2176" lon="3.26531">
        <ele>94</ele>
        <time>2014-03-02T15:57:03Z</time>
      </trkpt>
      <trkpt lat="50.21764" lon="3.26531">
        <ele>94</ele>
        <time>2014-03-02T15:57:06Z</time>
      </trkpt>
      <trkpt lat="50.21767" lon="3.26532">
        <ele>94</ele>
        <time>2014-03-02T15:57:08Z</time>
      </trkpt>
      <trkpt lat="50.2177" lon="3.26532">
        <ele>94</ele>
        <time>2014-03-02T15:57:11Z</time>
      </trkpt>
      <trkpt lat="50.21777" lon="3.26533">
        <ele>96</ele>
        <time>2014-03-02T15:57:16Z</time>
      </trkpt>
      <trkpt lat="50.2178" lon="3.26533">
        <ele>97</ele>
        <time>2014-03-02T15:57:18Z</time>
      </trkpt>
      <trkpt lat="50.21782" lon="3.26534">
        <ele>97</ele>
        <time>2014-03-02T15:57:20Z</time>
      </trkpt>
      <trkpt lat="50.21785" lon="3.26535">
        <ele>97</ele>
        <time>2014-03-02T15:57:22Z</time>
      </trkpt>
      <trkpt lat="50.21789" lon="3.26536">
        <ele>96</ele>
        <time>2014-03-02T15:57:25Z</time>
      </trkpt>
      <trkpt lat="50.21792" lon="3.26538">
        <ele>95</ele>
        <time>2014-03-02T15:57:28Z</time>
      </trkpt>
      <trkpt lat="50.21796" lon="3.26539">
        <ele>95</ele>
        <time>2014-03-02T15:57:31Z</time>
      </trkpt>
      <trkpt lat="50.218" lon="3.2654">
        <ele>96</ele>
        <time>2014-03-02T15:57:34Z</time>
      </trkpt>
      <trkpt lat="50.21803" lon="3.2654">
        <ele>95</ele>
        <time>2014-03-02T15:57:37Z</time>
      </trkpt>
      <trkpt lat="50.21807" lon="3.26541">
        <ele>94</ele>
        <time>2014-03-02T15:57:40Z</time>
      </trkpt>
      <trkpt lat="50.21811" lon="3.26543">
        <ele>96</ele>
        <time>2014-03-02T15:57:43Z</time>
      </trkpt>
      <trkpt lat="50.21814" lon="3.26545">
        <ele>92</ele>
        <time>2014-03-02T15:57:47Z</time>
      </trkpt>
      <trkpt lat="50.21814" lon="3.2655">
        <ele>86</ele>
        <time>2014-03-02T15:57:52Z</time>
      </trkpt>
      <trkpt lat="50.21815" lon="3.26554">
        <ele>84</ele>
        <time>2014-03-02T15:57:57Z</time>
      </trkpt>
      <trkpt lat="50.21818" lon="3.26554">
        <ele>83</ele>
        <time>2014-03-02T15:58:07Z</time>
      </trkpt>
      <trkpt lat="50.21821" lon="3.26555">
        <ele>82</ele>
        <time>2014-03-02T15:58:10Z</time>
      </trkpt>
      <trkpt lat="50.21824" lon="3.26556">
        <ele>84</ele>
        <time>2014-03-02T15:58:13Z</time>
      </trkpt>
      <trkpt lat="50.21828" lon="3.26556">
        <ele>85</ele>
        <time>2014-03-02T15:58:16Z</time>
      </trkpt>
      <trkpt lat="50.21831" lon="3.26556">
        <ele>85</ele>
        <time>2014-03-02T15:58:19Z</time>
      </trkpt>
      <trkpt lat="50.21835" lon="3.26557">
        <ele>84</ele>
        <time>2014-03-02T15:58:22Z</time>
      </trkpt>
      <trkpt lat="50.21838" lon="3.26558">
        <ele>84</ele>
        <time>2014-03-02T15:58:25Z</time>
      </trkpt>
      <trkpt lat="50.21842" lon="3.2656">
        <ele>85</ele>
        <time>2014-03-02T15:58:28Z</time>
      </trkpt>
      <trkpt lat="50.21845" lon="3.26563">
        <ele>85</ele>
        <time>2014-03-02T15:58:31Z</time>
      </trkpt>
      <trkpt lat="50.21848" lon="3.26565">
        <ele>86</ele>
        <time>2014-03-02T15:58:34Z</time>
      </trkpt>
      <trkpt lat="50.21852" lon="3.26565">
        <ele>85</ele>
        <time>2014-03-02T15:58:45Z</time>
      </trkpt>
      <trkpt lat="50.21855" lon="3.26568">
        <ele>85</ele>
        <time>2014-03-02T15:58:48Z</time>
      </trkpt>
      <trkpt lat="50.21857" lon="3.26571">
        <ele>86</ele>
        <time>2014-03-02T15:58:50Z</time>
      </trkpt>
      <trkpt lat="50.2186" lon="3.26575">
        <ele>85</ele>
        <time>2014-03-02T15:58:53Z</time>
      </trkpt>
      <trkpt lat="50.21862" lon="3.26579">
        <ele>86</ele>
        <time>2014-03-02T15:58:56Z</time>
      </trkpt>
      <trkpt lat="50.21864" lon="3.26584">
        <ele>85</ele>
        <time>2014-03-02T15:58:59Z</time>
      </trkpt>
      <trkpt lat="50.21866" lon="3.26588">
        <ele>86</ele>
        <time>2014-03-02T15:59:02Z</time>
      </trkpt>
      <trkpt lat="50.21868" lon="3.26592">
        <ele>86</ele>
        <time>2014-03-02T15:59:04Z</time>
      </trkpt>
      <trkpt lat="50.21871" lon="3.26595">
        <ele>87</ele>
        <time>2014-03-02T15:59:06Z</time>
      </trkpt>
      <trkpt lat="50.21873" lon="3.26597">
        <ele>87</ele>
        <time>2014-03-02T15:59:08Z</time>
      </trkpt>
      <trkpt lat="50.21875" lon="3.266">
        <ele>87</ele>
        <time>2014-03-02T15:59:10Z</time>
      </trkpt>
      <trkpt lat="50.21877" lon="3.26603">
        <ele>88</ele>
        <time>2014-03-02T15:59:12Z</time>
      </trkpt>
      <trkpt lat="50.2188" lon="3.26608">
        <ele>89</ele>
        <time>2014-03-02T15:59:15Z</time>
      </trkpt>
      <trkpt lat="50.21882" lon="3.26613">
        <ele>89</ele>
        <time>2014-03-02T15:59:18Z</time>
      </trkpt>
      <trkpt lat="50.21884" lon="3.26617">
        <ele>85</ele>
        <time>2014-03-02T15:59:22Z</time>
      </trkpt>
      <trkpt lat="50.21886" lon="3.2662">
        <ele>85</ele>
        <time>2014-03-02T15:59:25Z</time>
      </trkpt>
      <trkpt lat="50.21887" lon="3.26625">
        <ele>85</ele>
        <time>2014-03-02T15:59:28Z</time>
      </trkpt>
      <trkpt lat="50.21888" lon="3.26629">
        <ele>83</ele>
        <time>2014-03-02T15:59:31Z</time>
      </trkpt>
      <trkpt lat="50.2189" lon="3.26632">
        <ele>83</ele>
        <time>2014-03-02T15:59:33Z</time>
      </trkpt>
      <trkpt lat="50.21891" lon="3.26638">
        <ele>84</ele>
        <time>2014-03-02T15:59:36Z</time>
      </trkpt>
      <trkpt lat="50.21893" lon="3.26642">
        <ele>82</ele>
        <time>2014-03-02T15:59:39Z</time>
      </trkpt>
      <trkpt lat="50.21894" lon="3.26647">
        <ele>84</ele>
        <time>2014-03-02T15:59:42Z</time>
      </trkpt>
      <trkpt lat="50.21896" lon="3.26653">
        <ele>84</ele>
        <time>2014-03-02T15:59:45Z</time>
      </trkpt>
      <trkpt lat="50.21897" lon="3.26657">
        <ele>84</ele>
        <time>2014-03-02T15:59:47Z</time>
      </trkpt>
      <trkpt lat="50.21899" lon="3.26662">
        <ele>86</ele>
        <time>2014-03-02T15:59:49Z</time>
      </trkpt>
      <trkpt lat="50.21901" lon="3.26666">
        <ele>86</ele>
        <time>2014-03-02T15:59:51Z</time>
      </trkpt>
      <trkpt lat="50.21903" lon="3.26669">
        <ele>87</ele>
        <time>2014-03-02T15:59:55Z</time>
      </trkpt>
      <trkpt lat="50.21905" lon="3.26674">
        <ele>85</ele>
        <time>2014-03-02T15:59:59Z</time>
      </trkpt>
      <trkpt lat="50.21907" lon="3.26679">
        <ele>86</ele>
        <time>2014-03-02T16:00:02Z</time>
      </trkpt>
      <trkpt lat="50.21909" lon="3.26683">
        <ele>88</ele>
        <time>2014-03-02T16:00:04Z</time>
      </trkpt>
      <trkpt lat="50.21911" lon="3.26687">
        <ele>89</ele>
        <time>2014-03-02T16:00:06Z</time>
      </trkpt>
      <trkpt lat="50.21913" lon="3.26691">
        <ele>92</ele>
        <time>2014-03-02T16:00:08Z</time>
      </trkpt>
      <trkpt lat="50.21917" lon="3.26696">
        <ele>92</ele>
        <time>2014-03-02T16:00:10Z</time>
      </trkpt>
      <trkpt lat="50.2192" lon="3.267">
        <ele>91</ele>
        <time>2014-03-02T16:00:12Z</time>
      </trkpt>
      <trkpt lat="50.21922" lon="3.26704">
        <ele>91</ele>
        <time>2014-03-02T16:00:14Z</time>
      </trkpt>
      <trkpt lat="50.21923" lon="3.26709">
        <ele>91</ele>
        <time>2014-03-02T16:00:16Z</time>
      </trkpt>
      <trkpt lat="50.21925" lon="3.26713">
        <ele>90</ele>
        <time>2014-03-02T16:00:18Z</time>
      </trkpt>
      <trkpt lat="50.21928" lon="3.26715">
        <ele>91</ele>
        <time>2014-03-02T16:00:20Z</time>
      </trkpt>
      <trkpt lat="50.2193" lon="3.26718">
        <ele>91</ele>
        <time>2014-03-02T16:00:22Z</time>
      </trkpt>
      <trkpt lat="50.21933" lon="3.26721">
        <ele>92</ele>
        <time>2014-03-02T16:00:24Z</time>
      </trkpt>
      <trkpt lat="50.21936" lon="3.26723">
        <ele>92</ele>
        <time>2014-03-02T16:00:26Z</time>
      </trkpt>
      <trkpt lat="50.21939" lon="3.26727">
        <ele>89</ele>
        <time>2014-03-02T16:00:29Z</time>
      </trkpt>
      <trkpt lat="50.21942" lon="3.2673">
        <ele>89</ele>
        <time>2014-03-02T16:00:31Z</time>
      </trkpt>
      <trkpt lat="50.21944" lon="3.26732">
        <ele>89</ele>
        <time>2014-03-02T16:00:33Z</time>
      </trkpt>
      <trkpt lat="50.21947" lon="3.26735">
        <ele>89</ele>
        <time>2014-03-02T16:00:35Z</time>
      </trkpt>
      <trkpt lat="50.2195" lon="3.26738">
        <ele>89</ele>
        <time>2014-03-02T16:00:37Z</time>
      </trkpt>
      <trkpt lat="50.21952" lon="3.26741">
        <ele>88</ele>
        <time>2014-03-02T16:00:39Z</time>
      </trkpt>
      <trkpt lat="50.21955" lon="3.26745">
        <ele>90</ele>
        <time>2014-03-02T16:00:41Z</time>
      </trkpt>
      <trkpt lat="50.21957" lon="3.26747">
        <ele>90</ele>
        <time>2014-03-02T16:00:43Z</time>
      </trkpt>
      <trkpt lat="50.2196" lon="3.26751">
        <ele>92</ele>
        <time>2014-03-02T16:00:46Z</time>
      </trkpt>
      <trkpt lat="50.21963" lon="3.26754">
        <ele>92</ele>
        <time>2014-03-02T16:00:48Z</time>
      </trkpt>
      <trkpt lat="50.21966" lon="3.26758">
        <ele>91</ele>
        <time>2014-03-02T16:00:51Z</time>
      </trkpt>
      <trkpt lat="50.21968" lon="3.26762">
        <ele>90</ele>
        <time>2014-03-02T16:00:54Z</time>
      </trkpt>
      <trkpt lat="50.2197" lon="3.26766">
        <ele>89</ele>
        <time>2014-03-02T16:00:57Z</time>
      </trkpt>
      <trkpt lat="50.21971" lon="3.26771">
        <ele>88</ele>
        <time>2014-03-02T16:01:00Z</time>
      </trkpt>
      <trkpt lat="50.21973" lon="3.26776">
        <ele>88</ele>
        <time>2014-03-02T16:01:03Z</time>
      </trkpt>
      <trkpt lat="50.21975" lon="3.26781">
        <ele>89</ele>
        <time>2014-03-02T16:01:06Z</time>
      </trkpt>
      <trkpt lat="50.21977" lon="3.26785">
        <ele>89</ele>
        <time>2014-03-02T16:01:09Z</time>
      </trkpt>
      <trkpt lat="50.2198" lon="3.26788">
        <ele>90</ele>
        <time>2014-03-02T16:01:11Z</time>
      </trkpt>
      <trkpt lat="50.21982" lon="3.26792">
        <ele>91</ele>
        <time>2014-03-02T16:01:14Z</time>
      </trkpt>
      <trkpt lat="50.21985" lon="3.26796">
        <ele>91</ele>
        <time>2014-03-02T16:01:17Z</time>
      </trkpt>
      <trkpt lat="50.21984" lon="3.26801">
        <ele>90</ele>
        <time>2014-03-02T16:01:20Z</time>
      </trkpt>
      <trkpt lat="50.21984" lon="3.26806">
        <ele>89</ele>
        <time>2014-03-02T16:01:23Z</time>
      </trkpt>
      <trkpt lat="50.21986" lon="3.26812">
        <ele>90</ele>
        <time>2014-03-02T16:01:26Z</time>
      </trkpt>
      <trkpt lat="50.21987" lon="3.26816">
        <ele>90</ele>
        <time>2014-03-02T16:01:28Z</time>
      </trkpt>
      <trkpt lat="50.21988" lon="3.2682">
        <ele>91</ele>
        <time>2014-03-02T16:01:30Z</time>
      </trkpt>
      <trkpt lat="50.2199" lon="3.26824">
        <ele>90</ele>
        <time>2014-03-02T16:01:32Z</time>
      </trkpt>
      <trkpt lat="50.21991" lon="3.26828">
        <ele>91</ele>
        <time>2014-03-02T16:01:34Z</time>
      </trkpt>
      <trkpt lat="50.21993" lon="3.26834">
        <ele>91</ele>
        <time>2014-03-02T16:01:37Z</time>
      </trkpt>
      <trkpt lat="50.21993" lon="3.2684">
        <ele>92</ele>
        <time>2014-03-02T16:01:40Z</time>
      </trkpt>
      <trkpt lat="50.21994" lon="3.26844">
        <ele>91</ele>
        <time>2014-03-02T16:01:42Z</time>
      </trkpt>
      <trkpt lat="50.21995" lon="3.2685">
        <ele>90</ele>
        <time>2014-03-02T16:01:45Z</time>
      </trkpt>
      <trkpt lat="50.21997" lon="3.26854">
        <ele>90</ele>
        <time>2014-03-02T16:01:48Z</time>
      </trkpt>
      <trkpt lat="50.21998" lon="3.26858">
        <ele>88</ele>
        <time>2014-03-02T16:01:52Z</time>
      </trkpt>
      <trkpt lat="50.22" lon="3.26855">
        <ele>89</ele>
        <time>2014-03-02T16:02:03Z</time>
      </trkpt>
      <trkpt lat="50.22003" lon="3.26851">
        <ele>89</ele>
        <time>2014-03-02T16:02:06Z</time>
      </trkpt>
      <trkpt lat="50.22006" lon="3.26848">
        <ele>89</ele>
        <time>2014-03-02T16:02:09Z</time>
      </trkpt>
      <trkpt lat="50.22009" lon="3.26847">
        <ele>90</ele>
        <time>2014-03-02T16:02:12Z</time>
      </trkpt>
      <trkpt lat="50.22013" lon="3.26849">
        <ele>89</ele>
        <time>2014-03-02T16:02:15Z</time>
      </trkpt>
      <trkpt lat="50.22013" lon="3.26855">
        <ele>88</ele>
        <time>2014-03-02T16:02:18Z</time>
      </trkpt>
      <trkpt lat="50.22012" lon="3.26859">
        <ele>87</ele>
        <time>2014-03-02T16:02:20Z</time>
      </trkpt>
      <trkpt lat="50.22012" lon="3.26863">
        <ele>87</ele>
        <time>2014-03-02T16:02:22Z</time>
      </trkpt>
      <trkpt lat="50.22012" lon="3.26868">
        <ele>86</ele>
        <time>2014-03-02T16:02:24Z</time>
      </trkpt>
      <trkpt lat="50.22012" lon="3.26872">
        <ele>85</ele>
        <time>2014-03-02T16:02:26Z</time>
      </trkpt>
      <trkpt lat="50.22013" lon="3.26877">
        <ele>83</ele>
        <time>2014-03-02T16:02:29Z</time>
      </trkpt>
      <trkpt lat="50.22013" lon="3.26883">
        <ele>85</ele>
        <time>2014-03-02T16:02:32Z</time>
      </trkpt>
      <trkpt lat="50.22013" lon="3.26888">
        <ele>86</ele>
        <time>2014-03-02T16:02:35Z</time>
      </trkpt>
      <trkpt lat="50.22014" lon="3.26893">
        <ele>86</ele>
        <time>2014-03-02T16:02:38Z</time>
      </trkpt>
      <trkpt lat="50.22014" lon="3.26898">
        <ele>87</ele>
        <time>2014-03-02T16:02:41Z</time>
      </trkpt>
      <trkpt lat="50.22014" lon="3.26903">
        <ele>87</ele>
        <time>2014-03-02T16:02:44Z</time>
      </trkpt>
      <trkpt lat="50.22013" lon="3.26907">
        <ele>85</ele>
        <time>2014-03-02T16:02:47Z</time>
      </trkpt>
      <trkpt lat="50.22012" lon="3.26911">
        <ele>85</ele>
        <time>2014-03-02T16:02:50Z</time>
      </trkpt>
      <trkpt lat="50.2201" lon="3.26917">
        <ele>86</ele>
        <time>2014-03-02T16:02:53Z</time>
      </trkpt>
      <trkpt lat="50.22009" lon="3.26923">
        <ele>89</ele>
        <time>2014-03-02T16:02:55Z</time>
      </trkpt>
      <trkpt lat="50.22006" lon="3.26929">
        <ele>88</ele>
        <time>2014-03-02T16:02:57Z</time>
      </trkpt>
      <trkpt lat="50.22004" lon="3.26937">
        <ele>91</ele>
        <time>2014-03-02T16:02:59Z</time>
      </trkpt>
      <trkpt lat="50.22001" lon="3.26945">
        <ele>92</ele>
        <time>2014-03-02T16:03:01Z</time>
      </trkpt>
      <trkpt lat="50.21995" lon="3.26955">
        <ele>92</ele>
        <time>2014-03-02T16:03:05Z</time>
      </trkpt>
      <trkpt lat="50.21989" lon="3.26957">
        <ele>90</ele>
        <time>2014-03-02T16:03:10Z</time>
      </trkpt>
      <trkpt lat="50.21986" lon="3.26957">
        <ele>88</ele>
        <time>2014-03-02T16:03:12Z</time>
      </trkpt>
      <trkpt lat="50.21983" lon="3.26957">
        <ele>88</ele>
        <time>2014-03-02T16:03:14Z</time>
      </trkpt>
      <trkpt lat="50.2198" lon="3.26959">
        <ele>89</ele>
        <time>2014-03-02T16:03:16Z</time>
      </trkpt>
      <trkpt lat="50.21977" lon="3.26962">
        <ele>89</ele>
        <time>2014-03-02T16:03:18Z</time>
      </trkpt>
      <trkpt lat="50.21974" lon="3.26964">
        <ele>89</ele>
        <time>2014-03-02T16:03:20Z</time>
      </trkpt>
      <trkpt lat="50.21971" lon="3.26966">
        <ele>89</ele>
        <time>2014-03-02T16:03:22Z</time>
      </trkpt>
      <trkpt lat="50.21968" lon="3.26968">
        <ele>90</ele>
        <time>2014-03-02T16:03:24Z</time>
      </trkpt>
      <trkpt lat="50.21965" lon="3.26969">
        <ele>89</ele>
        <time>2014-03-02T16:03:26Z</time>
      </trkpt>
      <trkpt lat="50.21962" lon="3.26971">
        <ele>89</ele>
        <time>2014-03-02T16:03:28Z</time>
      </trkpt>
      <trkpt lat="50.21959" lon="3.26974">
        <ele>91</ele>
        <time>2014-03-02T16:03:30Z</time>
      </trkpt>
      <trkpt lat="50.21957" lon="3.26975">
        <ele>90</ele>
        <time>2014-03-02T16:03:32Z</time>
      </trkpt>
      <trkpt lat="50.21953" lon="3.26975">
        <ele>90</ele>
        <time>2014-03-02T16:03:35Z</time>
      </trkpt>
      <trkpt lat="50.2195" lon="3.26974">
        <ele>90</ele>
        <time>2014-03-02T16:03:39Z</time>
      </trkpt>
      <trkpt lat="50.21947" lon="3.26978">
        <ele>90</ele>
        <time>2014-03-02T16:03:43Z</time>
      </trkpt>
      <trkpt lat="50.21944" lon="3.26982">
        <ele>91</ele>
        <time>2014-03-02T16:03:46Z</time>
      </trkpt>
      <trkpt lat="50.21942" lon="3.26985">
        <ele>91</ele>
        <time>2014-03-02T16:03:48Z</time>
      </trkpt>
      <trkpt lat="50.21939" lon="3.26989">
        <ele>92</ele>
        <time>2014-03-02T16:03:50Z</time>
      </trkpt>
      <trkpt lat="50.21936" lon="3.26994">
        <ele>92</ele>
        <time>2014-03-02T16:03:52Z</time>
      </trkpt>
      <trkpt lat="50.21933" lon="3.26997">
        <ele>90</ele>
        <time>2014-03-02T16:03:55Z</time>
      </trkpt>
      <trkpt lat="50.2193" lon="3.26999">
        <ele>89</ele>
        <time>2014-03-02T16:03:58Z</time>
      </trkpt>
      <trkpt lat="50.21927" lon="3.27002">
        <ele>90</ele>
        <time>2014-03-02T16:04:01Z</time>
      </trkpt>
      <trkpt lat="50.21922" lon="3.27011">
        <ele>91</ele>
        <time>2014-03-02T16:04:05Z</time>
      </trkpt>
      <trkpt lat="50.2192" lon="3.27014">
        <ele>90</ele>
        <time>2014-03-02T16:04:08Z</time>
      </trkpt>
      <trkpt lat="50.21917" lon="3.27017">
        <ele>89</ele>
        <time>2014-03-02T16:04:11Z</time>
      </trkpt>
      <trkpt lat="50.21914" lon="3.2702">
        <ele>88</ele>
        <time>2014-03-02T16:04:14Z</time>
      </trkpt>
      <trkpt lat="50.21911" lon="3.27024">
        <ele>89</ele>
        <time>2014-03-02T16:04:17Z</time>
      </trkpt>
      <trkpt lat="50.21908" lon="3.27026">
        <ele>88</ele>
        <time>2014-03-02T16:04:20Z</time>
      </trkpt>
      <trkpt lat="50.21905" lon="3.2703">
        <ele>88</ele>
        <time>2014-03-02T16:04:23Z</time>
      </trkpt>
      <trkpt lat="50.21902" lon="3.27033">
        <ele>88</ele>
        <time>2014-03-02T16:04:25Z</time>
      </trkpt>
      <trkpt lat="50.21901" lon="3.27037">
        <ele>88</ele>
        <time>2014-03-02T16:04:27Z</time>
      </trkpt>
      <trkpt lat="50.21899" lon="3.2704">
        <ele>87</ele>
        <time>2014-03-02T16:04:29Z</time>
      </trkpt>
      <trkpt lat="50.21896" lon="3.27044">
        <ele>87</ele>
        <time>2014-03-02T16:04:32Z</time>
      </trkpt>
      <trkpt lat="50.21894" lon="3.27049">
        <ele>87</ele>
        <time>2014-03-02T16:04:35Z</time>
      </trkpt>
      <trkpt lat="50.21892" lon="3.27053">
        <ele>88</ele>
        <time>2014-03-02T16:04:40Z</time>
      </trkpt>
      <trkpt lat="50.2189" lon="3.27057">
        <ele>87</ele>
        <time>2014-03-02T16:04:42Z</time>
      </trkpt>
      <trkpt lat="50.21889" lon="3.2706">
        <ele>87</ele>
        <time>2014-03-02T16:04:44Z</time>
      </trkpt>
      <trkpt lat="50.21887" lon="3.27064">
        <ele>87</ele>
        <time>2014-03-02T16:04:46Z</time>
      </trkpt>
      <trkpt lat="50.21885" lon="3.27069">
        <ele>87</ele>
        <time>2014-03-02T16:04:48Z</time>
      </trkpt>
      <trkpt lat="50.21884" lon="3.27073">
        <ele>87</ele>
        <time>2014-03-02T16:04:50Z</time>
      </trkpt>
      <trkpt lat="50.21883" lon="3.27076">
        <ele>87</ele>
        <time>2014-03-02T16:04:52Z</time>
      </trkpt>
      <trkpt lat="50.21881" lon="3.27082">
        <ele>87</ele>
        <time>2014-03-02T16:04:55Z</time>
      </trkpt>
      <trkpt lat="50.21878" lon="3.27093">
        <ele>88</ele>
        <time>2014-03-02T16:04:59Z</time>
      </trkpt>
      <trkpt lat="50.21876" lon="3.27102">
        <ele>90</ele>
        <time>2014-03-02T16:05:03Z</time>
      </trkpt>
      <trkpt lat="50.21875" lon="3.27108">
        <ele>90</ele>
        <time>2014-03-02T16:05:05Z</time>
      </trkpt>
      <trkpt lat="50.21873" lon="3.27113">
        <ele>87</ele>
        <time>2014-03-02T16:05:08Z</time>
      </trkpt>
      <trkpt lat="50.21871" lon="3.27118">
        <ele>87</ele>
        <time>2014-03-02T16:05:11Z</time>
      </trkpt>
      <trkpt lat="50.21869" lon="3.27123">
        <ele>88</ele>
        <time>2014-03-02T16:05:14Z</time>
      </trkpt>
      <trkpt lat="50.21867" lon="3.27127">
        <ele>89</ele>
        <time>2014-03-02T16:05:16Z</time>
      </trkpt>
      <trkpt lat="50.21866" lon="3.27131">
        <ele>89</ele>
        <time>2014-03-02T16:05:18Z</time>
      </trkpt>
      <trkpt lat="50.21863" lon="3.27135">
        <ele>87</ele>
        <time>2014-03-02T16:05:21Z</time>
      </trkpt>
      <trkpt lat="50.21861" lon="3.27139">
        <ele>86</ele>
        <time>2014-03-02T16:05:25Z</time>
      </trkpt>
      <trkpt lat="50.21859" lon="3.27142">
        <ele>86</ele>
        <time>2014-03-02T16:05:28Z</time>
      </trkpt>
      <trkpt lat="50.21857" lon="3.27147">
        <ele>85</ele>
        <time>2014-03-02T16:05:32Z</time>
      </trkpt>
      <trkpt lat="50.21856" lon="3.27153">
        <ele>83</ele>
        <time>2014-03-02T16:05:35Z</time>
      </trkpt>
      <trkpt lat="50.21855" lon="3.27158">
        <ele>84</ele>
        <time>2014-03-02T16:05:38Z</time>
      </trkpt>
      <trkpt lat="50.21853" lon="3.27163">
        <ele>82</ele>
        <time>2014-03-02T16:05:41Z</time>
      </trkpt>
      <trkpt lat="50.21851" lon="3.27169">
        <ele>83</ele>
        <time>2014-03-02T16:05:44Z</time>
      </trkpt>
      <trkpt lat="50.21849" lon="3.27173">
        <ele>83</ele>
        <time>2014-03-02T16:05:47Z</time>
      </trkpt>
      <trkpt lat="50.21846" lon="3.27178">
        <ele>82</ele>
        <time>2014-03-02T16:05:50Z</time>
      </trkpt>
      <trkpt lat="50.21845" lon="3.27183">
        <ele>84</ele>
        <time>2014-03-02T16:05:52Z</time>
      </trkpt>
      <trkpt lat="50.21843" lon="3.27188">
        <ele>84</ele>
        <time>2014-03-02T16:05:55Z</time>
      </trkpt>
      <trkpt lat="50.21841" lon="3.27193">
        <ele>83</ele>
        <time>2014-03-02T16:05:58Z</time>
      </trkpt>
      <trkpt lat="50.21839" lon="3.27199">
        <ele>83</ele>
        <time>2014-03-02T16:06:01Z</time>
      </trkpt>
      <trkpt lat="50.21837" lon="3.27204">
        <ele>82</ele>
        <time>2014-03-02T16:06:04Z</time>
      </trkpt>
      <trkpt lat="50.21834" lon="3.27208">
        <ele>83</ele>
        <time>2014-03-02T16:06:07Z</time>
      </trkpt>
      <trkpt lat="50.21832" lon="3.27212">
        <ele>83</ele>
        <time>2014-03-02T16:06:09Z</time>
      </trkpt>
      <trkpt lat="50.2183" lon="3.27215">
        <ele>83</ele>
        <time>2014-03-02T16:06:11Z</time>
      </trkpt>
      <trkpt lat="50.21828" lon="3.27218">
        <ele>82</ele>
        <time>2014-03-02T16:06:13Z</time>
      </trkpt>
      <trkpt lat="50.21826" lon="3.27221">
        <ele>81</ele>
        <time>2014-03-02T16:06:15Z</time>
      </trkpt>
      <trkpt lat="50.21824" lon="3.27225">
        <ele>82</ele>
        <time>2014-03-02T16:06:17Z</time>
      </trkpt>
      <trkpt lat="50.21821" lon="3.27227">
        <ele>82</ele>
        <time>2014-03-02T16:06:19Z</time>
      </trkpt>
      <trkpt lat="50.21818" lon="3.2723">
        <ele>82</ele>
        <time>2014-03-02T16:06:22Z</time>
      </trkpt>
      <trkpt lat="50.21815" lon="3.27234">
        <ele>83</ele>
        <time>2014-03-02T16:06:25Z</time>
      </trkpt>
      <trkpt lat="50.21812" lon="3.27239">
        <ele>83</ele>
        <time>2014-03-02T16:06:28Z</time>
      </trkpt>
      <trkpt lat="50.2181" lon="3.27241">
        <ele>82</ele>
        <time>2014-03-02T16:06:30Z</time>
      </trkpt>
      <trkpt lat="50.21808" lon="3.27244">
        <ele>83</ele>
        <time>2014-03-02T16:06:32Z</time>
      </trkpt>
      <trkpt lat="50.21804" lon="3.27247">
        <ele>80</ele>
        <time>2014-03-02T16:06:35Z</time>
      </trkpt>
      <trkpt lat="50.21801" lon="3.27251">
        <ele>83</ele>
        <time>2014-03-02T16:06:38Z</time>
      </trkpt>
      <trkpt lat="50.218" lon="3.27255">
        <ele>85</ele>
        <time>2014-03-02T16:06:40Z</time>
      </trkpt>
      <trkpt lat="50.21798" lon="3.2726">
        <ele>85</ele>
        <time>2014-03-02T16:06:43Z</time>
      </trkpt>
      <trkpt lat="50.21796" lon="3.27264">
        <ele>85</ele>
        <time>2014-03-02T16:06:45Z</time>
      </trkpt>
      <trkpt lat="50.21794" lon="3.27268">
        <ele>86</ele>
        <time>2014-03-02T16:06:47Z</time>
      </trkpt>
      <trkpt lat="50.21792" lon="3.27272">
        <ele>85</ele>
        <time>2014-03-02T16:06:49Z</time>
      </trkpt>
      <trkpt lat="50.21791" lon="3.27276">
        <ele>85</ele>
        <time>2014-03-02T16:06:51Z</time>
      </trkpt>
      <trkpt lat="50.21789" lon="3.27279">
        <ele>85</ele>
        <time>2014-03-02T16:06:53Z</time>
      </trkpt>
      <trkpt lat="50.21787" lon="3.27282">
        <ele>85</ele>
        <time>2014-03-02T16:06:55Z</time>
      </trkpt>
      <trkpt lat="50.21783" lon="3.27289">
        <ele>85</ele>
        <time>2014-03-02T16:06:59Z</time>
      </trkpt>
      <trkpt lat="50.21781" lon="3.27292">
        <ele>86</ele>
        <time>2014-03-02T16:07:01Z</time>
      </trkpt>
      <trkpt lat="50.21779" lon="3.27296">
        <ele>87</ele>
        <time>2014-03-02T16:07:03Z</time>
      </trkpt>
      <trkpt lat="50.21777" lon="3.273">
        <ele>86</ele>
        <time>2014-03-02T16:07:05Z</time>
      </trkpt>
      <trkpt lat="50.21775" lon="3.27303">
        <ele>86</ele>
        <time>2014-03-02T16:07:07Z</time>
      </trkpt>
      <trkpt lat="50.21773" lon="3.27307">
        <ele>86</ele>
        <time>2014-03-02T16:07:09Z</time>
      </trkpt>
      <trkpt lat="50.21771" lon="3.2731">
        <ele>86</ele>
        <time>2014-03-02T16:07:11Z</time>
      </trkpt>
      <trkpt lat="50.21769" lon="3.27314">
        <ele>85</ele>
        <time>2014-03-02T16:07:14Z</time>
      </trkpt>
      <trkpt lat="50.21765" lon="3.27314">
        <ele>85</ele>
        <time>2014-03-02T16:07:17Z</time>
      </trkpt>
      <trkpt lat="50.21764" lon="3.27318">
        <ele>85</ele>
        <time>2014-03-02T16:07:21Z</time>
      </trkpt>
      <trkpt lat="50.21761" lon="3.27322">
        <ele>85</ele>
        <time>2014-03-02T16:07:27Z</time>
      </trkpt>
      <trkpt lat="50.2176" lon="3.27326">
        <ele>84</ele>
        <time>2014-03-02T16:07:31Z</time>
      </trkpt>
      <trkpt lat="50.21758" lon="3.2733">
        <ele>85</ele>
        <time>2014-03-02T16:07:34Z</time>
      </trkpt>
      <trkpt lat="50.21756" lon="3.27333">
        <ele>85</ele>
        <time>2014-03-02T16:07:38Z</time>
      </trkpt>
      <trkpt lat="50.21758" lon="3.2733">
        <ele>85</ele>
        <time>2014-03-02T16:07:44Z</time>
      </trkpt>
      <trkpt lat="50.21759" lon="3.27326">
        <ele>83</ele>
        <time>2014-03-02T16:07:47Z</time>
      </trkpt>
      <trkpt lat="50.21761" lon="3.27321">
        <ele>84</ele>
        <time>2014-03-02T16:07:50Z</time>
      </trkpt>
      <trkpt lat="50.21762" lon="3.27316">
        <ele>85</ele>
        <time>2014-03-02T16:07:53Z</time>
      </trkpt>
      <trkpt lat="50.21762" lon="3.2731">
        <ele>84</ele>
        <time>2014-03-02T16:07:56Z</time>
      </trkpt>
      <trkpt lat="50.2176" lon="3.27306">
        <ele>83</ele>
        <time>2014-03-02T16:07:59Z</time>
      </trkpt>
      <trkpt lat="50.21757" lon="3.27303">
        <ele>83</ele>
        <time>2014-03-02T16:08:01Z</time>
      </trkpt>
      <trkpt lat="50.21754" lon="3.273">
        <ele>82</ele>
        <time>2014-03-02T16:08:04Z</time>
      </trkpt>
      <trkpt lat="50.21751" lon="3.27298">
        <ele>81</ele>
        <time>2014-03-02T16:08:07Z</time>
      </trkpt>
      <trkpt lat="50.21747" lon="3.27296">
        <ele>81</ele>
        <time>2014-03-02T16:08:10Z</time>
      </trkpt>
      <trkpt lat="50.21745" lon="3.27294">
        <ele>82</ele>
        <time>2014-03-02T16:08:12Z</time>
      </trkpt>
      <trkpt lat="50.21742" lon="3.27294">
        <ele>81</ele>
        <time>2014-03-02T16:08:14Z</time>
      </trkpt>
      <trkpt lat="50.21739" lon="3.27294">
        <ele>81</ele>
        <time>2014-03-02T16:08:16Z</time>
      </trkpt>
      <trkpt lat="50.21736" lon="3.27294">
        <ele>82</ele>
        <time>2014-03-02T16:08:18Z</time>
      </trkpt>
      <trkpt lat="50.21732" lon="3.27297">
        <ele>82</ele>
        <time>2014-03-02T16:08:21Z</time>
      </trkpt>
      <trkpt lat="50.2173" lon="3.27301">
        <ele>81</ele>
        <time>2014-03-02T16:08:24Z</time>
      </trkpt>
      <trkpt lat="50.21728" lon="3.27305">
        <ele>81</ele>
        <time>2014-03-02T16:08:26Z</time>
      </trkpt>
      <trkpt lat="50.21726" lon="3.27309">
        <ele>82</ele>
        <time>2014-03-02T16:08:28Z</time>
      </trkpt>
      <trkpt lat="50.21724" lon="3.27313">
        <ele>82</ele>
        <time>2014-03-02T16:08:30Z</time>
      </trkpt>
      <trkpt lat="50.21722" lon="3.27317">
        <ele>81</ele>
        <time>2014-03-02T16:08:33Z</time>
      </trkpt>
      <trkpt lat="50.21721" lon="3.27322">
        <ele>81</ele>
        <time>2014-03-02T16:08:36Z</time>
      </trkpt>
      <trkpt lat="50.21724" lon="3.27323">
        <ele>82</ele>
        <time>2014-03-02T16:08:42Z</time>
      </trkpt>
      <trkpt lat="50.21721" lon="3.27327">
        <ele>83</ele>
        <time>2014-03-02T16:08:48Z</time>
      </trkpt>
      <trkpt lat="50.2172" lon="3.27331">
        <ele>84</ele>
        <time>2014-03-02T16:08:50Z</time>
      </trkpt>
      <trkpt lat="50.21718" lon="3.27334">
        <ele>83</ele>
        <time>2014-03-02T16:08:52Z</time>
      </trkpt>
      <trkpt lat="50.21715" lon="3.27339">
        <ele>84</ele>
        <time>2014-03-02T16:08:55Z</time>
      </trkpt>
      <trkpt lat="50.21712" lon="3.27343">
        <ele>84</ele>
        <time>2014-03-02T16:08:58Z</time>
      </trkpt>
      <trkpt lat="50.21711" lon="3.27347">
        <ele>84</ele>
        <time>2014-03-02T16:09:00Z</time>
      </trkpt>
      <trkpt lat="50.21708" lon="3.2735">
        <ele>83</ele>
        <time>2014-03-02T16:09:03Z</time>
      </trkpt>
      <trkpt lat="50.21705" lon="3.27349">
        <ele>83</ele>
        <time>2014-03-02T16:09:06Z</time>
      </trkpt>
      <trkpt lat="50.21702" lon="3.27352">
        <ele>82</ele>
        <time>2014-03-02T16:09:09Z</time>
      </trkpt>
      <trkpt lat="50.217" lon="3.27354">
        <ele>84</ele>
        <time>2014-03-02T16:09:11Z</time>
      </trkpt>
      <trkpt lat="50.21698" lon="3.27358">
        <ele>85</ele>
        <time>2014-03-02T16:09:13Z</time>
      </trkpt>
      <trkpt lat="50.21696" lon="3.27362">
        <ele>86</ele>
        <time>2014-03-02T16:09:15Z</time>
      </trkpt>
      <trkpt lat="50.21694" lon="3.27367">
        <ele>86</ele>
        <time>2014-03-02T16:09:17Z</time>
      </trkpt>
      <trkpt lat="50.21692" lon="3.2737">
        <ele>85</ele>
        <time>2014-03-02T16:09:19Z</time>
      </trkpt>
      <trkpt lat="50.2169" lon="3.27374">
        <ele>86</ele>
        <time>2014-03-02T16:09:21Z</time>
      </trkpt>
      <trkpt lat="50.21687" lon="3.27377">
        <ele>86</ele>
        <time>2014-03-02T16:09:23Z</time>
      </trkpt>
      <trkpt lat="50.21686" lon="3.27381">
        <ele>86</ele>
        <time>2014-03-02T16:09:25Z</time>
      </trkpt>
      <trkpt lat="50.21683" lon="3.27385">
        <ele>85</ele>
        <time>2014-03-02T16:09:28Z</time>
      </trkpt>
      <trkpt lat="50.21681" lon="3.27389">
        <ele>85</ele>
        <time>2014-03-02T16:09:30Z</time>
      </trkpt>
      <trkpt lat="50.2168" lon="3.27393">
        <ele>86</ele>
        <time>2014-03-02T16:09:32Z</time>
      </trkpt>
      <trkpt lat="50.21678" lon="3.27397">
        <ele>86</ele>
        <time>2014-03-02T16:09:34Z</time>
      </trkpt>
      <trkpt lat="50.21675" lon="3.274">
        <ele>87</ele>
        <time>2014-03-02T16:09:36Z</time>
      </trkpt>
      <trkpt lat="50.21673" lon="3.27403">
        <ele>88</ele>
        <time>2014-03-02T16:09:38Z</time>
      </trkpt>
      <trkpt lat="50.2167" lon="3.27407">
        <ele>89</ele>
        <time>2014-03-02T16:09:41Z</time>
      </trkpt>
      <trkpt lat="50.21669" lon="3.27411">
        <ele>90</ele>
        <time>2014-03-02T16:09:43Z</time>
      </trkpt>
      <trkpt lat="50.21666" lon="3.27415">
        <ele>90</ele>
        <time>2014-03-02T16:09:46Z</time>
      </trkpt>
      <trkpt lat="50.21664" lon="3.27419">
        <ele>90</ele>
        <time>2014-03-02T16:09:49Z</time>
      </trkpt>
      <trkpt lat="50.21662" lon="3.27423">
        <ele>88</ele>
        <time>2014-03-02T16:09:52Z</time>
      </trkpt>
      <trkpt lat="50.21661" lon="3.27427">
        <ele>88</ele>
        <time>2014-03-02T16:09:55Z</time>
      </trkpt>
      <trkpt lat="50.21659" lon="3.27432">
        <ele>89</ele>
        <time>2014-03-02T16:09:58Z</time>
      </trkpt>
      <trkpt lat="50.21657" lon="3.27437">
        <ele>90</ele>
        <time>2014-03-02T16:10:01Z</time>
      </trkpt>
      <trkpt lat="50.21654" lon="3.27442">
        <ele>90</ele>
        <time>2014-03-02T16:10:04Z</time>
      </trkpt>
      <trkpt lat="50.21652" lon="3.27446">
        <ele>90</ele>
        <time>2014-03-02T16:10:07Z</time>
      </trkpt>
      <trkpt lat="50.21649" lon="3.27451">
        <ele>90</ele>
        <time>2014-03-02T16:10:10Z</time>
      </trkpt>
      <trkpt lat="50.21647" lon="3.27456">
        <ele>91</ele>
        <time>2014-03-02T16:10:13Z</time>
      </trkpt>
      <trkpt lat="50.21645" lon="3.27459">
        <ele>90</ele>
        <time>2014-03-02T16:10:16Z</time>
      </trkpt>
      <trkpt lat="50.21643" lon="3.27463">
        <ele>90</ele>
        <time>2014-03-02T16:10:20Z</time>
      </trkpt>
      <trkpt lat="50.2164" lon="3.27463">
        <ele>85</ele>
        <time>2014-03-02T16:10:44Z</time>
      </trkpt>
      <trkpt lat="50.21639" lon="3.27468">
        <ele>85</ele>
        <time>2014-03-02T16:10:51Z</time>
      </trkpt>
      <trkpt lat="50.21642" lon="3.27472">
        <ele>87</ele>
        <time>2014-03-02T16:11:08Z</time>
      </trkpt>
      <trkpt lat="50.21644" lon="3.27475">
        <ele>87</ele>
        <time>2014-03-02T16:11:10Z</time>
      </trkpt>
      <trkpt lat="50.2165" lon="3.27482">
        <ele>89</ele>
        <time>2014-03-02T16:11:14Z</time>
      </trkpt>
      <trkpt lat="50.21653" lon="3.27485">
        <ele>90</ele>
        <time>2014-03-02T16:11:16Z</time>
      </trkpt>
      <trkpt lat="50.21655" lon="3.27489">
        <ele>89</ele>
        <time>2014-03-02T16:11:18Z</time>
      </trkpt>
      <trkpt lat="50.21658" lon="3.27492">
        <ele>88</ele>
        <time>2014-03-02T16:11:20Z</time>
      </trkpt>
      <trkpt lat="50.2166" lon="3.27494">
        <ele>87</ele>
        <time>2014-03-02T16:11:22Z</time>
      </trkpt>
      <trkpt lat="50.21663" lon="3.27497">
        <ele>86</ele>
        <time>2014-03-02T16:11:25Z</time>
      </trkpt>
      <trkpt lat="50.21665" lon="3.27501">
        <ele>84</ele>
        <time>2014-03-02T16:11:28Z</time>
      </trkpt>
      <trkpt lat="50.21668" lon="3.27504">
        <ele>83</ele>
        <time>2014-03-02T16:11:31Z</time>
      </trkpt>
      <trkpt lat="50.2167" lon="3.27508">
        <ele>83</ele>
        <time>2014-03-02T16:11:34Z</time>
      </trkpt>
      <trkpt lat="50.21673" lon="3.27512">
        <ele>83</ele>
        <time>2014-03-02T16:11:37Z</time>
      </trkpt>
      <trkpt lat="50.21675" lon="3.27516">
        <ele>83</ele>
        <time>2014-03-02T16:11:40Z</time>
      </trkpt>
      <trkpt lat="50.21678" lon="3.2752">
        <ele>83</ele>
        <time>2014-03-02T16:11:43Z</time>
      </trkpt>
      <trkpt lat="50.21681" lon="3.27524">
        <ele>84</ele>
        <time>2014-03-02T16:11:46Z</time>
      </trkpt>
      <trkpt lat="50.21683" lon="3.27527">
        <ele>84</ele>
        <time>2014-03-02T16:11:48Z</time>
      </trkpt>
      <trkpt lat="50.21685" lon="3.27531">
        <ele>85</ele>
        <time>2014-03-02T16:11:51Z</time>
      </trkpt>
      <trkpt lat="50.21688" lon="3.27535">
        <ele>85</ele>
        <time>2014-03-02T16:11:54Z</time>
      </trkpt>
      <trkpt lat="50.21691" lon="3.27539">
        <ele>87</ele>
        <time>2014-03-02T16:11:57Z</time>
      </trkpt>
      <trkpt lat="50.21693" lon="3.27543">
        <ele>86</ele>
        <time>2014-03-02T16:12:00Z</time>
      </trkpt>
      <trkpt lat="50.21697" lon="3.27547">
        <ele>86</ele>
        <time>2014-03-02T16:12:03Z</time>
      </trkpt>
      <trkpt lat="50.21699" lon="3.2755">
        <ele>85</ele>
        <time>2014-03-02T16:12:06Z</time>
      </trkpt>
      <trkpt lat="50.21702" lon="3.27553">
        <ele>85</ele>
        <time>2014-03-02T16:12:09Z</time>
      </trkpt>
      <trkpt lat="50.21705" lon="3.27557">
        <ele>83</ele>
        <time>2014-03-02T16:12:12Z</time>
      </trkpt>
      <trkpt lat="50.21707" lon="3.2756">
        <ele>85</ele>
        <time>2014-03-02T16:12:15Z</time>
      </trkpt>
      <trkpt lat="50.2171" lon="3.27563">
        <ele>83</ele>
        <time>2014-03-02T16:12:18Z</time>
      </trkpt>
      <trkpt lat="50.21713" lon="3.27567">
        <ele>84</ele>
        <time>2014-03-02T16:12:21Z</time>
      </trkpt>
      <trkpt lat="50.21716" lon="3.27571">
        <ele>86</ele>
        <time>2014-03-02T16:12:24Z</time>
      </trkpt>
      <trkpt lat="50.21719" lon="3.27572">
        <ele>86</ele>
        <time>2014-03-02T16:12:26Z</time>
      </trkpt>
      <trkpt lat="50.21721" lon="3.27575">
        <ele>86</ele>
        <time>2014-03-02T16:12:29Z</time>
      </trkpt>
      <trkpt lat="50.21724" lon="3.27577">
        <ele>87</ele>
        <time>2014-03-02T16:12:31Z</time>
      </trkpt>
      <trkpt lat="50.21727" lon="3.2758">
        <ele>88</ele>
        <time>2014-03-02T16:12:34Z</time>
      </trkpt>
      <trkpt lat="50.21729" lon="3.27584">
        <ele>86</ele>
        <time>2014-03-02T16:12:37Z</time>
      </trkpt>
      <trkpt lat="50.21733" lon="3.27588">
        <ele>86</ele>
        <time>2014-03-02T16:12:40Z</time>
      </trkpt>
      <trkpt lat="50.21735" lon="3.27591">
        <ele>85</ele>
        <time>2014-03-02T16:12:42Z</time>
      </trkpt>
      <trkpt lat="50.21739" lon="3.27594">
        <ele>86</ele>
        <time>2014-03-02T16:12:45Z</time>
      </trkpt>
      <trkpt lat="50.21742" lon="3.27599">
        <ele>86</ele>
        <time>2014-03-02T16:12:48Z</time>
      </trkpt>
      <trkpt lat="50.21745" lon="3.27603">
        <ele>86</ele>
        <time>2014-03-02T16:12:50Z</time>
      </trkpt>
      <trkpt lat="50.21747" lon="3.27606">
        <ele>86</ele>
        <time>2014-03-02T16:12:52Z</time>
      </trkpt>
      <trkpt lat="50.21749" lon="3.27609">
        <ele>88</ele>
        <time>2014-03-02T16:12:54Z</time>
      </trkpt>
      <trkpt lat="50.21751" lon="3.27613">
        <ele>87</ele>
        <time>2014-03-02T16:12:56Z</time>
      </trkpt>
      <trkpt lat="50.21753" lon="3.27617">
        <ele>86</ele>
        <time>2014-03-02T16:12:59Z</time>
      </trkpt>
      <trkpt lat="50.21756" lon="3.27621">
        <ele>86</ele>
        <time>2014-03-02T16:13:02Z</time>
      </trkpt>
      <trkpt lat="50.21758" lon="3.27626">
        <ele>86</ele>
        <time>2014-03-02T16:13:05Z</time>
      </trkpt>
      <trkpt lat="50.2176" lon="3.27629">
        <ele>87</ele>
        <time>2014-03-02T16:13:07Z</time>
      </trkpt>
      <trkpt lat="50.21762" lon="3.27634">
        <ele>87</ele>
        <time>2014-03-02T16:13:10Z</time>
      </trkpt>
      <trkpt lat="50.21765" lon="3.27637">
        <ele>86</ele>
        <time>2014-03-02T16:13:13Z</time>
      </trkpt>
      <trkpt lat="50.21768" lon="3.2764">
        <ele>85</ele>
        <time>2014-03-02T16:13:16Z</time>
      </trkpt>
      <trkpt lat="50.21771" lon="3.27643">
        <ele>86</ele>
        <time>2014-03-02T16:13:19Z</time>
      </trkpt>
      <trkpt lat="50.21774" lon="3.27647">
        <ele>86</ele>
        <time>2014-03-02T16:13:22Z</time>
      </trkpt>
      <trkpt lat="50.21777" lon="3.2765">
        <ele>86</ele>
        <time>2014-03-02T16:13:25Z</time>
      </trkpt>
      <trkpt lat="50.2178" lon="3.27653">
        <ele>87</ele>
        <time>2014-03-02T16:13:28Z</time>
      </trkpt>
      <trkpt lat="50.21783" lon="3.27657">
        <ele>87</ele>
        <time>2014-03-02T16:13:31Z</time>
      </trkpt>
      <trkpt lat="50.21785" lon="3.27661">
        <ele>88</ele>
        <time>2014-03-02T16:13:34Z</time>
      </trkpt>
      <trkpt lat="50.21787" lon="3.27665">
        <ele>89</ele>
        <time>2014-03-02T16:13:37Z</time>
      </trkpt>
      <trkpt lat="50.21789" lon="3.27669">
        <ele>86</ele>
        <time>2014-03-02T16:13:40Z</time>
      </trkpt>
      <trkpt lat="50.2179" lon="3.27673">
        <ele>86</ele>
        <time>2014-03-02T16:13:43Z</time>
      </trkpt>
      <trkpt lat="50.21793" lon="3.27677">
        <ele>85</ele>
        <time>2014-03-02T16:13:46Z</time>
      </trkpt>
      <trkpt lat="50.21795" lon="3.2768">
        <ele>84</ele>
        <time>2014-03-02T16:13:49Z</time>
      </trkpt>
      <trkpt lat="50.21798" lon="3.27683">
        <ele>85</ele>
        <time>2014-03-02T16:13:52Z</time>
      </trkpt>
      <trkpt lat="50.21801" lon="3.27686">
        <ele>86</ele>
        <time>2014-03-02T16:13:55Z</time>
      </trkpt>
      <trkpt lat="50.21803" lon="3.2769">
        <ele>86</ele>
        <time>2014-03-02T16:13:58Z</time>
      </trkpt>
      <trkpt lat="50.21806" lon="3.27694">
        <ele>85</ele>
        <time>2014-03-02T16:14:01Z</time>
      </trkpt>
      <trkpt lat="50.21808" lon="3.27698">
        <ele>85</ele>
        <time>2014-03-02T16:14:04Z</time>
      </trkpt>
      <trkpt lat="50.21811" lon="3.27701">
        <ele>84</ele>
        <time>2014-03-02T16:14:07Z</time>
      </trkpt>
      <trkpt lat="50.21813" lon="3.27703">
        <ele>84</ele>
        <time>2014-03-02T16:14:09Z</time>
      </trkpt>
      <trkpt lat="50.21816" lon="3.27707">
        <ele>85</ele>
        <time>2014-03-02T16:14:12Z</time>
      </trkpt>
      <trkpt lat="50.21819" lon="3.27711">
        <ele>85</ele>
        <time>2014-03-02T16:14:15Z</time>
      </trkpt>
      <trkpt lat="50.21822" lon="3.27715">
        <ele>85</ele>
        <time>2014-03-02T16:14:18Z</time>
      </trkpt>
      <trkpt lat="50.21824" lon="3.27719">
        <ele>84</ele>
        <time>2014-03-02T16:14:21Z</time>
      </trkpt>
      <trkpt lat="50.21827" lon="3.27723">
        <ele>84</ele>
        <time>2014-03-02T16:14:24Z</time>
      </trkpt>
      <trkpt lat="50.2183" lon="3.27726">
        <ele>85</ele>
        <time>2014-03-02T16:14:27Z</time>
      </trkpt>
      <trkpt lat="50.21833" lon="3.2773">
        <ele>85</ele>
        <time>2014-03-02T16:14:30Z</time>
      </trkpt>
      <trkpt lat="50.21835" lon="3.27733">
        <ele>86</ele>
        <time>2014-03-02T16:14:32Z</time>
      </trkpt>
      <trkpt lat="50.21838" lon="3.27737">
        <ele>85</ele>
        <time>2014-03-02T16:14:35Z</time>
      </trkpt>
      <trkpt lat="50.2184" lon="3.2774">
        <ele>85</ele>
        <time>2014-03-02T16:14:37Z</time>
      </trkpt>
      <trkpt lat="50.21842" lon="3.27742">
        <ele>86</ele>
        <time>2014-03-02T16:14:42Z</time>
      </trkpt>
      <trkpt lat="50.21844" lon="3.27746">
        <ele>85</ele>
        <time>2014-03-02T16:14:46Z</time>
      </trkpt>
      <trkpt lat="50.21846" lon="3.2775">
        <ele>84</ele>
        <time>2014-03-02T16:14:48Z</time>
      </trkpt>
      <trkpt lat="50.21848" lon="3.27754">
        <ele>82</ele>
        <time>2014-03-02T16:14:51Z</time>
      </trkpt>
      <trkpt lat="50.21851" lon="3.27757">
        <ele>82</ele>
        <time>2014-03-02T16:14:54Z</time>
      </trkpt>
      <trkpt lat="50.21854" lon="3.2776">
        <ele>84</ele>
        <time>2014-03-02T16:14:58Z</time>
      </trkpt>
      <trkpt lat="50.21856" lon="3.27765">
        <ele>83</ele>
        <time>2014-03-02T16:15:01Z</time>
      </trkpt>
      <trkpt lat="50.21859" lon="3.27767">
        <ele>81</ele>
        <time>2014-03-02T16:15:05Z</time>
      </trkpt>
      <trkpt lat="50.21863" lon="3.27767">
        <ele>80</ele>
        <time>2014-03-02T16:15:09Z</time>
      </trkpt>
      <trkpt lat="50.21864" lon="3.2777">
        <ele>82</ele>
        <time>2014-03-02T16:15:11Z</time>
      </trkpt>
      <trkpt lat="50.21867" lon="3.27773">
        <ele>82</ele>
        <time>2014-03-02T16:15:15Z</time>
      </trkpt>
      <trkpt lat="50.21871" lon="3.27774">
        <ele>81</ele>
        <time>2014-03-02T16:15:18Z</time>
      </trkpt>
      <trkpt lat="50.21873" lon="3.27776">
        <ele>82</ele>
        <time>2014-03-02T16:15:20Z</time>
      </trkpt>
      <trkpt lat="50.21875" lon="3.27779">
        <ele>83</ele>
        <time>2014-03-02T16:15:22Z</time>
      </trkpt>
      <trkpt lat="50.21877" lon="3.27784">
        <ele>87</ele>
        <time>2014-03-02T16:15:24Z</time>
      </trkpt>
      <trkpt lat="50.2188" lon="3.2779">
        <ele>88</ele>
        <time>2014-03-02T16:15:26Z</time>
      </trkpt>
      <trkpt lat="50.21882" lon="3.27796">
        <ele>90</ele>
        <time>2014-03-02T16:15:28Z</time>
      </trkpt>
      <trkpt lat="50.21885" lon="3.27801">
        <ele>91</ele>
        <time>2014-03-02T16:15:30Z</time>
      </trkpt>
      <trkpt lat="50.21887" lon="3.27804">
        <ele>90</ele>
        <time>2014-03-02T16:15:32Z</time>
      </trkpt>
      <trkpt lat="50.21889" lon="3.27807">
        <ele>89</ele>
        <time>2014-03-02T16:15:34Z</time>
      </trkpt>
      <trkpt lat="50.21892" lon="3.27809">
        <ele>86</ele>
        <time>2014-03-02T16:15:37Z</time>
      </trkpt>
      <trkpt lat="50.21894" lon="3.27812">
        <ele>87</ele>
        <time>2014-03-02T16:15:41Z</time>
      </trkpt>
      <trkpt lat="50.21897" lon="3.2781">
        <ele>87</ele>
        <time>2014-03-02T16:15:45Z</time>
      </trkpt>
      <trkpt lat="50.219" lon="3.27813">
        <ele>87</ele>
        <time>2014-03-02T16:15:48Z</time>
      </trkpt>
      <trkpt lat="50.21903" lon="3.27816">
        <ele>87</ele>
        <time>2014-03-02T16:15:51Z</time>
      </trkpt>
      <trkpt lat="50.21906" lon="3.27817">
        <ele>85</ele>
        <time>2014-03-02T16:15:54Z</time>
      </trkpt>
      <trkpt lat="50.21909" lon="3.27818">
        <ele>86</ele>
        <time>2014-03-02T16:15:57Z</time>
      </trkpt>
      <trkpt lat="50.21912" lon="3.2782">
        <ele>85</ele>
        <time>2014-03-02T16:16:00Z</time>
      </trkpt>
      <trkpt lat="50.21917" lon="3.27825">
        <ele>86</ele>
        <time>2014-03-02T16:16:05Z</time>
      </trkpt>
      <trkpt lat="50.21919" lon="3.27836">
        <ele>91</ele>
        <time>2014-03-02T16:16:08Z</time>
      </trkpt>
      <trkpt lat="50.2192" lon="3.2784">
        <ele>92</ele>
        <time>2014-03-02T16:16:10Z</time>
      </trkpt>
      <trkpt lat="50.21922" lon="3.27843">
        <ele>93</ele>
        <time>2014-03-02T16:16:14Z</time>
      </trkpt>
      <trkpt lat="50.21924" lon="3.27846">
        <ele>88</ele>
        <time>2014-03-02T16:16:17Z</time>
      </trkpt>
      <trkpt lat="50.21926" lon="3.27851">
        <ele>91</ele>
        <time>2014-03-02T16:16:19Z</time>
      </trkpt>
      <trkpt lat="50.21931" lon="3.27856">
        <ele>94</ele>
        <time>2014-03-02T16:16:24Z</time>
      </trkpt>
      <trkpt lat="50.21935" lon="3.27857">
        <ele>94</ele>
        <time>2014-03-02T16:16:27Z</time>
      </trkpt>
      <trkpt lat="50.21939" lon="3.27859">
        <ele>93</ele>
        <time>2014-03-02T16:16:30Z</time>
      </trkpt>
      <trkpt lat="50.21942" lon="3.27861">
        <ele>90</ele>
        <time>2014-03-02T16:16:33Z</time>
      </trkpt>
      <trkpt lat="50.21944" lon="3.27864">
        <ele>91</ele>
        <time>2014-03-02T16:16:35Z</time>
      </trkpt>
      <trkpt lat="50.21946" lon="3.27868">
        <ele>91</ele>
        <time>2014-03-02T16:16:37Z</time>
      </trkpt>
      <trkpt lat="50.21948" lon="3.27873">
        <ele>90</ele>
        <time>2014-03-02T16:16:39Z</time>
      </trkpt>
      <trkpt lat="50.21951" lon="3.27879">
        <ele>91</ele>
        <time>2014-03-02T16:16:42Z</time>
      </trkpt>
      <trkpt lat="50.21953" lon="3.27885">
        <ele>91</ele>
        <time>2014-03-02T16:16:44Z</time>
      </trkpt>
      <trkpt lat="50.21955" lon="3.2789">
        <ele>91</ele>
        <time>2014-03-02T16:16:46Z</time>
      </trkpt>
      <trkpt lat="50.21957" lon="3.27893">
        <ele>89</ele>
        <time>2014-03-02T16:16:48Z</time>
      </trkpt>
      <trkpt lat="50.2196" lon="3.27895">
        <ele>88</ele>
        <time>2014-03-02T16:16:50Z</time>
      </trkpt>
      <trkpt lat="50.21963" lon="3.27898">
        <ele>87</ele>
        <time>2014-03-02T16:16:52Z</time>
      </trkpt>
      <trkpt lat="50.21966" lon="3.279">
        <ele>87</ele>
        <time>2014-03-02T16:16:56Z</time>
      </trkpt>
      <trkpt lat="50.21969" lon="3.27902">
        <ele>87</ele>
        <time>2014-03-02T16:16:59Z</time>
      </trkpt>
      <trkpt lat="50.21972" lon="3.27906">
        <ele>86</ele>
        <time>2014-03-02T16:17:02Z</time>
      </trkpt>
      <trkpt lat="50.21974" lon="3.27909">
        <ele>85</ele>
        <time>2014-03-02T16:17:05Z</time>
      </trkpt>
      <trkpt lat="50.21976" lon="3.27914">
        <ele>87</ele>
        <time>2014-03-02T16:17:07Z</time>
      </trkpt>
      <trkpt lat="50.21977" lon="3.27921">
        <ele>89</ele>
        <time>2014-03-02T16:17:09Z</time>
      </trkpt>
      <trkpt lat="50.21979" lon="3.27927">
        <ele>91</ele>
        <time>2014-03-02T16:17:11Z</time>
      </trkpt>
      <trkpt lat="50.21983" lon="3.27936">
        <ele>92</ele>
        <time>2014-03-02T16:17:14Z</time>
      </trkpt>
      <trkpt lat="50.21985" lon="3.27941">
        <ele>92</ele>
        <time>2014-03-02T16:17:16Z</time>
      </trkpt>
      <trkpt lat="50.21987" lon="3.27945">
        <ele>93</ele>
        <time>2014-03-02T16:17:18Z</time>
      </trkpt>
      <trkpt lat="50.21989" lon="3.2795">
        <ele>97</ele>
        <time>2014-03-02T16:17:20Z</time>
      </trkpt>
      <trkpt lat="50.21991" lon="3.27955">
        <ele>98</ele>
        <time>2014-03-02T16:17:22Z</time>
      </trkpt>
      <trkpt lat="50.21993" lon="3.27958">
        <ele>98</ele>
        <time>2014-03-02T16:17:24Z</time>
      </trkpt>
      <trkpt lat="50.21997" lon="3.27961">
        <ele>99</ele>
        <time>2014-03-02T16:17:27Z</time>
      </trkpt>
      <trkpt lat="50.21999" lon="3.27964">
        <ele>98</ele>
        <time>2014-03-02T16:17:29Z</time>
      </trkpt>
      <trkpt lat="50.22002" lon="3.27968">
        <ele>97</ele>
        <time>2014-03-02T16:17:32Z</time>
      </trkpt>
      <trkpt lat="50.22006" lon="3.2797">
        <ele>95</ele>
        <time>2014-03-02T16:17:35Z</time>
      </trkpt>
      <trkpt lat="50.22009" lon="3.27972">
        <ele>92</ele>
        <time>2014-03-02T16:17:38Z</time>
      </trkpt>
      <trkpt lat="50.22012" lon="3.27975">
        <ele>92</ele>
        <time>2014-03-02T16:17:41Z</time>
      </trkpt>
      <trkpt lat="50.22015" lon="3.27978">
        <ele>93</ele>
        <time>2014-03-02T16:17:44Z</time>
      </trkpt>
      <trkpt lat="50.22018" lon="3.27981">
        <ele>92</ele>
        <time>2014-03-02T16:17:48Z</time>
      </trkpt>
      <trkpt lat="50.22021" lon="3.27984">
        <ele>90</ele>
        <time>2014-03-02T16:17:51Z</time>
      </trkpt>
      <trkpt lat="50.22023" lon="3.27988">
        <ele>91</ele>
        <time>2014-03-02T16:17:54Z</time>
      </trkpt>
      <trkpt lat="50.22025" lon="3.27992">
        <ele>91</ele>
        <time>2014-03-02T16:17:56Z</time>
      </trkpt>
      <trkpt lat="50.22028" lon="3.27995">
        <ele>90</ele>
        <time>2014-03-02T16:17:59Z</time>
      </trkpt>
      <trkpt lat="50.2203" lon="3.27998">
        <ele>89</ele>
        <time>2014-03-02T16:18:01Z</time>
      </trkpt>
      <trkpt lat="50.22034" lon="3.28001">
        <ele>89</ele>
        <time>2014-03-02T16:18:04Z</time>
      </trkpt>
      <trkpt lat="50.22037" lon="3.28002">
        <ele>88</ele>
        <time>2014-03-02T16:18:07Z</time>
      </trkpt>
      <trkpt lat="50.22039" lon="3.28004">
        <ele>88</ele>
        <time>2014-03-02T16:18:10Z</time>
      </trkpt>
      <trkpt lat="50.22041" lon="3.28008">
        <ele>90</ele>
        <time>2014-03-02T16:18:13Z</time>
      </trkpt>
      <trkpt lat="50.22043" lon="3.28011">
        <ele>90</ele>
        <time>2014-03-02T16:18:15Z</time>
      </trkpt>
      <trkpt lat="50.22047" lon="3.28014">
        <ele>88</ele>
        <time>2014-03-02T16:18:18Z</time>
      </trkpt>
      <trkpt lat="50.2205" lon="3.28021">
        <ele>91</ele>
        <time>2014-03-02T16:18:22Z</time>
      </trkpt>
      <trkpt lat="50.22052" lon="3.28026">
        <ele>92</ele>
        <time>2014-03-02T16:18:24Z</time>
      </trkpt>
      <trkpt lat="50.22053" lon="3.2803">
        <ele>92</ele>
        <time>2014-03-02T16:18:26Z</time>
      </trkpt>
      <trkpt lat="50.22056" lon="3.28034">
        <ele>93</ele>
        <time>2014-03-02T16:18:29Z</time>
      </trkpt>
      <trkpt lat="50.22059" lon="3.28038">
        <ele>92</ele>
        <time>2014-03-02T16:18:32Z</time>
      </trkpt>
      <trkpt lat="50.2206" lon="3.28042">
        <ele>93</ele>
        <time>2014-03-02T16:18:34Z</time>
      </trkpt>
      <trkpt lat="50.22063" lon="3.28045">
        <ele>95</ele>
        <time>2014-03-02T16:18:36Z</time>
      </trkpt>
      <trkpt lat="50.22065" lon="3.28048">
        <ele>94</ele>
        <time>2014-03-02T16:18:38Z</time>
      </trkpt>
      <trkpt lat="50.22067" lon="3.28052">
        <ele>93</ele>
        <time>2014-03-02T16:18:41Z</time>
      </trkpt>
      <trkpt lat="50.22069" lon="3.28053">
        <ele>89</ele>
        <time>2014-03-02T16:18:43Z</time>
      </trkpt>
      <trkpt lat="50.22072" lon="3.28055">
        <ele>88</ele>
        <time>2014-03-02T16:18:46Z</time>
      </trkpt>
      <trkpt lat="50.22075" lon="3.28057">
        <ele>90</ele>
        <time>2014-03-02T16:18:49Z</time>
      </trkpt>
      <trkpt lat="50.22077" lon="3.28061">
        <ele>89</ele>
        <time>2014-03-02T16:18:52Z</time>
      </trkpt>
      <trkpt lat="50.22081" lon="3.28063">
        <ele>89</ele>
        <time>2014-03-02T16:18:55Z</time>
      </trkpt>
      <trkpt lat="50.22084" lon="3.28064">
        <ele>87</ele>
        <time>2014-03-02T16:18:58Z</time>
      </trkpt>
      <trkpt lat="50.22086" lon="3.28068">
        <ele>85</ele>
        <time>2014-03-02T16:19:02Z</time>
      </trkpt>
      <trkpt lat="50.22089" lon="3.28071">
        <ele>85</ele>
        <time>2014-03-02T16:19:06Z</time>
      </trkpt>
      <trkpt lat="50.22091" lon="3.28074">
        <ele>84</ele>
        <time>2014-03-02T16:19:09Z</time>
      </trkpt>
      <trkpt lat="50.22093" lon="3.28077">
        <ele>84</ele>
        <time>2014-03-02T16:19:13Z</time>
      </trkpt>
      <trkpt lat="50.22097" lon="3.28079">
        <ele>83</ele>
        <time>2014-03-02T16:19:16Z</time>
      </trkpt>
      <trkpt lat="50.22099" lon="3.28083">
        <ele>85</ele>
        <time>2014-03-02T16:19:19Z</time>
      </trkpt>
      <trkpt lat="50.22101" lon="3.28087">
        <ele>85</ele>
        <time>2014-03-02T16:19:21Z</time>
      </trkpt>
      <trkpt lat="50.22104" lon="3.2809">
        <ele>84</ele>
        <time>2014-03-02T16:19:24Z</time>
      </trkpt>
      <trkpt lat="50.22106" lon="3.28093">
        <ele>85</ele>
        <time>2014-03-02T16:19:27Z</time>
      </trkpt>
      <trkpt lat="50.22109" lon="3.28097">
        <ele>83</ele>
        <time>2014-03-02T16:19:30Z</time>
      </trkpt>
      <trkpt lat="50.22111" lon="3.28101">
        <ele>86</ele>
        <time>2014-03-02T16:19:33Z</time>
      </trkpt>
      <trkpt lat="50.22114" lon="3.28105">
        <ele>85</ele>
        <time>2014-03-02T16:19:36Z</time>
      </trkpt>
      <trkpt lat="50.22117" lon="3.28109">
        <ele>87</ele>
        <time>2014-03-02T16:19:40Z</time>
      </trkpt>
      <trkpt lat="50.2212" lon="3.28112">
        <ele>86</ele>
        <time>2014-03-02T16:19:43Z</time>
      </trkpt>
      <trkpt lat="50.22123" lon="3.28113">
        <ele>85</ele>
        <time>2014-03-02T16:19:48Z</time>
      </trkpt>
      <trkpt lat="50.22126" lon="3.28118">
        <ele>87</ele>
        <time>2014-03-02T16:19:51Z</time>
      </trkpt>
      <trkpt lat="50.22129" lon="3.28121">
        <ele>90</ele>
        <time>2014-03-02T16:19:54Z</time>
      </trkpt>
      <trkpt lat="50.22131" lon="3.28125">
        <ele>91</ele>
        <time>2014-03-02T16:19:56Z</time>
      </trkpt>
      <trkpt lat="50.22133" lon="3.28129">
        <ele>91</ele>
        <time>2014-03-02T16:19:58Z</time>
      </trkpt>
      <trkpt lat="50.22135" lon="3.28132">
        <ele>90</ele>
        <time>2014-03-02T16:20:00Z</time>
      </trkpt>
      <trkpt lat="50.2214" lon="3.28139">
        <ele>88</ele>
        <time>2014-03-02T16:20:05Z</time>
      </trkpt>
      <trkpt lat="50.22142" lon="3.28143">
        <ele>88</ele>
        <time>2014-03-02T16:20:08Z</time>
      </trkpt>
      <trkpt lat="50.22145" lon="3.28145">
        <ele>87</ele>
        <time>2014-03-02T16:20:14Z</time>
      </trkpt>
      <trkpt lat="50.22147" lon="3.28148">
        <ele>87</ele>
        <time>2014-03-02T16:20:19Z</time>
      </trkpt>
      <trkpt lat="50.2215" lon="3.28151">
        <ele>88</ele>
        <time>2014-03-02T16:20:22Z</time>
      </trkpt>
      <trkpt lat="50.22152" lon="3.28154">
        <ele>88</ele>
        <time>2014-03-02T16:20:24Z</time>
      </trkpt>
      <trkpt lat="50.22155" lon="3.28159">
        <ele>89</ele>
        <time>2014-03-02T16:20:26Z</time>
      </trkpt>
      <trkpt lat="50.22159" lon="3.28172">
        <ele>92</ele>
        <time>2014-03-02T16:20:30Z</time>
      </trkpt>
      <trkpt lat="50.22161" lon="3.28176">
        <ele>93</ele>
        <time>2014-03-02T16:20:32Z</time>
      </trkpt>
      <trkpt lat="50.22163" lon="3.28179">
        <ele>92</ele>
        <time>2014-03-02T16:20:36Z</time>
      </trkpt>
      <trkpt lat="50.22164" lon="3.28183">
        <ele>94</ele>
        <time>2014-03-02T16:20:39Z</time>
      </trkpt>
      <trkpt lat="50.22167" lon="3.28186">
        <ele>94</ele>
        <time>2014-03-02T16:20:42Z</time>
      </trkpt>
      <trkpt lat="50.2217" lon="3.2819">
        <ele>94</ele>
        <time>2014-03-02T16:20:45Z</time>
      </trkpt>
      <trkpt lat="50.22173" lon="3.28193">
        <ele>95</ele>
        <time>2014-03-02T16:20:48Z</time>
      </trkpt>
      <trkpt lat="50.22176" lon="3.28195">
        <ele>93</ele>
        <time>2014-03-02T16:20:51Z</time>
      </trkpt>
      <trkpt lat="50.22179" lon="3.28197">
        <ele>92</ele>
        <time>2014-03-02T16:20:54Z</time>
      </trkpt>
      <trkpt lat="50.22182" lon="3.282">
        <ele>91</ele>
        <time>2014-03-02T16:20:57Z</time>
      </trkpt>
      <trkpt lat="50.22184" lon="3.28203">
        <ele>93</ele>
        <time>2014-03-02T16:20:59Z</time>
      </trkpt>
      <trkpt lat="50.22187" lon="3.28206">
        <ele>92</ele>
        <time>2014-03-02T16:21:02Z</time>
      </trkpt>
      <trkpt lat="50.2219" lon="3.2821">
        <ele>92</ele>
        <time>2014-03-02T16:21:05Z</time>
      </trkpt>
      <trkpt lat="50.22192" lon="3.28215">
        <ele>92</ele>
        <time>2014-03-02T16:21:07Z</time>
      </trkpt>
      <trkpt lat="50.22194" lon="3.28219">
        <ele>93</ele>
        <time>2014-03-02T16:21:11Z</time>
      </trkpt>
      <trkpt lat="50.22196" lon="3.28222">
        <ele>93</ele>
        <time>2014-03-02T16:21:14Z</time>
      </trkpt>
      <trkpt lat="50.22199" lon="3.28225">
        <ele>94</ele>
        <time>2014-03-02T16:21:17Z</time>
      </trkpt>
      <trkpt lat="50.22202" lon="3.2823">
        <ele>92</ele>
        <time>2014-03-02T16:21:20Z</time>
      </trkpt>
      <trkpt lat="50.22204" lon="3.28233">
        <ele>92</ele>
        <time>2014-03-02T16:21:24Z</time>
      </trkpt>
      <trkpt lat="50.22207" lon="3.28235">
        <ele>91</ele>
        <time>2014-03-02T16:21:29Z</time>
      </trkpt>
      <trkpt lat="50.2221" lon="3.28237">
        <ele>90</ele>
        <time>2014-03-02T16:21:33Z</time>
      </trkpt>
      <trkpt lat="50.22211" lon="3.28241">
        <ele>93</ele>
        <time>2014-03-02T16:21:35Z</time>
      </trkpt>
      <trkpt lat="50.22214" lon="3.28245">
        <ele>92</ele>
        <time>2014-03-02T16:21:38Z</time>
      </trkpt>
      <trkpt lat="50.22217" lon="3.28247">
        <ele>91</ele>
        <time>2014-03-02T16:21:41Z</time>
      </trkpt>
      <trkpt lat="50.22219" lon="3.2825">
        <ele>92</ele>
        <time>2014-03-02T16:21:43Z</time>
      </trkpt>
      <trkpt lat="50.22222" lon="3.28253">
        <ele>90</ele>
        <time>2014-03-02T16:21:45Z</time>
      </trkpt>
      <trkpt lat="50.22225" lon="3.28254">
        <ele>90</ele>
        <time>2014-03-02T16:21:48Z</time>
      </trkpt>
      <trkpt lat="50.22228" lon="3.28258">
        <ele>91</ele>
        <time>2014-03-02T16:21:51Z</time>
      </trkpt>
      <trkpt lat="50.2223" lon="3.28261">
        <ele>91</ele>
        <time>2014-03-02T16:21:53Z</time>
      </trkpt>
      <trkpt lat="50.22235" lon="3.28267">
        <ele>91</ele>
        <time>2014-03-02T16:21:57Z</time>
      </trkpt>
      <trkpt lat="50.22239" lon="3.28273">
        <ele>93</ele>
        <time>2014-03-02T16:22:00Z</time>
      </trkpt>
      <trkpt lat="50.22242" lon="3.28277">
        <ele>92</ele>
        <time>2014-03-02T16:22:02Z</time>
      </trkpt>
      <trkpt lat="50.22245" lon="3.28279">
        <ele>91</ele>
        <time>2014-03-02T16:22:04Z</time>
      </trkpt>
      <trkpt lat="50.22247" lon="3.28282">
        <ele>92</ele>
        <time>2014-03-02T16:22:06Z</time>
      </trkpt>
      <trkpt lat="50.2225" lon="3.28287">
        <ele>93</ele>
        <time>2014-03-02T16:22:08Z</time>
      </trkpt>
      <trkpt lat="50.22252" lon="3.28293">
        <ele>97</ele>
        <time>2014-03-02T16:22:10Z</time>
      </trkpt>
      <trkpt lat="50.22255" lon="3.28301">
        <ele>97</ele>
        <time>2014-03-02T16:22:12Z</time>
      </trkpt>
      <trkpt lat="50.22257" lon="3.28304">
        <ele>93</ele>
        <time>2014-03-02T16:22:14Z</time>
      </trkpt>
      <trkpt lat="50.22259" lon="3.28307">
        <ele>93</ele>
        <time>2014-03-02T16:22:16Z</time>
      </trkpt>
      <trkpt lat="50.22262" lon="3.28311">
        <ele>92</ele>
        <time>2014-03-02T16:22:19Z</time>
      </trkpt>
      <trkpt lat="50.22265" lon="3.28315">
        <ele>91</ele>
        <time>2014-03-02T16:22:22Z</time>
      </trkpt>
      <trkpt lat="50.22267" lon="3.28319">
        <ele>93</ele>
        <time>2014-03-02T16:22:24Z</time>
      </trkpt>
      <trkpt lat="50.22269" lon="3.28323">
        <ele>91</ele>
        <time>2014-03-02T16:22:26Z</time>
      </trkpt>
      <trkpt lat="50.22272" lon="3.28327">
        <ele>91</ele>
        <time>2014-03-02T16:22:28Z</time>
      </trkpt>
      <trkpt lat="50.22275" lon="3.28331">
        <ele>91</ele>
        <time>2014-03-02T16:22:31Z</time>
      </trkpt>
      <trkpt lat="50.22278" lon="3.28332">
        <ele>90</ele>
        <time>2014-03-02T16:22:34Z</time>
      </trkpt>
      <trkpt lat="50.22281" lon="3.28333">
        <ele>90</ele>
        <time>2014-03-02T16:22:40Z</time>
      </trkpt>
      <trkpt lat="50.22284" lon="3.28334">
        <ele>88</ele>
        <time>2014-03-02T16:22:43Z</time>
      </trkpt>
      <trkpt lat="50.2229" lon="3.28341">
        <ele>88</ele>
        <time>2014-03-02T16:22:47Z</time>
      </trkpt>
      <trkpt lat="50.22292" lon="3.28344">
        <ele>88</ele>
        <time>2014-03-02T16:22:49Z</time>
      </trkpt>
      <trkpt lat="50.22296" lon="3.28349">
        <ele>89</ele>
        <time>2014-03-02T16:22:51Z</time>
      </trkpt>
      <trkpt lat="50.22299" lon="3.28352">
        <ele>88</ele>
        <time>2014-03-02T16:22:53Z</time>
      </trkpt>
      <trkpt lat="50.22301" lon="3.28354">
        <ele>88</ele>
        <time>2014-03-02T16:22:55Z</time>
      </trkpt>
      <trkpt lat="50.22304" lon="3.28361">
        <ele>93</ele>
        <time>2014-03-02T16:22:57Z</time>
      </trkpt>
      <trkpt lat="50.22307" lon="3.28367">
        <ele>95</ele>
        <time>2014-03-02T16:22:59Z</time>
      </trkpt>
      <trkpt lat="50.22308" lon="3.28371">
        <ele>96</ele>
        <time>2014-03-02T16:23:01Z</time>
      </trkpt>
      <trkpt lat="50.2231" lon="3.28375">
        <ele>95</ele>
        <time>2014-03-02T16:23:02Z</time>
      </trkpt>
      <trkpt lat="50.22312" lon="3.28379">
        <ele>92</ele>
        <time>2014-03-02T16:23:04Z</time>
      </trkpt>
      <trkpt lat="50.22314" lon="3.28382">
        <ele>93</ele>
        <time>2014-03-02T16:23:06Z</time>
      </trkpt>
      <trkpt lat="50.22317" lon="3.28386">
        <ele>94</ele>
        <time>2014-03-02T16:23:09Z</time>
      </trkpt>
      <trkpt lat="50.22319" lon="3.28389">
        <ele>95</ele>
        <time>2014-03-02T16:23:11Z</time>
      </trkpt>
      <trkpt lat="50.22321" lon="3.28392">
        <ele>94</ele>
        <time>2014-03-02T16:23:14Z</time>
      </trkpt>
      <trkpt lat="50.22324" lon="3.28395">
        <ele>95</ele>
        <time>2014-03-02T16:23:17Z</time>
      </trkpt>
      <trkpt lat="50.22326" lon="3.28399">
        <ele>95</ele>
        <time>2014-03-02T16:23:19Z</time>
      </trkpt>
      <trkpt lat="50.22328" lon="3.28402">
        <ele>95</ele>
        <time>2014-03-02T16:23:21Z</time>
      </trkpt>
      <trkpt lat="50.22331" lon="3.28406">
        <ele>94</ele>
        <time>2014-03-02T16:23:24Z</time>
      </trkpt>
      <trkpt lat="50.22333" lon="3.28411">
        <ele>93</ele>
        <time>2014-03-02T16:23:27Z</time>
      </trkpt>
      <trkpt lat="50.22335" lon="3.28414">
        <ele>93</ele>
        <time>2014-03-02T16:23:29Z</time>
      </trkpt>
      <trkpt lat="50.22337" lon="3.28417">
        <ele>93</ele>
        <time>2014-03-02T16:23:31Z</time>
      </trkpt>
      <trkpt lat="50.2234" lon="3.2842">
        <ele>92</ele>
        <time>2014-03-02T16:23:33Z</time>
      </trkpt>
      <trkpt lat="50.22343" lon="3.28422">
        <ele>90</ele>
        <time>2014-03-02T16:23:36Z</time>
      </trkpt>
      <trkpt lat="50.22346" lon="3.28424">
        <ele>90</ele>
        <time>2014-03-02T16:23:39Z</time>
      </trkpt>
      <trkpt lat="50.22348" lon="3.28426">
        <ele>89</ele>
        <time>2014-03-02T16:23:42Z</time>
      </trkpt>
      <trkpt lat="50.22351" lon="3.28428">
        <ele>87</ele>
        <time>2014-03-02T16:23:45Z</time>
      </trkpt>
      <trkpt lat="50.22354" lon="3.2843">
        <ele>86</ele>
        <time>2014-03-02T16:23:49Z</time>
      </trkpt>
      <trkpt lat="50.22356" lon="3.28433">
        <ele>85</ele>
        <time>2014-03-02T16:23:52Z</time>
      </trkpt>
      <trkpt lat="50.22358" lon="3.28438">
        <ele>85</ele>
        <time>2014-03-02T16:23:56Z</time>
      </trkpt>
      <trkpt lat="50.22359" lon="3.28442">
        <ele>85</ele>
        <time>2014-03-02T16:23:59Z</time>
      </trkpt>
      <trkpt lat="50.22361" lon="3.28447">
        <ele>83</ele>
        <time>2014-03-02T16:24:02Z</time>
      </trkpt>
      <trkpt lat="50.22362" lon="3.28452">
        <ele>85</ele>
        <time>2014-03-02T16:24:04Z</time>
      </trkpt>
      <trkpt lat="50.22363" lon="3.28457">
        <ele>86</ele>
        <time>2014-03-02T16:24:06Z</time>
      </trkpt>
      <trkpt lat="50.22364" lon="3.28461">
        <ele>85</ele>
        <time>2014-03-02T16:24:10Z</time>
      </trkpt>
      <trkpt lat="50.22367" lon="3.28464">
        <ele>84</ele>
        <time>2014-03-02T16:24:13Z</time>
      </trkpt>
      <trkpt lat="50.22369" lon="3.28467">
        <ele>83</ele>
        <time>2014-03-02T16:24:16Z</time>
      </trkpt>
      <trkpt lat="50.22372" lon="3.28471">
        <ele>83</ele>
        <time>2014-03-02T16:24:20Z</time>
      </trkpt>
      <trkpt lat="50.22374" lon="3.28474">
        <ele>82</ele>
        <time>2014-03-02T16:24:23Z</time>
      </trkpt>
      <trkpt lat="50.22376" lon="3.28477">
        <ele>81</ele>
        <time>2014-03-02T16:24:26Z</time>
      </trkpt>
      <trkpt lat="50.22378" lon="3.28481">
        <ele>80</ele>
        <time>2014-03-02T16:24:29Z</time>
      </trkpt>
      <trkpt lat="50.2238" lon="3.28485">
        <ele>78</ele>
        <time>2014-03-02T16:24:32Z</time>
      </trkpt>
      <trkpt lat="50.22382" lon="3.28488">
        <ele>77</ele>
        <time>2014-03-02T16:24:35Z</time>
      </trkpt>
      <trkpt lat="50.22384" lon="3.28492">
        <ele>77</ele>
        <time>2014-03-02T16:24:38Z</time>
      </trkpt>
      <trkpt lat="50.22386" lon="3.28496">
        <ele>78</ele>
        <time>2014-03-02T16:24:41Z</time>
      </trkpt>
      <trkpt lat="50.22388" lon="3.285">
        <ele>77</ele>
        <time>2014-03-02T16:24:44Z</time>
      </trkpt>
      <trkpt lat="50.2239" lon="3.28504">
        <ele>77</ele>
        <time>2014-03-02T16:24:47Z</time>
      </trkpt>
      <trkpt lat="50.22391" lon="3.28508">
        <ele>79</ele>
        <time>2014-03-02T16:24:50Z</time>
      </trkpt>
      <trkpt lat="50.22392" lon="3.28514">
        <ele>79</ele>
        <time>2014-03-02T16:24:52Z</time>
      </trkpt>
      <trkpt lat="50.22394" lon="3.28518">
        <ele>78</ele>
        <time>2014-03-02T16:24:56Z</time>
      </trkpt>
      <trkpt lat="50.22396" lon="3.28523">
        <ele>80</ele>
        <time>2014-03-02T16:24:58Z</time>
      </trkpt>
      <trkpt lat="50.22397" lon="3.28527">
        <ele>82</ele>
        <time>2014-03-02T16:25:00Z</time>
      </trkpt>
      <trkpt lat="50.22399" lon="3.28532">
        <ele>81</ele>
        <time>2014-03-02T16:25:02Z</time>
      </trkpt>
      <trkpt lat="50.224" lon="3.2854">
        <ele>88</ele>
        <time>2014-03-02T16:25:04Z</time>
      </trkpt>
      <trkpt lat="50.22401" lon="3.28545">
        <ele>89</ele>
        <time>2014-03-02T16:25:05Z</time>
      </trkpt>
      <trkpt lat="50.22403" lon="3.2855">
        <ele>90</ele>
        <time>2014-03-02T16:25:06Z</time>
      </trkpt>
      <trkpt lat="50.22407" lon="3.28563">
        <ele>91</ele>
        <time>2014-03-02T16:25:09Z</time>
      </trkpt>
      <trkpt lat="50.22409" lon="3.28569">
        <ele>90</ele>
        <time>2014-03-02T16:25:11Z</time>
      </trkpt>
      <trkpt lat="50.22412" lon="3.28574">
        <ele>90</ele>
        <time>2014-03-02T16:25:13Z</time>
      </trkpt>
      <trkpt lat="50.22414" lon="3.28579">
        <ele>89</ele>
        <time>2014-03-02T16:25:15Z</time>
      </trkpt>
      <trkpt lat="50.22415" lon="3.28584">
        <ele>88</ele>
        <time>2014-03-02T16:25:17Z</time>
      </trkpt>
      <trkpt lat="50.22417" lon="3.28588">
        <ele>88</ele>
        <time>2014-03-02T16:25:19Z</time>
      </trkpt>
      <trkpt lat="50.22418" lon="3.28592">
        <ele>87</ele>
        <time>2014-03-02T16:25:21Z</time>
      </trkpt>
      <trkpt lat="50.2242" lon="3.28597">
        <ele>88</ele>
        <time>2014-03-02T16:25:24Z</time>
      </trkpt>
      <trkpt lat="50.22421" lon="3.28601">
        <ele>87</ele>
        <time>2014-03-02T16:25:27Z</time>
      </trkpt>
      <trkpt lat="50.22423" lon="3.28605">
        <ele>87</ele>
        <time>2014-03-02T16:25:31Z</time>
      </trkpt>
      <trkpt lat="50.22425" lon="3.28609">
        <ele>87</ele>
        <time>2014-03-02T16:25:33Z</time>
      </trkpt>
      <trkpt lat="50.22427" lon="3.28614">
        <ele>87</ele>
        <time>2014-03-02T16:25:36Z</time>
      </trkpt>
      <trkpt lat="50.22428" lon="3.2862">
        <ele>87</ele>
        <time>2014-03-02T16:25:39Z</time>
      </trkpt>
      <trkpt lat="50.2243" lon="3.28625">
        <ele>85</ele>
        <time>2014-03-02T16:25:42Z</time>
      </trkpt>
      <trkpt lat="50.2243" lon="3.2863">
        <ele>86</ele>
        <time>2014-03-02T16:25:44Z</time>
      </trkpt>
      <trkpt lat="50.22431" lon="3.28634">
        <ele>86</ele>
        <time>2014-03-02T16:25:46Z</time>
      </trkpt>
      <trkpt lat="50.22432" lon="3.28639">
        <ele>87</ele>
        <time>2014-03-02T16:25:48Z</time>
      </trkpt>
      <trkpt lat="50.22434" lon="3.28643">
        <ele>88</ele>
        <time>2014-03-02T16:25:50Z</time>
      </trkpt>
      <trkpt lat="50.22435" lon="3.28648">
        <ele>88</ele>
        <time>2014-03-02T16:25:53Z</time>
      </trkpt>
      <trkpt lat="50.22436" lon="3.28654">
        <ele>89</ele>
        <time>2014-03-02T16:25:56Z</time>
      </trkpt>
      <trkpt lat="50.22437" lon="3.28659">
        <ele>89</ele>
        <time>2014-03-02T16:25:59Z</time>
      </trkpt>
      <trkpt lat="50.22437" lon="3.28665">
        <ele>88</ele>
        <time>2014-03-02T16:26:02Z</time>
      </trkpt>
      <trkpt lat="50.22439" lon="3.28669">
        <ele>89</ele>
        <time>2014-03-02T16:26:05Z</time>
      </trkpt>
      <trkpt lat="50.22441" lon="3.28674">
        <ele>89</ele>
        <time>2014-03-02T16:26:08Z</time>
      </trkpt>
      <trkpt lat="50.22442" lon="3.28679">
        <ele>88</ele>
        <time>2014-03-02T16:26:11Z</time>
      </trkpt>
      <trkpt lat="50.22443" lon="3.28684">
        <ele>88</ele>
        <time>2014-03-02T16:26:14Z</time>
      </trkpt>
      <trkpt lat="50.22444" lon="3.28689">
        <ele>89</ele>
        <time>2014-03-02T16:26:17Z</time>
      </trkpt>
      <trkpt lat="50.22447" lon="3.28694">
        <ele>90</ele>
        <time>2014-03-02T16:26:20Z</time>
      </trkpt>
      <trkpt lat="50.22449" lon="3.28699">
        <ele>90</ele>
        <time>2014-03-02T16:26:23Z</time>
      </trkpt>
      <trkpt lat="50.2245" lon="3.28703">
        <ele>89</ele>
        <time>2014-03-02T16:26:26Z</time>
      </trkpt>
      <trkpt lat="50.22451" lon="3.28708">
        <ele>88</ele>
        <time>2014-03-02T16:26:31Z</time>
      </trkpt>
    </trkseg>
  </trk>
</gpx>